ftp/pub/palmer/observations_modified/2019/June/AR190415_BASE.txt

Download

Sample DateTime	Unit Id	WS Avg 2min	WD Avg 2min	WGS 10min	WGD 10min	Air Temp	Rel Humidity	Dew Point	Pyranometer	Quantum	Air Pressure	Snow Level	Rainfall	PW Current	Visibility	CBase 1	CBase 2	CBase 3	Vert Vis
2019/04/15 00:00:00	BASE	4.10	3	7.00	14	-1.7	72	-6.1	0	0	977.8	NA	0.0000		9999	3250	0	0	0
2019/04/15 00:01:00	BASE	4.11	5	7.00	14	-1.7	72	-6.1	0	0	977.8	NA	0.0000		9999	3380	0	0	0
2019/04/15 00:02:00	BASE	4.33	5	7.00	14	-1.6	71	-6.2	0	0	977.8	NA	0.0000		9999	3350	0	0	0
2019/04/15 00:03:00	BASE	4.37	12	7.00	14	-1.6	70	-6.3	0	0	977.9	NA	0.0000		9999	3350	0	0	0
2019/04/15 00:04:00	BASE	5.08	14	7.00	14	-1.6	70	-6.3	0	0	977.9	NA	0.0000		9999	3380	0	0	0
2019/04/15 00:05:00	BASE	6.10	6	7.00	14	-1.6	70	-6.4	0	0	977.9	NA	0.0000		9999	3350	0	0	0
2019/04/15 00:06:00	BASE	6.60	355	7.25	354	-1.6	70	-6.4	0	0	977.9	NA	0.0000		9999	3350	0	0	0
2019/04/15 00:07:00	BASE	6.90	357	7.36	1	-1.6	70	-6.4	0	0	977.9	NA	0.0000		9999	3380	0	0	0
2019/04/15 00:08:00	BASE	7.32	6	7.92	15	-1.6	70	-6.3	0	0	977.9	NA	0.0000		9999	3350	0	0	0
2019/04/15 00:09:00	BASE	7.67	10	8.03	10	-1.6	70	-6.4	0	0	977.9	NA	0.0000		9999	3280	0	0	0
2019/04/15 00:10:00	BASE	7.77	9	8.95	2	-1.6	70	-6.4	0	0	977.9	NA	0.0000		9999	3310	0	0	0
2019/04/15 00:11:00	BASE	7.53	4	8.95	2	-1.6	70	-6.4	0	0	977.9	NA	0.0000		9999	3310	0	0	0
2019/04/15 00:12:00	BASE	7.03	4	8.95	2	-1.7	70	-6.3	0	0	977.9	NA	0.0000		9999	3280	0	0	0
2019/04/15 00:13:00	BASE	6.81	6	8.95	2	-1.7	71	-6.3	0	0	977.9	NA	0.0000		9999	3250	0	0	0
2019/04/15 00:14:00	BASE	6.84	3	8.95	2	-1.7	71	-6.3	0	0	977.9	NA	0.0000		9999	3250	0	0	0
2019/04/15 00:15:00	BASE	6.48	5	8.95	2	-1.7	71	-6.3	0	0	977.9	NA	0.0000		9999	3250	0	0	0
2019/04/15 00:16:00	BASE	6.20	8	8.95	2	-1.7	70	-6.4	0	0	977.9	NA	0.0000		9999	3280	0	0	0
2019/04/15 00:17:00	BASE	6.02	7	8.95	2	-1.7	70	-6.4	0	0	978.0	NA	0.0000		9999	3310	0	0	0
2019/04/15 00:18:00	BASE	5.75	5	8.95	2	-1.7	70	-6.4	0	0	978.1	NA	0.0000		9999	3380	0	0	0
2019/04/15 00:19:00	BASE	5.75	8	8.95	2	-1.7	70	-6.4	0	0	978.1	NA	0.0000		9999	3380	0	0	0
2019/04/15 00:20:00	BASE	5.75	10	8.39	1	-1.6	70	-6.4	0	0	978.1	NA	0.0000		9999	3410	0	0	0
2019/04/15 00:21:00	BASE	5.76	9	7.31	2	-1.6	70	-6.3	0	0	978.1	NA	0.0000		9999	3480	0	0	0
2019/04/15 00:22:00	BASE	6.25	11	7.31	2	-1.6	71	-6.3	0	0	978.1	NA	0.0000		9999	3480	0	0	0
2019/04/15 00:23:00	BASE	6.59	11	7.20	3	-1.6	71	-6.2	0	0	978.1	NA	0.0000		9999	3510	0	0	0
2019/04/15 00:24:00	BASE	6.77	11	7.25	12	-1.6	71	-6.2	0	0	978.1	NA	0.0000		9999	3510	0	0	0
2019/04/15 00:25:00	BASE	7.24	11	8.49	355	-1.6	71	-6.2	0	0	978.1	NA	0.0000		9999	3510	0	0	0
2019/04/15 00:26:00	BASE	7.20	4	8.49	355	-1.7	71	-6.2	0	0	978.1	NA	0.0000		9999	3580	0	0	0
2019/04/15 00:27:00	BASE	6.43	356	8.49	355	-1.7	71	-6.2	0	0	978.1	NA	0.0000		9999	3480	0	0	0
2019/04/15 00:28:00	BASE	6.24	1	8.49	355	-1.7	71	-6.2	0	0	978.1	NA	0.0000		9999	3510	0	0	0
2019/04/15 00:29:00	BASE	6.34	13	8.49	355	-1.7	71	-6.2	0	0	978.1	NA	0.0000		9999	3480	0	0	0
2019/04/15 00:30:00	BASE	6.24	15	8.49	355	-1.7	71	-6.3	0	0	978.2	NA	0.0000		9999	3540	0	0	0
2019/04/15 00:31:00	BASE	6.51	10	8.49	355	-1.7	70	-6.3	0	0	978.1	NA	0.0000		9999	3450	0	0	0
2019/04/15 00:32:00	BASE	6.24	5	8.49	355	-1.7	70	-6.4	0	0	978.1	NA	0.0000		9999	3280	0	0	0
2019/04/15 00:33:00	BASE	6.49	1	8.49	355	-1.7	70	-6.4	0	0	978.1	NA	0.0000		9999	3410	0	0	0
2019/04/15 00:34:00	BASE	6.72	360	8.49	355	-1.7	70	-6.5	0	0	978.1	NA	0.0000		9999	3480	0	0	0
2019/04/15 00:35:00	BASE	5.77	6	7.77	352	-1.6	69	-6.5	0	0	978.2	NA	0.0000		9999	3410	0	0	0
2019/04/15 00:36:00	BASE	5.48	11	7.72	1	-1.6	69	-6.6	0	0	978.1	NA	0.0000		9999	3380	0	0	0
2019/04/15 00:37:00	BASE	5.90	11	7.72	1	-1.6	69	-6.7	0	0	978.1	NA	0.0000		9999	3380	0	0	0
2019/04/15 00:38:00	BASE	5.89	11	7.72	1	-1.7	69	-6.6	0	0	978.1	NA	0.0000		9999	3450	0	0	0
2019/04/15 00:39:00	BASE	5.89	11	7.72	1	-1.7	70	-6.5	0	0	978.1	NA	0.0000		9999	3480	0	0	0
2019/04/15 00:40:00	BASE	6.06	12	7.72	1	-1.7	71	-6.3	0	0	978.2	NA	0.0000		9999	3380	0	0	0
2019/04/15 00:41:00	BASE	5.89	12	7.72	1	-1.7	72	-6.1	0	0	978.2	NA	0.0000		9999	3350	0	0	0
2019/04/15 00:42:00	BASE	5.63	11	7.72	1	-1.7	72	-6.0	0	0	978.2	NA	0.0000		9999	3280	0	0	0
2019/04/15 00:43:00	BASE	5.73	17	7.56	349	-1.7	73	-6.0	0	0	978.2	NA	0.0000		9999	3540	0	0	0
2019/04/15 00:44:00	BASE	6.25	22	7.15	19	-1.7	73	-5.9	0	0	978.2	NA	0.0000		9999	3540	0	0	0
2019/04/15 00:45:00	BASE	6.61	26	7.77	38	-1.7	73	-6.0	0	0	978.2	NA	0.0000		9999	3350	0	0	0
2019/04/15 00:46:00	BASE	6.68	30	7.77	38	-1.7	73	-6.0	0	0	978.2	NA	0.0000		9999	3410	0	0	0
2019/04/15 00:47:00	BASE	6.43	31	7.77	38	-1.7	72	-6.1	0	0	978.2	NA	0.0000		9999	3480	0	0	0
2019/04/15 00:48:00	BASE	6.07	32	7.77	38	-1.8	72	-6.2	0	0	978.2	NA	0.0000		9999	3640	0	0	0
2019/04/15 00:49:00	BASE	5.89	33	7.77	38	-1.8	72	-6.2	0	0	978.2	NA	0.0000		9999	3510	0	0	0
2019/04/15 00:50:00	BASE	6.18	28	7.77	38	-1.9	72	-6.2	0	0	978.2	NA	0.0000		9999	3480	0	0	0
2019/04/15 00:51:00	BASE	6.79	23	7.77	38	-1.9	73	-6.1	0	0	978.2	NA	0.0000		9999	3450	0	0	0
2019/04/15 00:52:00	BASE	7.32	24	8.03	28	-1.9	73	-6.0	0	0	978.2	NA	0.0000		9999	3510	0	0	0
2019/04/15 00:53:00	BASE	7.28	27	8.03	28	-1.8	74	-5.9	0	0	978.2	NA	0.0000		9999	3540	0	0	0
2019/04/15 00:54:00	BASE	6.78	30	8.03	28	-1.8	73	-5.9	0	0	978.2	NA	0.0000		9999	3380	0	0	0
2019/04/15 00:55:00	BASE	6.55	34	8.03	28	-1.8	73	-6.0	0	0	978.2	NA	0.0000		9999	3450	0	0	0
2019/04/15 00:56:00	BASE	6.40	36	8.03	28	-1.8	72	-6.1	0	0	978.2	NA	0.0000		9999	3410	0	0	0
2019/04/15 00:57:00	BASE	5.79	39	8.03	28	-1.8	72	-6.2	0	0	978.2	NA	0.0000		9999	3410	0	0	0
2019/04/15 00:58:00	BASE	5.27	44	8.03	28	-1.8	71	-6.3	0	0	978.2	NA	0.0000		9999	3410	0	0	0
2019/04/15 00:59:00	BASE	4.91	38	8.03	28	-1.8	72	-6.2	0	0	978.2	NA	0.0000		9999	3380	0	0	0
2019/04/15 01:00:00	BASE	4.95	32	8.03	28	-1.8	72	-6.2	0	0	978.2	NA	0.0000		9999	3350	0	0	0
2019/04/15 01:01:00	BASE	5.41	33	8.03	28	-1.9	73	-6.1	0	0	978.2	NA	0.0000		9999	3350	0	0	0
2019/04/15 01:02:00	BASE	6.13	35	7.56	31	-1.9	73	-6.0	0	0	978.2	NA	0.0000		9999	3310	0	0	0
2019/04/15 01:03:00	BASE	7.27	34	8.18	27	-1.9	74	-6.0	0	0	978.1	NA	0.0000		9999	3350	0	0	0
2019/04/15 01:04:00	BASE	7.87	32	8.80	33	-1.9	74	-5.9	0	0	978.1	NA	0.0000		9999	3350	0	0	0
2019/04/15 01:05:00	BASE	8.51	33	9.77	35	-1.9	74	-6.0	0	0	978.1	NA	0.0000		9999	3350	0	0	0
2019/04/15 01:06:00	BASE	8.77	32	9.77	35	-1.9	74	-6.0	0	0	978.1	NA	0.0000		9999	3350	0	0	0
2019/04/15 01:07:00	BASE	8.08	33	9.77	35	-1.9	73	-6.0	0	0	978.1	NA	0.0000		9999	3350	0	0	0
2019/04/15 01:08:00	BASE	7.46	35	9.77	35	-1.9	73	-6.1	0	0	978.1	NA	0.0000		9999	3280	0	0	0
2019/04/15 01:09:00	BASE	6.78	37	9.77	35	-1.9	73	-6.2	0	0	978.1	NA	0.0000		9999	3350	0	0	0
2019/04/15 01:10:00	BASE	6.05	39	9.77	35	-1.9	73	-6.2	0	0	978.1	NA	0.0000		9999	3380	0	0	0
2019/04/15 01:11:00	BASE	5.72	40	9.77	35	-1.9	73	-6.1	0	0	978.2	NA	0.0000		9999	3410	0	0	0
2019/04/15 01:12:00	BASE	5.98	37	9.77	35	-1.9	73	-6.1	0	0	978.2	NA	0.0000		9999	3380	0	0	0
2019/04/15 01:13:00	BASE	6.17	37	9.77	35	-1.9	73	-6.0	0	0	978.1	NA	0.0000		9999	3540	0	0	0
2019/04/15 01:14:00	BASE	6.18	40	9.77	35	-1.9	74	-6.0	0	0	978.1	NA	0.0000		9999	3410	0	0	0
2019/04/15 01:15:00	BASE	6.50	40	9.05	28	-1.9	74	-5.9	0	0	978.1	NA	0.0000		9999	3350	0	0	0
2019/04/15 01:16:00	BASE	6.99	38	9.11	37	-1.9	74	-5.9	0	0	978.1	NA	0.0000		9999	3410	0	0	0
2019/04/15 01:17:00	BASE	7.41	39	9.11	37	-1.9	74	-5.9	0	0	978.1	NA	0.0000		9999	3280	0	0	0
2019/04/15 01:18:00	BASE	7.51	43	9.11	37	-1.9	74	-5.9	0	0	978.1	NA	0.0000		9999	3350	0	0	0
2019/04/15 01:19:00	BASE	7.62	42	9.11	37	-1.9	74	-5.9	0	0	978.1	NA	0.0000		9999	3310	0	0	0
2019/04/15 01:20:00	BASE	7.40	42	9.11	37	-1.9	74	-5.9	0	0	978.1	NA	0.0000		9999	3310	0	0	0
2019/04/15 01:21:00	BASE	6.82	42	9.11	37	-1.9	75	-5.9	0	0	978.1	NA	0.0000		9999	3410	0	0	0
2019/04/15 01:22:00	BASE	6.58	43	9.11	37	-1.9	75	-5.8	0	0	978.0	NA	0.0000		9999	3380	0	0	0
2019/04/15 01:23:00	BASE	6.48	44	9.11	37	-1.9	75	-5.8	0	0	978.1	NA	0.0000		9999	3350	0	0	0
2019/04/15 01:24:00	BASE	6.06	44	9.11	37	-1.9	74	-5.8	0	0	978.1	NA	0.0000		9999	3310	0	0	0
2019/04/15 01:25:00	BASE	5.85	48	9.11	37	-1.9	74	-5.9	0	0	978.1	NA	0.0000		9999	3310	0	0	0
2019/04/15 01:26:00	BASE	6.03	51	8.64	37	-1.8	74	-5.9	0	0	978.1	NA	0.0000		9999	3280	0	0	0
2019/04/15 01:27:00	BASE	5.86	50	8.23	40	-1.8	73	-6.0	0	0	978.1	NA	0.0000		9999	3220	0	0	0
2019/04/15 01:28:00	BASE	5.80	47	8.23	40	-1.8	73	-6.0	0	0	978.1	NA	0.0000		9999	3350	0	0	0
2019/04/15 01:29:00	BASE	6.20	45	7.97	46	-1.8	73	-6.0	0	0	978.1	NA	0.0000		9999	3310	0	0	0
2019/04/15 01:30:00	BASE	6.41	42	7.67	44	-1.8	72	-6.1	0	0	978.1	NA	0.0000		9999	3250	0	0	0
2019/04/15 01:31:00	BASE	7.51	39	9.62	42	-1.8	72	-6.1	0	0	978.1	NA	0.0000		9999	3220	0	0	0
2019/04/15 01:32:00	BASE	8.80	42	9.77	46	-1.8	72	-6.1	0	0	978.1	NA	0.0000		9999	3250	0	0	0
2019/04/15 01:33:00	BASE	8.61	47	9.77	46	-1.8	72	-6.1	0	0	978.1	NA	0.0000		9999	3280	0	0	0
2019/04/15 01:34:00	BASE	8.01	45	9.77	46	-1.8	72	-6.2	0	0	978.2	NA	0.0000		9999	3280	0	0	0
2019/04/15 01:35:00	BASE	7.79	42	9.77	46	-1.7	71	-6.2	0	0	978.2	NA	0.0000		9999	3220	0	0	0
2019/04/15 01:36:00	BASE	7.99	41	9.77	46	-1.7	71	-6.3	0	0	978.2	NA	0.0000		9999	3150	0	0	0
2019/04/15 01:37:00	BASE	8.11	40	9.77	46	-1.7	71	-6.4	0	0	978.2	NA	0.0000		9999	3180	0	0	0
2019/04/15 01:38:00	BASE	8.18	40	9.77	46	-1.7	71	-6.4	0	0	978.2	NA	0.0000		9999	3150	0	0	0
2019/04/15 01:39:00	BASE	8.42	40	9.77	46	-1.8	71	-6.4	0	0	978.2	NA	0.0000		9999	3220	0	0	0
2019/04/15 01:40:00	BASE	8.38	42	9.77	46	-1.8	71	-6.4	0	0	978.2	NA	0.0000		9999	3220	0	0	0
2019/04/15 01:41:00	BASE	8.26	46	9.77	46	-1.8	70	-6.5	0	0	978.2	NA	0.0000		9999	3250	0	0	0
2019/04/15 01:42:00	BASE	8.14	46	9.31	42	-1.8	70	-6.5	0	0	978.2	NA	0.0000		9999	3250	0	0	0
2019/04/15 01:43:00	BASE	7.98	45	9.31	42	-1.8	70	-6.6	0	0	978.2	NA	0.0000		9999	3250	0	0	0
2019/04/15 01:44:00	BASE	7.54	46	9.31	42	-1.8	70	-6.5	0	0	978.2	NA	0.0000		9999	3310	0	0	0
2019/04/15 01:45:00	BASE	7.75	46	9.31	42	-1.8	70	-6.5	0	0	978.2	NA	0.0000		9999	3220	0	0	0
2019/04/15 01:46:00	BASE	8.46	47	9.31	42	-1.9	71	-6.5	0	0	978.2	NA	0.0000		9999	3220	0	0	0
2019/04/15 01:47:00	BASE	8.24	44	9.31	42	-1.9	71	-6.5	0	0	978.2	NA	0.0000		9999	3180	0	0	0
2019/04/15 01:48:00	BASE	8.11	42	9.41	40	-1.9	71	-6.4	0	0	978.2	NA	0.0000		9999	3150	0	0	0
2019/04/15 01:49:00	BASE	8.23	40	9.41	40	-1.9	71	-6.4	0	0	978.2	NA	0.0000		9999	3150	0	0	0
2019/04/15 01:50:00	BASE	8.13	39	9.41	40	-1.9	71	-6.5	0	0	978.2	NA	0.0000		9999	3150	0	0	0
2019/04/15 01:51:00	BASE	8.45	38	9.67	36	-1.8	71	-6.5	0	0	978.2	NA	0.0000		9999	3120	0	0	0
2019/04/15 01:52:00	BASE	8.81	36	9.77	39	-1.8	71	-6.5	0	0	978.1	NA	0.0000		9999	3280	0	0	0
2019/04/15 01:53:00	BASE	9.17	36	10.03	38	-1.8	71	-6.4	0	0	978.1	NA	0.0000		9999	3250	0	0	0
2019/04/15 01:54:00	BASE	8.84	35	10.03	38	-1.8	70	-6.5	0	0	978.2	NA	0.0000		9999	3220	0	0	0
2019/04/15 01:55:00	BASE	8.22	35	10.03	38	-1.8	71	-6.4	0	0	978.2	NA	0.0000		9999	3180	0	0	0
2019/04/15 01:56:00	BASE	8.57	35	10.03	38	-1.8	71	-6.4	0	0	978.2	NA	0.0000		9999	3180	0	0	0
2019/04/15 01:57:00	BASE	8.69	39	10.03	38	-1.8	71	-6.4	0	0	978.2	NA	0.0000		9999	3180	0	0	0
2019/04/15 01:58:00	BASE	8.77	40	10.03	38	-1.8	71	-6.4	0	0	978.1	NA	0.0000		9999	3120	0	0	0
2019/04/15 01:59:00	BASE	8.48	35	10.03	38	-1.8	71	-6.4	0	0	978.2	NA	0.0000		9999	3080	0	0	0
2019/04/15 02:00:00	BASE	7.67	35	10.03	38	-1.8	71	-6.4	0	0	978.2	NA	0.0000		9999	3080	0	0	0
2019/04/15 02:01:00	BASE	7.47	36	10.03	38	-1.8	71	-6.3	0	0	978.1	NA	0.0000		9999	3120	0	0	0
2019/04/15 02:02:00	BASE	8.16	40	10.03	38	-1.8	71	-6.3	0	0	978.1	NA	0.0000		9999	3120	0	0	0
2019/04/15 02:03:00	BASE	8.58	41	9.98	35	-1.8	72	-6.3	0	0	978.1	NA	0.0000		9999	3120	0	0	0
2019/04/15 02:04:00	BASE	7.86	42	9.98	35	-1.8	72	-6.2	0	0	978.2	NA	0.0000		9999	3180	0	0	0
2019/04/15 02:05:00	BASE	7.85	42	9.98	35	-1.8	72	-6.2	0	0	978.2	NA	0.0000		9999	3220	0	0	0
2019/04/15 02:06:00	BASE	8.56	42	9.98	35	-1.8	72	-6.2	0	0	978.2	NA	0.0000		9999	3180	0	0	0
2019/04/15 02:07:00	BASE	9.09	42	10.34	46	-1.8	72	-6.2	0	0	978.2	NA	0.0000		9999	3180	0	0	0
2019/04/15 02:08:00	BASE	9.40	40	10.34	46	-1.8	72	-6.2	0	0	978.2	NA	0.0000		9999	3180	0	0	0
2019/04/15 02:09:00	BASE	9.39	40	10.34	43	-1.8	72	-6.3	0	0	978.2	NA	0.0000		9999	3180	0	0	0
2019/04/15 02:10:00	BASE	9.43	43	10.34	43	-1.8	71	-6.3	0	0	978.2	NA	0.0000		9999	3180	0	0	0
2019/04/15 02:11:00	BASE	9.31	42	10.34	43	-1.8	71	-6.4	0	0	978.2	NA	0.0000		9999	3080	0	0	0
2019/04/15 02:12:00	BASE	9.27	43	10.34	43	-1.8	71	-6.4	0	0	978.2	NA	0.0000		9999	3180	0	0	0
2019/04/15 02:13:00	BASE	9.30	43	10.34	43	-1.8	70	-6.5	0	0	978.2	NA	0.0000		9999	3150	0	0	0
2019/04/15 02:14:00	BASE	9.41	43	10.44	44	-1.8	70	-6.5	0	0	978.2	NA	0.0000		9999	3150	0	0	0
2019/04/15 02:15:00	BASE	9.18	44	10.44	44	-1.8	71	-6.4	0	0	978.2	NA	0.0000		9999	3120	0	0	0
2019/04/15 02:16:00	BASE	9.23	44	10.44	44	-1.8	71	-6.4	0	0	978.2	NA	0.0000		9999	3120	0	0	0
2019/04/15 02:17:00	BASE	9.82	45	10.91	35	-1.8	71	-6.4	0	0	978.2	NA	0.0000		9999	3120	0	0	0
2019/04/15 02:18:00	BASE	9.92	46	10.91	35	-1.8	71	-6.4	0	0	978.2	NA	0.0000		9999	3150	0	0	0
2019/04/15 02:19:00	BASE	9.95	45	10.91	35	-1.8	71	-6.4	0	0	978.2	NA	0.0000		9999	3220	0	0	0
2019/04/15 02:20:00	BASE	10.22	43	11.42	42	-1.7	70	-6.4	0	0	978.2	NA	0.0000		9999	3180	0	0	0
2019/04/15 02:21:00	BASE	10.53	40	11.42	42	-1.7	70	-6.4	0	0	978.2	NA	0.0000		9999	3180	0	0	0
2019/04/15 02:22:00	BASE	10.59	39	11.42	42	-1.7	70	-6.4	0	0	978.2	NA	0.0000		9999	3120	0	0	0
2019/04/15 02:23:00	BASE	10.55	41	12.24	34	-1.7	71	-6.4	0	0	978.2	NA	0.0000		9999	3120	0	0	0
2019/04/15 02:24:00	BASE	10.74	44	12.40	47	-1.8	71	-6.4	0	0	978.1	NA	0.0000		9999	3080	0	0	0
2019/04/15 02:25:00	BASE	10.39	46	12.40	47	-1.8	71	-6.3	0	0	978.1	NA	0.0000		9999	3120	0	0	0
2019/04/15 02:26:00	BASE	10.05	46	12.40	47	-1.8	71	-6.3	0	0	978.2	NA	0.0000		9999	3180	0	0	0
2019/04/15 02:27:00	BASE	10.38	48	12.40	47	-1.8	71	-6.3	0	0	978.1	NA	0.0000		9999	3180	0	0	0
2019/04/15 02:28:00	BASE	10.47	50	12.40	47	-1.8	71	-6.3	0	0	978.1	NA	0.0000		9999	3150	0	0	0
2019/04/15 02:29:00	BASE	10.58	50	12.40	47	-1.8	71	-6.3	0	0	978.1	NA	0.0000		9999	3080	0	0	0
2019/04/15 02:30:00	BASE	10.08	50	12.40	47	-1.7	71	-6.3	0	0	978.1	NA	0.0000		9999	3120	0	0	0
2019/04/15 02:31:00	BASE	9.84	45	12.40	47	-1.7	71	-6.3	0	0	978.1	NA	0.0000		9999	3080	0	0	0
2019/04/15 02:32:00	BASE	10.24	41	12.40	47	-1.7	71	-6.3	0	0	978.1	NA	0.0000		9999	3120	3840	0	0
2019/04/15 02:33:00	BASE	10.09	45	12.40	47	-1.7	71	-6.2	0	0	978.1	NA	0.0000		9999	3280	0	0	0
2019/04/15 02:34:00	BASE	9.68	53	11.78	51	-1.7	71	-6.2	0	0	978.1	NA	0.0000		9999	3450	0	0	0
2019/04/15 02:35:00	BASE	9.87	57	11.78	51	-1.7	71	-6.2	0	0	978.0	NA	0.0000		9999	3410	0	0	0
2019/04/15 02:36:00	BASE	10.01	58	11.78	51	-1.7	71	-6.2	0	0	978.0	NA	0.0000		9999	3380	0	0	0
2019/04/15 02:37:00	BASE	10.14	59	11.88	59	-1.7	71	-6.3	0	0	978.0	NA	0.0000		9999	3450	0	0	0
2019/04/15 02:38:00	BASE	10.92	60	12.14	59	-1.7	71	-6.2	0	0	978.0	NA	0.0000		9999	3450	0	0	0
2019/04/15 02:39:00	BASE	10.84	62	12.14	59	-1.8	72	-6.2	0	0	978.0	NA	0.0000		9999	3510	0	0	0
2019/04/15 02:40:00	BASE	10.73	65	13.22	65	-1.8	72	-6.3	0	0	978.0	NA	0.0000		9999	3510	0	0	0
2019/04/15 02:41:00	BASE	11.57	60	13.48	50	-1.9	72	-6.3	0	0	977.9	NA	0.0000		9999	3350	0	0	0
2019/04/15 02:42:00	BASE	11.72	51	13.48	50	-1.9	72	-6.2	0	0	977.9	NA	0.0000		9999	3350	0	0	0
2019/04/15 02:43:00	BASE	11.23	47	13.48	50	-1.9	72	-6.2	0	0	977.9	NA	0.0000		9999	3450	0	0	0
2019/04/15 02:44:00	BASE	12.26	48	14.30	52	-1.8	72	-6.2	0	0	977.9	NA	0.0000		9999	3580	0	0	0
2019/04/15 02:45:00	BASE	12.96	54	14.30	52	-1.8	72	-6.2	0	0	977.9	NA	0.0000		9999	3580	0	0	0
2019/04/15 02:46:00	BASE	12.18	57	14.30	52	-1.8	72	-6.1	0	0	977.9	NA	0.0000		9999	3580	0	0	0
2019/04/15 02:47:00	BASE	12.18	59	14.30	52	-1.7	72	-6.1	0	0	977.9	NA	0.0000		9999	3740	0	0	0
2019/04/15 02:48:00	BASE	12.58	59	14.30	52	-1.7	72	-6.1	0	0	977.9	NA	0.0000		9999	3740	0	0	0
2019/04/15 02:49:00	BASE	12.45	56	14.30	52	-1.8	72	-6.1	0	0	977.9	NA	0.0000		9999	3670	0	0	0
2019/04/15 02:50:00	BASE	12.08	54	14.30	52	-1.8	72	-6.1	0	0	977.9	NA	0.0000		9999	3710	0	0	0
2019/04/15 02:51:00	BASE	12.40	54	14.61	51	-1.8	72	-6.1	0	0	977.9	NA	0.0000		9999	3840	0	0	0
2019/04/15 02:52:00	BASE	12.99	53	14.61	51	-1.8	73	-6.1	0	0	977.9	NA	0.0000		9999	3770	0	0	0
2019/04/15 02:53:00	BASE	12.88	53	14.61	51	-1.8	73	-6.1	0	0	977.9	NA	0.0000		9999	3740	0	0	0
2019/04/15 02:54:00	BASE	12.50	54	14.61	51	-1.8	73	-6.1	0	0	977.8	NA	0.0000		9999	3770	0	0	0
2019/04/15 02:55:00	BASE	13.16	54	15.07	55	-1.8	72	-6.1	0	0	977.8	NA	0.0000		9999	3740	0	0	0
2019/04/15 02:56:00	BASE	13.65	53	15.07	55	-1.7	72	-6.2	0	0	977.8	NA	0.0000		9999	3740	0	0	0
2019/04/15 02:57:00	BASE	13.50	54	15.07	55	-1.7	71	-6.2	0	0	977.8	NA	0.0000		9999	3770	0	0	0
2019/04/15 02:58:00	BASE	14.26	55	15.64	54	-1.7	71	-6.2	0	0	977.8	NA	0.0000		9999	3770	0	0	0
2019/04/15 02:59:00	BASE	14.39	54	15.64	54	-1.7	71	-6.3	0	0	977.8	NA	0.0000		9999	3840	0	0	0
2019/04/15 03:00:00	BASE	13.75	54	15.64	54	-1.7	71	-6.3	0	0	977.8	NA	0.0000		9999	3840	0	0	0
2019/04/15 03:01:00	BASE	14.12	55	16.20	53	-1.7	71	-6.3	0	0	977.7	NA	0.0000		9999	3770	0	0	0
2019/04/15 03:02:00	BASE	15.46	54	17.34	51	-1.7	71	-6.3	0	0	977.8	NA	0.0000		9999	3770	0	0	0
2019/04/15 03:03:00	BASE	15.18	53	17.34	51	-1.7	71	-6.3	0	0	977.7	NA	0.0000		9999	3940	0	0	0
2019/04/15 03:04:00	BASE	13.86	53	17.34	51	-1.7	71	-6.3	0	0	977.8	NA	0.0000		9999	3870	0	0	0
2019/04/15 03:05:00	BASE	13.84	54	17.34	51	-1.7	71	-6.3	0	0	977.7	NA	0.0000		9999	3840	0	0	0
2019/04/15 03:06:00	BASE	14.11	53	17.34	51	-1.7	71	-6.3	0	0	977.7	NA	0.0000		9999	3810	0	0	0
2019/04/15 03:07:00	BASE	14.36	52	17.34	51	-1.7	71	-6.3	0	0	977.7	NA	0.0000		9999	3840	0	0	0
2019/04/15 03:08:00	BASE	14.96	52	17.34	51	-1.7	71	-6.3	0	0	977.7	NA	0.0000		9999	3840	0	0	0
2019/04/15 03:09:00	BASE	15.37	52	17.34	51	-1.7	71	-6.3	0	0	977.7	NA	0.0000		9999	3810	0	0	0
2019/04/15 03:10:00	BASE	16.00	51	17.85	53	-1.7	71	-6.3	0	0	977.7	NA	0.0000		9999	3770	0	0	0
2019/04/15 03:11:00	BASE	15.86	51	17.85	53	-1.6	71	-6.3	0	0	977.7	NA	0.0000		9999	3740	0	0	0
2019/04/15 03:12:00	BASE	15.22	51	17.85	53	-1.6	71	-6.3	0	0	977.6	NA	0.0000		9999	3740	0	0	0
2019/04/15 03:13:00	BASE	15.16	50	17.85	53	-1.6	70	-6.3	0	0	977.6	NA	0.0000		9999	3710	0	0	0
2019/04/15 03:14:00	BASE	14.64	50	17.85	53	-1.6	70	-6.3	0	0	977.6	NA	0.0000		9999	3740	0	0	0
2019/04/15 03:15:00	BASE	14.66	49	17.85	53	-1.6	71	-6.2	0	0	977.6	NA	0.0000		9999	3670	0	0	0
2019/04/15 03:16:00	BASE	15.26	49	17.85	53	-1.5	71	-6.2	0	0	977.6	NA	0.0000		9999	3810	0	0	0
2019/04/15 03:17:00	BASE	15.01	49	17.85	53	-1.5	71	-6.1	0	0	977.6	NA	0.0000		9999	3710	0	0	0
2019/04/15 03:18:00	BASE	14.58	49	17.85	53	-1.5	71	-6.1	0	0	977.6	NA	0.0000		9999	3670	0	0	0
2019/04/15 03:19:00	BASE	14.55	49	17.85	53	-1.5	71	-6.1	0	0	977.5	NA	0.0000		9999	3740	0	0	0
2019/04/15 03:20:00	BASE	14.17	50	17.44	48	-1.5	71	-6.0	0	0	977.5	NA	0.0000		9999	3740	0	0	0
2019/04/15 03:21:00	BASE	15.12	51	17.39	51	-1.5	71	-6.0	0	0	977.5	NA	0.0000		9999	3640	0	0	0
2019/04/15 03:22:00	BASE	15.94	50	17.39	51	-1.5	71	-6.1	0	0	977.4	NA	0.0000		9999	3870	0	0	0
2019/04/15 03:23:00	BASE	15.23	51	17.39	51	-1.5	71	-6.1	0	0	977.5	NA	0.0000		9999	3810	0	0	0
2019/04/15 03:24:00	BASE	14.77	51	17.39	51	-1.5	71	-6.1	0	0	977.5	NA	0.0000		9999	3870	0	0	0
2019/04/15 03:25:00	BASE	14.34	50	17.39	51	-1.4	71	-6.1	0	0	977.5	NA	0.0000		9999	3970	0	0	0
2019/04/15 03:26:00	BASE	14.44	51	17.39	51	-1.4	71	-6.1	0	0	977.5	NA	0.0000		9999	4040	0	0	0
2019/04/15 03:27:00	BASE	14.90	49	17.39	51	-1.4	71	-6.0	0	0	977.4	NA	0.0000		9999	4100	0	0	0
2019/04/15 03:28:00	BASE	15.07	48	17.39	51	-1.4	71	-6.0	0	0	977.4	NA	0.0000		9999	3870	0	0	0
2019/04/15 03:29:00	BASE	15.05	47	17.39	51	-1.4	71	-5.9	0	0	977.4	NA	0.0000		9999	3740	0	0	0
2019/04/15 03:30:00	BASE	15.70	48	17.54	50	-1.4	71	-5.9	0	0	977.4	NA	0.0000		9999	3970	0	0	0
2019/04/15 03:31:00	BASE	16.44	49	17.54	50	-1.4	71	-6.0	0	0	977.4	NA	0.0000		9999	3900	0	0	0
2019/04/15 03:32:00	BASE	16.40	50	17.85	56	-1.4	71	-6.0	0	0	977.4	NA	0.0000		9999	3900	0	0	0
2019/04/15 03:33:00	BASE	15.91	49	17.85	56	-1.3	70	-6.0	0	0	977.4	NA	0.0000		9999	4170	0	0	0
2019/04/15 03:34:00	BASE	15.84	49	17.85	56	-1.3	70	-6.1	0	0	977.4	NA	0.0000		9999	4170	0	0	0
2019/04/15 03:35:00	BASE	16.36	50	17.85	56	-1.3	70	-6.1	0	0	977.3	NA	0.0000		9999	4040	0	0	0
2019/04/15 03:36:00	BASE	15.43	50	17.85	56	-1.3	70	-6.1	0	0	977.3	NA	0.0000		9999	4100	0	0	0
2019/04/15 03:37:00	BASE	14.78	48	17.85	56	-1.3	70	-6.0	0	0	977.3	NA	0.0000		9999	4070	0	0	0
2019/04/15 03:38:00	BASE	15.13	48	17.85	56	-1.3	70	-6.0	0	0	977.3	NA	0.0000		9999	4070	0	0	0
2019/04/15 03:39:00	BASE	14.76	49	17.85	56	-1.2	70	-6.0	0	0	977.3	NA	0.0000		9999	3870	0	0	0
2019/04/15 03:40:00	BASE	15.02	49	17.85	56	-1.2	70	-6.0	0	0	977.3	NA	0.0000		9999	3870	0	0	0
2019/04/15 03:41:00	BASE	15.59	49	17.85	56	-1.2	70	-6.0	0	0	977.3	NA	0.0000		9999	4100	0	0	0
2019/04/15 03:42:00	BASE	15.46	50	17.59	49	-1.2	70	-6.0	0	0	977.3	NA	0.0000		9999	4070	0	0	0
2019/04/15 03:43:00	BASE	15.26	51	17.59	49	-1.2	70	-6.0	0	0	977.3	NA	0.0000		9999	4100	0	0	0
2019/04/15 03:44:00	BASE	14.98	52	17.59	49	-1.2	70	-5.9	0	0	977.3	NA	0.0000		9999	4070	0	0	0
2019/04/15 03:45:00	BASE	14.42	51	16.67	47	-1.1	70	-5.9	0	0	977.3	NA	0.0000		9999	4070	0	0	0
2019/04/15 03:46:00	BASE	15.09	50	17.34	49	-1.1	70	-5.9	0	0	977.3	NA	0.0000		9999	4000	0	0	0
2019/04/15 03:47:00	BASE	15.82	51	17.34	49	-1.1	70	-5.9	0	0	977.3	NA	0.0000		9999	3940	0	0	0
2019/04/15 03:48:00	BASE	15.79	51	17.34	49	-1.1	70	-5.9	0	0	977.3	NA	0.0000		9999	3900	0	0	0
2019/04/15 03:49:00	BASE	15.65	51	17.34	49	-1.1	70	-5.9	0	0	977.3	NA	0.0000		9999	3900	0	0	0
2019/04/15 03:50:00	BASE	15.12	51	17.34	49	-1.1	69	-6.0	0	0	977.3	NA	0.0000		9999	3840	0	0	0
2019/04/15 03:51:00	BASE	14.83	50	17.34	49	-1.0	69	-6.0	0	0	977.3	NA	0.0000		9999	3870	0	0	0
2019/04/15 03:52:00	BASE	14.45	51	17.34	49	-1.0	69	-6.0	0	0	977.3	NA	0.0000		9999	3840	0	0	0
2019/04/15 03:53:00	BASE	14.44	50	17.34	49	-1.0	69	-6.0	0	0	977.3	NA	0.0000		9999	3810	0	0	0
2019/04/15 03:54:00	BASE	15.03	50	17.34	49	-1.0	69	-6.0	0	0	977.3	NA	0.0000		9999	3840	0	0	0
2019/04/15 03:55:00	BASE	15.46	49	17.34	49	-1.0	69	-6.0	0	0	977.3	NA	0.0000		9999	3900	0	0	0
2019/04/15 03:56:00	BASE	15.57	48	17.03	49	-1.0	69	-6.0	0	0	977.2	NA	0.0000		9999	3810	0	0	0
2019/04/15 03:57:00	BASE	15.98	50	17.29	54	-1.0	69	-6.1	0	0	977.2	NA	0.0000		9999	3710	0	0	0
2019/04/15 03:58:00	BASE	15.98	52	17.29	54	-1.0	69	-6.1	0	0	977.2	NA	0.0000		9999	3810	0	0	0
2019/04/15 03:59:00	BASE	15.50	53	17.29	54	-1.0	69	-6.1	0	0	977.1	NA	0.0000		9999	3770	0	0	0
2019/04/15 04:00:00	BASE	15.30	53	17.29	54	-1.0	69	-6.1	0	0	977.1	NA	0.0000		9999	3740	0	0	0
2019/04/15 04:01:00	BASE	15.59	53	17.29	54	-1.0	68	-6.1	0	0	977.0	NA	0.0000		9999	3770	4490	0	0
2019/04/15 04:02:00	BASE	15.49	53	17.29	54	-1.0	68	-6.1	0	0	977.0	NA	0.0000		9999	3970	4720	0	0
2019/04/15 04:03:00	BASE	14.75	53	17.29	54	-0.9	68	-6.1	0	0	977.1	NA	0.0000		9999	4200	4890	0	0
2019/04/15 04:04:00	BASE	15.00	52	17.29	54	-0.9	68	-6.1	0	0	977.1	NA	0.0000		9999	4270	0	0	0
2019/04/15 04:05:00	BASE	15.68	52	17.29	54	-0.9	68	-6.1	0	0	977.0	NA	0.0000		9999	3870	0	0	0
2019/04/15 04:06:00	BASE	15.80	52	17.29	54	-0.9	68	-6.1	0	0	977.0	NA	0.0000		9999	3710	0	0	0
2019/04/15 04:07:00	BASE	16.18	52	17.85	49	-0.9	67	-6.2	0	0	977.0	NA	0.0000		9999	3870	0	0	0
2019/04/15 04:08:00	BASE	16.26	52	17.85	49	-0.9	67	-6.2	0	0	977.0	NA	0.0000		9999	3810	0	0	0
2019/04/15 04:09:00	BASE	16.11	51	17.85	49	-0.9	67	-6.2	0	0	976.9	NA	0.0000		9999	3770	0	0	0
2019/04/15 04:10:00	BASE	16.37	51	17.85	49	-0.9	67	-6.2	0	0	977.0	NA	0.0000		9999	3870	0	0	0
2019/04/15 04:11:00	BASE	16.66	52	17.85	49	-0.9	68	-6.1	0	0	976.9	NA	0.0000		9999	4230	0	0	0
2019/04/15 04:12:00	BASE	15.99	52	17.85	49	-0.9	68	-6.1	0	0	976.9	NA	0.0000		9999	4270	0	0	0
2019/04/15 04:13:00	BASE	15.35	53	17.85	49	-0.9	68	-6.1	0	0	976.8	NA	0.0000		9999	4230	0	0	0
2019/04/15 04:14:00	BASE	15.77	54	17.85	49	-0.9	68	-6.1	0	0	976.8	NA	0.0000		9999	4270	0	0	0
2019/04/15 04:15:00	BASE	15.51	54	17.85	49	-0.9	68	-6.1	0	0	976.8	NA	0.0000		9999	4400	0	0	0
2019/04/15 04:16:00	BASE	15.46	53	17.85	49	-0.9	67	-6.1	0	0	976.8	NA	0.0000		9999	4360	0	0	0
2019/04/15 04:17:00	BASE	15.92	52	17.65	49	-0.8	67	-6.1	0	0	976.8	NA	0.0000		9999	4360	0	0	0
2019/04/15 04:18:00	BASE	16.45	51	17.75	50	-0.8	67	-6.1	0	0	976.7	NA	0.0000		9999	4360	0	0	0
2019/04/15 04:19:00	BASE	16.13	53	17.75	50	-0.8	67	-6.1	0	0	976.7	NA	0.0000		9999	4690	0	0	0
2019/04/15 04:20:00	BASE	15.82	54	17.85	50	-0.8	68	-6.1	0	0	976.7	NA	0.0000		9999	4890	0	0	0
2019/04/15 04:21:00	BASE	16.12	52	17.85	50	-0.8	68	-6.0	0	0	976.7	NA	0.0000		9999	4560	0	0	0
2019/04/15 04:22:00	BASE	15.55	52	17.85	50	-0.8	68	-6.0	0	0	976.7	NA	0.0000		9999	4690	0	0	0
2019/04/15 04:23:00	BASE	15.84	52	17.85	50	-0.8	68	-6.0	0	0	976.7	NA	0.0000		9999	4530	0	0	0
2019/04/15 04:24:00	BASE	16.20	52	17.85	50	-0.8	68	-6.0	0	0	976.7	NA	0.0000		9999	4490	0	0	0
2019/04/15 04:25:00	BASE	15.62	52	17.85	50	-0.8	68	-6.0	0	0	976.7	NA	0.0000		9999	4490	0	0	0
2019/04/15 04:26:00	BASE	15.37	52	17.85	50	-0.7	67	-6.0	0	0	976.7	NA	0.0000		9999	4490	0	0	0
2019/04/15 04:27:00	BASE	15.44	52	17.85	50	-0.7	67	-6.0	0	0	976.7	NA	0.0000		9999	4360	0	0	0
2019/04/15 04:28:00	BASE	15.21	51	17.85	50	-0.7	67	-6.1	0	0	976.7	NA	0.0000		9999	4300	0	0	0
2019/04/15 04:29:00	BASE	15.17	52	17.85	50	-0.7	67	-6.1	0	0	976.7	NA	0.0000		9999	4300	0	0	0
2019/04/15 04:30:00	BASE	15.32	51	17.70	56	-0.7	67	-6.0	0	0	976.6	NA	0.0000		9999	4230	0	0	0
2019/04/15 04:31:00	BASE	16.14	49	18.37	49	-0.8	68	-6.0	0	0	976.6	NA	0.0000		9999	4200	0	0	0
2019/04/15 04:32:00	BASE	16.80	49	18.37	49	-0.8	68	-6.0	0	0	976.6	NA	0.0000		9999	4890	0	0	0
2019/04/15 04:33:00	BASE	16.17	51	18.37	49	-0.8	68	-6.0	0	0	976.6	NA	0.0000		9999	5120	0	0	0
2019/04/15 04:34:00	BASE	16.61	51	18.37	49	-0.8	68	-6.0	0	0	976.6	NA	0.0000		9999	5090	0	0	0
2019/04/15 04:35:00	BASE	17.01	48	18.37	49	-0.8	68	-6.0	0	0	976.6	NA	0.0000		9999	5220	0	0	0
2019/04/15 04:36:00	BASE	16.29	48	18.37	49	-0.8	68	-6.0	0	0	976.6	NA	0.0000		9999	5250	0	0	0
2019/04/15 04:37:00	BASE	16.27	48	18.37	49	-0.8	68	-6.0	0	0	976.5	NA	0.0000		9999	5090	0	0	0
2019/04/15 04:38:00	BASE	16.77	46	18.37	49	-0.8	68	-6.0	0	0	976.5	NA	0.0000		9999	5090	0	0	0
2019/04/15 04:39:00	BASE	16.90	47	18.37	49	-0.8	68	-6.0	0	0	976.5	NA	0.0000		9999	5120	0	0	0
2019/04/15 04:40:00	BASE	16.52	49	18.37	49	-0.8	68	-6.0	0	0	976.5	NA	0.0000		9999	4990	5770	0	0
2019/04/15 04:41:00	BASE	16.40	50	18.31	44	-0.8	68	-6.0	0	0	976.5	NA	0.0000		9999	5510	0	0	0
2019/04/15 04:42:00	BASE	16.55	51	18.31	44	-0.8	68	-6.0	0	0	976.5	NA	0.0000		9999	4230	4990	0	0
2019/04/15 04:43:00	BASE	16.68	50	18.47	48	-0.8	68	-6.0	0	0	976.5	NA	0.0000		9999	4530	0	0	0
2019/04/15 04:44:00	BASE	16.82	48	18.47	48	-0.8	68	-6.0	0	0	976.5	NA	0.0000		9999	4790	0	0	0
2019/04/15 04:45:00	BASE	17.58	48	19.03	49	-0.8	68	-6.0	0	0	976.5	NA	0.0000		9999	4630	0	0	0
2019/04/15 04:46:00	BASE	17.48	49	19.03	49	-0.8	68	-6.0	0	0	976.5	NA	0.0000		9999	4890	0	0	0
2019/04/15 04:47:00	BASE	16.93	49	19.34	49	-0.8	68	-6.0	0	0	976.5	NA	0.0000		9999	4760	0	0	0
2019/04/15 04:48:00	BASE	17.00	48	19.34	49	-0.8	68	-5.9	0	0	976.5	NA	0.0000		9999	4760	0	0	0
2019/04/15 04:49:00	BASE	16.73	47	19.34	49	-0.8	68	-5.9	0	0	976.5	NA	0.0000		9999	4660	0	0	0
2019/04/15 04:50:00	BASE	16.28	49	19.34	49	-0.8	68	-5.9	0	0	976.5	NA	0.0000		9999	4490	0	0	0
2019/04/15 04:51:00	BASE	16.32	50	19.34	49	-0.8	68	-5.9	0	0	976.5	NA	0.0000		9999	4530	0	0	0
2019/04/15 04:52:00	BASE	16.86	52	19.34	49	-0.8	68	-5.9	0	0	976.5	NA	0.0000		9999	4560	0	0	0
2019/04/15 04:53:00	BASE	16.09	52	19.34	49	-0.8	68	-5.9	0	0	976.5	NA	0.0000		9999	4630	0	0	0
2019/04/15 04:54:00	BASE	15.78	52	19.34	49	-0.8	68	-5.9	0	0	976.5	NA	0.0000		9999	4690	0	0	0
2019/04/15 04:55:00	BASE	16.13	52	19.34	49	-0.7	68	-6.0	0	0	976.5	NA	0.0000		9999	4660	0	0	0
2019/04/15 04:56:00	BASE	16.28	52	19.34	49	-0.7	68	-6.0	0	0	976.5	NA	0.0000		9999	4720	0	0	0
2019/04/15 04:57:00	BASE	15.81	52	18.37	50	-0.7	67	-6.0	0	0	976.5	NA	0.0000		9999	4660	0	0	0
2019/04/15 04:58:00	BASE	15.62	54	18.16	51	-0.7	67	-6.0	0	0	976.4	NA	0.0000		9999	4720	0	0	0
2019/04/15 04:59:00	BASE	16.06	52	18.16	51	-0.7	67	-6.1	0	0	976.5	NA	0.0000		9999	4720	0	0	0
2019/04/15 05:00:00	BASE	16.19	51	18.16	51	-0.7	67	-6.1	0	0	976.4	NA	0.0000		9999	4720	0	0	0
2019/04/15 05:01:00	BASE	16.66	51	18.26	51	-0.7	67	-6.1	0	0	976.4	NA	0.0000		9999	4720	0	0	0
2019/04/15 05:02:00	BASE	16.53	51	18.26	51	-0.7	67	-6.1	0	0	976.4	NA	0.0000		9999	4690	0	0	0
2019/04/15 05:03:00	BASE	16.06	51	18.26	51	-0.7	67	-6.0	0	0	976.4	NA	0.0000		9999	4720	0	0	0
2019/04/15 05:04:00	BASE	15.18	51	18.26	51	-0.7	67	-6.0	0	0	976.4	NA	0.0000		9999	4790	0	0	0
2019/04/15 05:05:00	BASE	15.40	50	18.26	51	-0.7	67	-6.0	0	0	976.4	NA	0.0000		9999	4860	0	0	0
2019/04/15 05:06:00	BASE	15.91	51	18.26	51	-0.6	67	-6.0	0	0	976.4	NA	0.0000		9999	4890	0	0	0
2019/04/15 05:07:00	BASE	15.91	51	18.26	51	-0.6	67	-6.0	0	0	976.4	NA	0.0000		9999	4860	0	0	0
2019/04/15 05:08:00	BASE	16.19	50	18.26	51	-0.6	67	-6.0	0	0	976.4	NA	0.0000		9999	4860	0	0	0
2019/04/15 05:09:00	BASE	15.89	49	18.26	51	-0.6	67	-6.0	0	0	976.4	NA	0.0000		9999	4890	0	0	0
2019/04/15 05:10:00	BASE	16.05	49	18.26	51	-0.6	67	-6.0	0	0	976.4	NA	0.0000		9999	4760	0	0	0
2019/04/15 05:11:00	BASE	16.39	49	17.90	48	-0.6	67	-6.0	0	0	976.4	NA	0.0000		9999	4790	0	0	0
2019/04/15 05:12:00	BASE	15.99	49	17.90	48	-0.6	67	-6.0	0	0	976.4	NA	0.0000		9999	4690	0	0	0
2019/04/15 05:13:00	BASE	15.87	49	17.90	48	-0.6	67	-6.0	0	0	976.4	NA	0.0000		9999	3410	4720	0	0
2019/04/15 05:14:00	BASE	16.20	48	17.90	48	-0.6	67	-6.0	0	0	976.4	NA	0.0000		9999	3280	4920	0	0
2019/04/15 05:15:00	BASE	15.73	48	17.90	48	-0.6	67	-6.0	0	0	976.4	NA	0.0000		9999	3610	4950	0	0
2019/04/15 05:16:00	BASE	15.51	49	17.90	48	-0.6	67	-6.0	0	0	976.4	NA	0.0000		9999	3050	0	0	0
2019/04/15 05:17:00	BASE	15.74	48	17.90	48	-0.6	67	-6.0	0	0	976.4	NA	0.0000		9999	2560	0	0	0
2019/04/15 05:18:00	BASE	15.58	48	17.90	48	-0.6	67	-6.0	0	0	976.5	NA	0.0000		9999	3610	0	0	0
2019/04/15 05:19:00	BASE	15.03	49	17.90	48	-0.6	67	-6.0	0	0	976.5	NA	0.0000		9999	3670	0	0	0
2019/04/15 05:20:00	BASE	14.45	49	17.90	48	-0.6	67	-6.0	0	0	976.5	NA	0.0000		9999	3640	0	0	0
2019/04/15 05:21:00	BASE	14.19	50	16.87	47	-0.6	67	-6.0	0	0	976.5	NA	0.0000		9999	3410	0	0	0
2019/04/15 05:22:00	BASE	14.25	51	16.87	47	-0.6	67	-6.0	0	0	976.4	NA	0.0000		9999	3450	0	0	0
2019/04/15 05:23:00	BASE	14.79	51	16.87	47	-0.6	67	-6.0	0	0	976.4	NA	0.0000		9999	3580	0	0	0
2019/04/15 05:24:00	BASE	15.03	51	16.72	48	-0.6	67	-6.0	0	0	976.4	NA	0.0000		9999	3450	0	0	0
2019/04/15 05:25:00	BASE	15.08	52	16.72	48	-0.6	67	-6.0	0	0	976.4	NA	0.0000		9999	3540	0	0	0
2019/04/15 05:26:00	BASE	15.09	50	16.41	49	-0.6	67	-6.0	0	0	976.3	NA	0.0000		9999	3510	0	0	0
2019/04/15 05:27:00	BASE	14.64	50	16.93	52	-0.6	67	-6.0	0	0	976.3	NA	0.0000		9999	3770	0	0	0
2019/04/15 05:28:00	BASE	14.50	50	16.93	52	-0.6	67	-6.0	0	0	976.3	NA	0.0000		9999	3580	0	0	0
2019/04/15 05:29:00	BASE	14.43	50	16.93	52	-0.6	67	-6.0	0	0	976.3	NA	0.0000		9999	3580	0	0	0
2019/04/15 05:30:00	BASE	15.38	48	17.29	44	-0.6	67	-6.0	0	0	976.2	NA	0.0000		9999	2890	0	0	0
2019/04/15 05:31:00	BASE	16.57	47	17.75	48	-0.6	67	-6.0	0	0	976.3	NA	0.0000		9999	3710	0	0	0
2019/04/15 05:32:00	BASE	16.65	46	17.85	48	-0.6	67	-6.0	0	0	976.2	NA	0.0000		9999	3710	0	0	0
2019/04/15 05:33:00	BASE	16.65	45	17.85	48	-0.6	66	-6.1	0	0	976.3	NA	0.0000		9999	3640	0	0	0
2019/04/15 05:34:00	BASE	16.49	46	17.85	48	-0.5	66	-6.1	0	0	976.2	NA	0.0000		9999	3220	0	0	0
2019/04/15 05:35:00	BASE	16.57	47	17.85	48	-0.5	66	-6.1	0	0	976.2	NA	0.0000		9999	3710	0	0	0
2019/04/15 05:36:00	BASE	16.70	48	17.85	48	-0.4	65	-6.1	0	0	976.2	NA	0.0000		9999	3180	0	0	0
2019/04/15 05:37:00	BASE	16.70	48	17.95	48	-0.4	65	-6.2	0	0	976.2	NA	0.0000		9999	3740	0	0	0
2019/04/15 05:38:00	BASE	16.68	48	17.95	48	-0.4	65	-6.3	0	0	976.2	NA	0.0000		9999	3310	0	0	0
2019/04/15 05:39:00	BASE	16.75	48	18.06	43	-0.4	65	-6.3	0	0	976.2	NA	0.0000		9999	3540	0	0	0
2019/04/15 05:40:00	BASE	16.64	46	18.06	43	-0.4	65	-6.3	0	0	976.2	NA	0.0000		9999	3840	0	0	0
2019/04/15 05:41:00	BASE	16.33	48	18.06	43	-0.4	65	-6.3	0	0	976.2	NA	0.0000		9999	3810	0	0	0
2019/04/15 05:42:00	BASE	16.41	50	18.06	43	-0.4	65	-6.2	0	0	976.2	NA	0.0000		9999	3840	0	0	0
2019/04/15 05:43:00	BASE	15.74	50	18.06	43	-0.4	65	-6.1	0	0	976.2	NA	0.0000		9999	3740	0	0	0
2019/04/15 05:44:00	BASE	15.50	52	18.06	43	-0.4	66	-6.1	0	0	976.2	NA	0.0000		9999	3610	0	0	0
2019/04/15 05:45:00	BASE	15.93	53	18.06	43	-0.4	66	-6.1	0	0	976.2	NA	0.0000		9999	3670	0	0	0
2019/04/15 05:46:00	BASE	15.69	55	18.06	43	-0.4	66	-6.1	0	0	976.2	NA	0.0000		9999	3480	0	0	0
2019/04/15 05:47:00	BASE	16.10	54	18.06	43	-0.5	66	-6.1	0	0	976.2	NA	0.0000		9999	3710	4490	0	0
2019/04/15 05:48:00	BASE	16.42	53	18.06	43	-0.5	66	-6.1	0	0	976.2	NA	0.0000		9999	4000	0	0	0
2019/04/15 05:49:00	BASE	16.38	53	17.85	48	-0.6	66	-6.1	0	0	976.2	NA	0.0000		9999	3770	0	0	0
2019/04/15 05:50:00	BASE	16.47	53	17.54	50	-0.6	66	-6.1	0	0	976.2	NA	0.0000		9999	3740	0	0	0
2019/04/15 05:51:00	BASE	16.20	55	17.54	52	-0.6	67	-6.1	0	0	976.2	NA	0.0000		9999	3710	0	0	0
2019/04/15 05:52:00	BASE	16.23	55	17.65	53	-0.6	67	-6.1	0	0	976.2	NA	0.0000		9999	3810	0	0	0
2019/04/15 05:53:00	BASE	16.51	54	17.85	52	-0.6	67	-6.1	0	0	976.2	NA	0.0000		9999	3970	0	0	0
2019/04/15 05:54:00	BASE	16.77	55	17.85	52	-0.6	67	-6.1	0	0	976.1	NA	0.0000		9999	4070	0	0	0
2019/04/15 05:55:00	BASE	16.57	55	17.85	52	-0.6	67	-6.0	0	0	976.1	NA	0.0000		9999	4100	0	0	0
2019/04/15 05:56:00	BASE	16.29	55	17.85	52	-0.6	67	-6.0	0	0	976.1	NA	0.0000		9999	4100	0	0	0
2019/04/15 05:57:00	BASE	16.58	55	17.85	52	-0.6	67	-6.0	0	0	976.1	NA	0.0000		9999	4100	0	0	0
2019/04/15 05:58:00	BASE	16.51	55	17.85	52	-0.6	67	-5.9	0	0	976.1	NA	0.0000		9999	4130	0	0	0
2019/04/15 05:59:00	BASE	16.88	54	17.85	52	-0.5	67	-5.9	0	0	976.0	NA	0.0000		9999	4100	0	0	0
2019/04/15 06:00:00	BASE	16.84	54	17.85	52	-0.5	67	-5.9	0	0	976.0	NA	0.0000		9999	3870	0	0	0
2019/04/15 06:01:00	BASE	16.04	54	17.85	52	-0.5	67	-5.8	0	0	976.0	NA	0.0000		9999	3810	0	0	0
2019/04/15 06:02:00	BASE	16.37	55	18.11	53	-0.5	68	-5.8	0	0	976.0	NA	0.0000		9999	4040	0	0	0
2019/04/15 06:03:00	BASE	17.23	56	19.14	58	-0.5	68	-5.7	0	0	976.0	NA	0.0000		9999	4200	0	0	0
2019/04/15 06:04:00	BASE	17.09	55	19.14	58	-0.5	68	-5.7	0	0	976.0	NA	0.0000		9999	4200	0	0	0
2019/04/15 06:05:00	BASE	16.93	56	19.14	58	-0.5	68	-5.7	0	0	976.0	NA	0.0000		9999	4100	0	0	0
2019/04/15 06:06:00	BASE	17.13	56	19.14	58	-0.5	68	-5.6	0	0	975.9	NA	0.0000		9999	4070	0	0	0
2019/04/15 06:07:00	BASE	17.15	54	19.14	58	-0.5	68	-5.6	0	0	975.9	NA	0.0000		9999	4130	0	0	0
2019/04/15 06:08:00	BASE	17.09	53	19.14	58	-0.5	69	-5.6	0	0	975.9	NA	0.0000		9999	4130	0	0	0
2019/04/15 06:09:00	BASE	17.17	54	19.55	49	-0.5	69	-5.5	0	0	975.9	NA	0.0000		9999	4130	0	0	0
2019/04/15 06:10:00	BASE	17.60	53	19.55	49	-0.5	69	-5.5	0	0	975.8	NA	0.0000		9999	4100	0	0	0
2019/04/15 06:11:00	BASE	17.67	51	19.55	49	-0.4	69	-5.4	0	0	975.9	NA	0.0000		9999	4070	0	0	0
2019/04/15 06:12:00	BASE	17.06	52	19.55	49	-0.4	69	-5.4	0	0	975.9	NA	0.0000		9999	4200	0	0	0
2019/04/15 06:13:01	BASE	16.32	55	19.55	49	-0.4	69	-5.4	0	0	975.8	NA	0.0000		9999	4200	0	0	0
2019/04/15 06:14:00	BASE	16.44	56	19.55	49	-0.3	68	-5.5	0	0	975.8	NA	0.0000		9999	4200	0	0	0
2019/04/15 06:15:00	BASE	16.89	56	19.55	49	-0.3	68	-5.5	0	0	975.8	NA	0.0000		9999	4200	0	0	0
2019/04/15 06:16:00	BASE	17.53	55	19.55	49	-0.4	68	-5.5	0	0	975.7	NA	0.0000		9999	4230	0	0	0
2019/04/15 06:17:00	BASE	17.40	55	19.55	49	-0.4	68	-5.5	0	0	975.8	NA	0.0000		9999	4130	0	0	0
2019/04/15 06:18:00	BASE	17.22	55	19.55	49	-0.4	69	-5.5	0	0	975.7	NA	0.0000		9999	4130	0	0	0
2019/04/15 06:19:00	BASE	17.80	55	19.50	50	-0.4	69	-5.4	0	0	975.7	NA	0.0000		9999	4170	0	0	0
2019/04/15 06:20:00	BASE	17.21	53	19.50	50	-0.4	69	-5.4	0	0	975.7	NA	0.0000		9999	4170	0	0	0
2019/04/15 06:21:00	BASE	16.49	52	19.45	51	-0.4	69	-5.4	0	0	975.8	NA	0.0000		9999	4040	0	0	0
2019/04/15 06:22:01	BASE	17.32	54	19.45	51	-0.4	69	-5.4	0	0	975.7	NA	0.0000		9999	4100	0	0	0
2019/04/15 06:23:00	BASE	17.88	54	19.45	51	-0.5	69	-5.4	0	0	975.6	NA	0.0000		9999	4000	0	0	0
2019/04/15 06:24:00	BASE	17.59	53	19.45	46	-0.5	70	-5.4	0	0	975.6	NA	0.0000		9999	3670	0	0	0
2019/04/15 06:25:00	BASE	18.97	53	23.30	45	-0.5	70	-5.3	0	0	975.6	NA	0.0000		9999	3710	0	0	0
2019/04/15 06:26:00	BASE	19.90	50	23.30	45	-0.5	70	-5.3	0	0	975.6	NA	0.0000		9999	3640	0	0	0
2019/04/15 06:27:00	BASE	19.60	49	23.30	45	-0.5	70	-5.4	0	0	975.6	NA	0.0000		9999	3310	0	0	0
2019/04/15 06:28:00	BASE	19.15	48	23.30	45	-0.5	69	-5.4	0	0	975.6	NA	0.0000		9999	3380	4330	0	0
2019/04/15 06:29:00	BASE	18.41	46	23.30	45	-0.5	69	-5.4	0	0	975.6	NA	0.0000		9999	3480	4300	0	0
2019/04/15 06:30:00	BASE	19.43	47	23.30	45	-0.4	69	-5.4	0	0	975.6	NA	0.0000		9999	3540	0	0	0
2019/04/15 06:31:00	BASE	19.83	47	23.30	45	-0.4	70	-5.3	0	0	975.6	NA	0.0000		9999	3150	4230	0	0
2019/04/15 06:32:00	BASE	18.64	47	23.30	45	-0.4	70	-5.2	0	0	975.6	NA	0.0000		9999	4230	0	0	0
2019/04/15 06:33:00	BASE	17.75	45	23.30	45	-0.4	70	-5.2	0	0	975.6	NA	0.0000		9999	4200	0	0	0
2019/04/15 06:34:00	BASE	17.04	44	23.30	45	-0.4	70	-5.2	0	0	975.6	NA	0.0000		9999	4230	0	0	0
2019/04/15 06:35:00	BASE	17.52	43	22.64	50	-0.4	70	-5.1	0	0	975.5	NA	0.0000		9999	4690	0	0	0
2019/04/15 06:36:00	BASE	17.79	41	22.64	50	-0.4	71	-5.1	0	0	975.6	NA	0.0000		9999	4400	0	0	0
2019/04/15 06:37:00	BASE	18.10	41	22.17	37	-0.4	71	-5.1	0	0	975.5	NA	0.0000		9999	2690	0	0	0
2019/04/15 06:38:00	BASE	18.43	42	22.17	37	-0.4	71	-5.1	0	0	975.6	NA	0.0000		9999	4270	0	0	0
2019/04/15 06:39:00	BASE	18.36	40	22.12	47	-0.4	71	-5.1	0	0	975.5	NA	0.0000		9999	4360	0	0	0
2019/04/15 06:40:00	BASE	18.25	42	21.86	42	-0.4	71	-5.1	0	0	975.5	NA	0.0000		9999	4660	0	0	0
2019/04/15 06:41:00	BASE	17.53	43	21.86	42	-0.4	71	-5.0	0	0	975.5	NA	0.0000		9999	2920	0	0	0
2019/04/15 06:42:00	BASE	17.04	38	21.86	42	-0.4	71	-5.0	0	0	975.5	NA	0.0000		9999	3410	0	0	0
2019/04/15 06:43:00	BASE	17.35	37	21.86	42	-0.4	71	-5.0	0	0	975.5	NA	0.0000		9999	2790	0	0	0
2019/04/15 06:44:00	BASE	17.63	41	21.86	42	-0.3	71	-5.0	0	0	975.5	NA	0.0000		9999	5050	0	0	0
2019/04/15 06:45:00	BASE	17.78	41	21.86	42	-0.3	71	-4.9	0	0	975.4	NA	0.0000		9999	4890	0	0	0
2019/04/15 06:46:00	BASE	18.03	41	21.86	42	-0.3	71	-4.9	0	0	975.4	NA	0.0000		9999	4820	0	0	0
2019/04/15 06:47:00	BASE	17.56	42	21.86	42	-0.3	71	-4.8	0	0	975.4	NA	0.0000		9999	4890	0	0	0
2019/04/15 06:48:00	BASE	17.61	44	21.14	40	-0.3	72	-4.8	0	0	975.4	NA	0.0000		9999	4790	0	0	0
2019/04/15 06:49:00	BASE	19.46	45	22.74	48	-0.3	72	-4.8	0	0	975.4	NA	0.0000		9999	4860	0	0	0
2019/04/15 06:50:00	BASE	20.25	46	22.79	42	-0.3	72	-4.8	0	0	975.4	NA	0.0000		9999	4790	0	0	0
2019/04/15 06:51:00	BASE	18.65	45	22.79	42	-0.3	72	-4.8	0	0	975.4	NA	0.0000		9999	4860	0	0	0
2019/04/15 06:52:00	BASE	18.24	43	22.79	42	-0.3	71	-4.8	0	0	975.3	NA	0.0000		9999	4720	0	0	0
2019/04/15 06:53:00	BASE	19.59	42	22.79	42	-0.2	71	-4.8	0	0	975.3	NA	0.0000		9999	4950	0	0	0
2019/04/15 06:54:00	BASE	20.33	44	23.56	35	-0.2	71	-4.9	0	0	975.3	NA	0.0000		9999	4820	0	0	0
2019/04/15 06:55:00	BASE	19.66	45	23.56	35	-0.2	71	-4.9	0	0	975.3	NA	0.0000		9999	2950	0	0	0
2019/04/15 06:56:00	BASE	18.85	42	23.56	35	-0.2	70	-4.9	0	0	975.3	NA	0.0000		9999	3050	0	0	0
2019/04/15 06:57:00	BASE	18.84	42	23.56	35	-0.1	70	-4.9	0	0	975.3	NA	0.0000		9999	2990	4690	0	0
2019/04/15 06:58:00	BASE	19.57	43	23.56	35	-0.1	70	-4.9	0	0	975.3	NA	0.0000		9999	3350	4820	0	0
2019/04/15 06:59:00	BASE	20.08	43	23.56	35	-0.1	70	-4.9	0	0	975.3	NA	0.0000		9999	3510	7580	0	0
2019/04/15 07:00:00	BASE	19.88	41	23.56	35	-0.1	70	-4.9	0	0	975.2	NA	0.0000		9999	7550	0	0	0
2019/04/15 07:01:00	BASE	19.31	39	23.56	35	-0.0	70	-4.9	0	0	975.2	NA	0.0000		9999	4460	0	0	0
2019/04/15 07:02:00	BASE	18.53	41	23.56	35	0.0	69	-4.9	0	0	975.3	NA	0.0000		9999	3410	0	0	0
2019/04/15 07:03:00	BASE	18.30	41	23.56	35	0.1	69	-4.9	0	0	975.3	NA	0.0000		9999	4460	0	0	0
2019/04/15 07:04:00	BASE	17.77	40	23.36	40	0.1	69	-5.0	0	0	975.3	NA	0.0000		9999	4460	7510	0	0
2019/04/15 07:05:00	BASE	17.84	43	23.36	40	0.1	69	-5.0	0	0	975.3	NA	0.0000		9999	7450	0	0	0
2019/04/15 07:06:00	BASE	18.83	45	23.36	40	0.1	69	-5.0	0	0	975.3	NA	0.0000		9999	4200	7510	0	0
2019/04/15 07:07:00	BASE	19.16	46	23.36	40	0.1	69	-5.0	0	0	975.3	NA	0.0000		9999	4170	0	0	0
2019/04/15 07:08:00	BASE	18.95	46	22.53	36	0.1	69	-5.0	0	0	975.3	NA	0.0000		9999	4230	0	0	0
2019/04/15 07:09:00	BASE	18.40	46	22.53	36	0.1	69	-5.0	0	0	975.3	NA	0.0000		9999	4170	0	0	0
2019/04/15 07:10:00	BASE	18.07	46	21.40	42	0.1	68	-5.0	0	0	975.3	NA	0.0000		9999	5090	7380	0	0
2019/04/15 07:11:00	BASE	18.21	47	21.40	42	0.1	68	-5.1	0	0	975.3	NA	0.0000		9999	7350	0	0	0
2019/04/15 07:12:00	BASE	18.50	49	21.40	42	0.1	68	-5.1	0	0	975.3	NA	0.0000		9999	4400	7320	0	0
2019/04/15 07:13:00	BASE	18.31	49	21.40	42	0.1	68	-5.1	0	0	975.3	NA	0.0000		9999	4400	7350	0	0
2019/04/15 07:14:00	BASE	17.31	49	21.40	42	0.1	68	-5.1	0	0	975.4	NA	0.0000		9999	4270	7420	0	0
2019/04/15 07:15:00	BASE	17.30	51	21.40	42	0.0	68	-5.2	0	0	975.3	NA	0.0000		9999	4330	7510	0	0
2019/04/15 07:16:00	BASE	18.37	54	21.40	42	0.0	68	-5.2	0	0	975.3	NA	0.0000		9999	4230	7510	0	0
2019/04/15 07:17:00	BASE	17.21	53	21.14	52	0.0	68	-5.2	0	0	975.3	NA	0.0000		9999	4300	0	0	0
2019/04/15 07:18:00	BASE	15.80	52	20.63	59	0.1	68	-5.1	0	0	975.3	NA	0.0000		9999	4430	7510	0	0
2019/04/15 07:19:00	BASE	16.40	54	20.63	59	0.1	68	-5.1	0	0	975.3	NA	0.0000		9999	4360	7350	0	0
2019/04/15 07:20:00	BASE	16.80	52	20.63	59	0.1	68	-5.2	0	0	975.3	NA	0.0000		9999	7250	0	0	0
2019/04/15 07:21:00	BASE	16.27	56	20.63	59	0.1	68	-5.2	0	0	975.3	NA	0.0000		9999	5020	7350	0	0
2019/04/15 07:22:00	BASE	16.54	65	20.63	59	0.1	68	-5.2	0	0	975.2	NA	0.0000		9999	4950	0	0	0
2019/04/15 07:23:00	BASE	17.56	68	20.63	59	0.1	68	-5.2	0	0	975.2	NA	0.0000		9999	4920	0	0	0
2019/04/15 07:24:00	BASE	16.82	66	20.63	59	0.1	67	-5.3	0	0	975.2	NA	0.0000		9999	4820	0	0	0
2019/04/15 07:25:00	BASE	15.44	63	20.63	59	0.1	67	-5.3	0	0	975.3	NA	0.0000		9999	4790	0	0	0
2019/04/15 07:26:00	BASE	13.64	60	19.86	52	0.2	67	-5.3	0	0	975.3	NA	0.0000		9999	4720	0	0	0
2019/04/15 07:27:00	BASE	13.47	61	19.86	52	0.2	66	-5.4	0	0	975.2	NA	0.0000		9999	4690	0	0	0
2019/04/15 07:28:00	BASE	15.22	64	19.86	52	0.2	66	-5.4	0	0	975.2	NA	0.0000		9999	4760	0	0	0
2019/04/15 07:29:00	BASE	15.76	65	19.60	61	0.2	66	-5.4	0	0	975.2	NA	0.0000		9999	4920	0	0	0
2019/04/15 07:30:00	BASE	15.91	62	19.60	61	0.2	66	-5.4	0	0	975.2	NA	0.0000		9999	4890	0	0	0
2019/04/15 07:31:00	BASE	14.67	63	19.60	61	0.2	66	-5.4	0	0	975.2	NA	0.0000		9999	4660	0	0	0
2019/04/15 07:32:00	BASE	14.77	68	19.60	61	0.2	66	-5.4	0	0	975.2	NA	0.0000		9999	4690	0	0	0
2019/04/15 07:33:00	BASE	15.20	70	19.45	46	0.2	67	-5.3	0	0	975.2	NA	0.0000		9999	4590	0	0	0
2019/04/15 07:34:00	BASE	13.84	70	19.03	65	0.2	67	-5.3	0	0	975.2	NA	0.0000		9999	4660	7250	0	0
2019/04/15 07:35:00	BASE	12.68	71	19.03	65	0.2	67	-5.3	0	0	975.2	NA	0.0000		9999	4560	0	0	0
2019/04/15 07:36:00	BASE	11.64	72	19.03	65	0.2	66	-5.3	0	0	975.2	NA	0.0000		9999	7190	0	0	0
2019/04/15 07:37:00	BASE	12.57	80	19.03	65	0.3	66	-5.3	0	0	975.2	NA	0.0000		9999	4660	0	0	0
2019/04/15 07:38:00	BASE	13.62	83	19.03	65	0.3	66	-5.3	0	0	975.2	NA	0.0000		9999	4430	0	0	0
2019/04/15 07:39:00	BASE	13.13	77	19.03	65	0.2	66	-5.4	0	0	975.2	NA	0.0000		9999	6760	0	0	0
2019/04/15 07:40:00	BASE	13.43	75	19.03	65	0.2	66	-5.3	0	0	975.1	NA	0.0000		9999	6660	0	0	0
2019/04/15 07:41:00	BASE	13.99	72	19.03	65	0.2	66	-5.3	0	0	975.2	NA	0.0000		9999	6560	0	0	0
2019/04/15 07:42:00	BASE	12.97	72	16.87	63	0.2	66	-5.3	0	0	975.1	NA	0.0000		9999	4690	0	0	0
2019/04/15 07:43:00	BASE	13.64	71	18.31	65	0.2	67	-5.3	0	0	975.1	NA	0.0000		9999	4920	0	0	0
2019/04/15 07:44:00	BASE	14.68	72	18.31	65	0.2	67	-5.3	0	0	975.1	NA	0.0000		9999	6430	0	0	0
2019/04/15 07:45:00	BASE	13.74	75	18.31	65	0.2	67	-5.3	0	0	975.1	NA	0.0000		9999	6370	0	0	0
2019/04/15 07:46:00	BASE	11.48	75	18.31	65	0.2	67	-5.3	0	0	975.2	NA	0.0000		9999	6630	0	0	0
2019/04/15 07:47:00	BASE	10.38	72	18.31	65	0.1	67	-5.2	0	0	975.1	NA	0.0000		9999	6630	0	0	0
2019/04/15 07:48:00	BASE	11.88	72	18.31	65	0.2	67	-5.2	0	0	975.0	NA	0.0000		9999	6560	0	0	0
2019/04/15 07:49:00	BASE	13.16	76	18.31	65	0.2	67	-5.2	0	0	975.0	NA	0.0000		9999	6270	0	0	0
2019/04/15 07:50:00	BASE	14.73	75	18.31	65	0.1	68	-5.2	0	0	974.9	NA	0.0000		9999	6270	0	0	0
2019/04/15 07:51:00	BASE	16.80	68	19.03	66	0.1	68	-5.1	0	0	974.9	NA	0.0000		9999	6040	0	0	0
2019/04/15 07:52:00	BASE	16.96	59	20.32	49	0.1	68	-5.1	0	0	975.0	NA	0.0000		9999	5740	0	0	0
2019/04/15 07:53:00	BASE	16.59	54	21.61	44	0.1	68	-5.0	0	0	975.0	NA	0.0000		9999	5870	0	0	0
2019/04/15 07:54:00	BASE	15.75	50	21.61	44	0.2	69	-4.9	0	0	975.0	NA	0.0000		9999	5710	0	0	0
2019/04/15 07:55:00	BASE	15.43	46	21.61	44	0.2	69	-4.9	0	0	974.9	NA	0.0000		9999	6170	0	0	0
2019/04/15 07:56:00	BASE	15.70	41	21.61	44	0.2	69	-4.9	0	0	974.9	NA	0.0000		9999	4660	0	0	0
2019/04/15 07:57:00	BASE	16.51	37	21.61	44	0.2	69	-4.8	0	0	974.8	NA	0.0000		9999	7020	0	0	0
2019/04/15 07:58:00	BASE	17.30	37	21.61	44	0.2	69	-4.8	0	0	974.8	NA	0.0000		9999	4300	0	0	0
2019/04/15 07:59:00	BASE	17.86	38	21.61	44	0.3	69	-4.8	0	0	974.7	NA	0.0000		9999	4630	0	0	0
2019/04/15 08:00:00	BASE	19.42	38	21.61	44	0.3	69	-4.7	0	0	974.7	NA	0.0000		9999	4920	0	0	0
2019/04/15 08:01:00	BASE	19.13	37	21.61	44	0.3	69	-4.8	0	0	974.7	NA	0.0000		9999	4530	0	0	0
2019/04/15 08:02:00	BASE	18.37	37	21.61	44	0.3	69	-4.8	0	0	974.7	NA	0.0000		9999	7150	0	0	0
2019/04/15 08:03:00	BASE	18.38	39	21.30	37	0.3	69	-4.8	0	0	974.7	NA	0.0000		9999	7120	0	0	0
2019/04/15 08:04:00	BASE	17.97	42	21.30	37	0.3	68	-4.8	0	0	974.7	NA	0.0000		9999	7120	0	0	0
2019/04/15 08:05:00	BASE	17.82	42	21.30	37	0.3	68	-4.8	0	0	974.7	NA	0.0000		9999	7120	0	0	0
2019/04/15 08:06:00	BASE	18.22	43	21.30	37	0.3	69	-4.8	0	0	974.7	NA	0.0000		9999	7150	0	0	0
2019/04/15 08:07:00	BASE	18.32	45	21.30	37	0.3	69	-4.8	0	0	974.7	NA	0.0000		9999	7090	0	0	0
2019/04/15 08:08:00	BASE	18.55	45	21.30	37	0.3	69	-4.8	0	0	974.6	NA	0.0000		9999	7120	0	0	0
2019/04/15 08:09:00	BASE	18.95	44	22.17	36	0.3	69	-4.7	0	0	974.6	NA	0.0000		9999	7020	0	0	0
2019/04/15 08:10:00	BASE	18.35	42	22.17	36	0.3	69	-4.8	0	0	974.7	NA	0.0000		9999	6920	0	0	0
2019/04/15 08:11:00	BASE	17.87	43	22.17	36	0.3	69	-4.7	0	0	974.6	NA	0.0000		9999	6960	0	0	0
2019/04/15 08:12:00	BASE	18.53	46	22.17	36	0.2	69	-4.7	0	0	974.6	NA	0.0000		9999	6920	0	0	0
2019/04/15 08:13:00	BASE	18.89	46	22.17	36	0.2	69	-4.7	0	0	974.6	NA	0.0000		9999	6990	0	0	0
2019/04/15 08:14:00	BASE	18.68	44	22.17	36	0.2	69	-4.7	0	0	974.6	NA	0.0000		9999	6860	0	0	0
2019/04/15 08:15:00	BASE	18.98	44	22.22	47	0.2	70	-4.7	0	0	974.6	NA	0.0000		9999	6790	0	0	0
2019/04/15 08:16:00	BASE	19.97	45	22.58	45	0.2	69	-4.7	0	0	974.5	NA	0.0000		9999	6860	0	0	0
2019/04/15 08:17:00	BASE	20.26	45	22.58	45	0.2	69	-4.7	0	0	974.5	NA	0.0000		9999	6860	0	0	0
2019/04/15 08:18:00	BASE	20.13	47	22.58	45	0.3	69	-4.7	0	0	974.5	NA	0.0000		9999	6860	0	0	0
2019/04/15 08:19:00	BASE	20.06	47	22.58	45	0.3	69	-4.7	0	0	974.5	NA	0.0000		9999	6860	0	0	0
2019/04/15 08:20:00	BASE	19.78	45	22.58	45	0.3	69	-4.7	0	0	974.5	NA	0.0000		9999	6860	0	0	0
2019/04/15 08:21:00	BASE	19.21	45	22.58	45	0.3	69	-4.7	0	0	974.5	NA	0.0000		9999	6890	0	0	0
2019/04/15 08:22:00	BASE	18.90	47	22.58	45	0.4	69	-4.7	0	0	974.6	NA	0.0000		9999	6990	0	0	0
2019/04/15 08:23:00	BASE	18.78	46	22.58	45	0.4	69	-4.6	0	0	974.6	NA	0.0000		9999	7020	0	0	0
2019/04/15 08:24:00	BASE	18.41	48	22.58	45	0.4	69	-4.6	0	0	974.6	NA	0.0000		9999	7020	0	0	0
2019/04/15 08:25:00	BASE	17.81	47	22.58	45	0.4	69	-4.6	0	0	974.6	NA	0.0000		9999	6960	0	0	0
2019/04/15 08:26:00	BASE	17.34	46	21.97	44	0.5	69	-4.6	0	0	974.6	NA	0.0000		9999	6960	0	0	0
2019/04/15 08:27:00	BASE	17.26	48	21.97	44	0.5	69	-4.6	0	0	974.6	NA	0.0000		9999	6860	0	0	0
2019/04/15 08:28:00	BASE	17.35	50	21.97	44	0.5	69	-4.6	0	0	974.5	NA	0.0000		9999	6790	0	0	0
2019/04/15 08:29:00	BASE	17.60	52	21.97	44	0.5	68	-4.7	0	0	974.5	NA	0.0000		9999	6920	0	0	0
2019/04/15 08:30:00	BASE	18.39	52	21.45	47	0.5	68	-4.7	0	0	974.4	NA	0.0000		9999	6790	0	0	0
2019/04/15 08:31:00	BASE	18.67	54	21.40	54	0.5	68	-4.7	0	0	974.4	NA	0.0000		9999	6790	0	0	0
2019/04/15 08:32:00	BASE	18.50	55	21.61	53	0.5	68	-4.7	0	0	974.4	NA	0.0000		9999	6990	0	0	0
2019/04/15 08:33:00	BASE	18.60	53	21.61	53	0.5	68	-4.7	0	0	974.3	NA	0.0000		9999	6890	0	0	0
2019/04/15 08:34:00	BASE	19.50	52	22.12	49	0.5	68	-4.7	0	0	974.3	NA	0.0000		9999	6790	0	0	0
2019/04/15 08:35:00	BASE	20.19	50	22.12	49	0.5	68	-4.7	0	0	974.3	NA	0.0000		9999	5940	6760	0	0
2019/04/15 08:36:00	BASE	20.14	48	22.12	49	0.5	68	-4.7	0	0	974.3	NA	0.0000		9999	5910	0	0	0
2019/04/15 08:37:00	BASE	19.83	48	22.12	49	0.5	68	-4.7	0	0	974.4	NA	0.0000		9999	5840	0	0	0
2019/04/15 08:38:00	BASE	19.35	50	22.12	49	0.5	68	-4.7	0	0	974.3	NA	0.0000		9999	5810	0	0	0
2019/04/15 08:39:00	BASE	18.76	49	22.12	49	0.5	68	-4.6	0	0	974.3	NA	0.0000		9999	5740	0	0	0
2019/04/15 08:40:00	BASE	19.02	50	22.12	49	0.5	68	-4.7	0	0	974.3	NA	0.0000		9999	5580	0	0	0
2019/04/15 08:41:00	BASE	19.85	52	22.12	49	0.5	68	-4.7	0	0	974.3	NA	0.0000		9999	5580	0	0	0
2019/04/15 08:42:00	BASE	18.98	53	22.12	49	0.5	68	-4.7	0	0	974.3	NA	0.0000		9999	5610	0	0	0
2019/04/15 08:43:00	BASE	18.65	52	22.12	49	0.5	68	-4.7	0	0	974.2	NA	0.0000		9999	5610	0	0	0
2019/04/15 08:44:00	BASE	18.90	52	21.92	44	0.5	68	-4.8	0	0	974.3	NA	0.0000		9999	5580	0	0	0
2019/04/15 08:45:00	BASE	17.94	54	21.92	44	0.5	67	-4.9	0	0	974.3	NA	0.0000		9999	5510	0	0	0
2019/04/15 08:46:00	BASE	16.80	57	21.71	52	0.6	67	-4.9	0	0	974.3	NA	0.0000		9999	5510	0	0	0
2019/04/15 08:47:00	BASE	16.47	60	21.71	52	0.6	67	-4.9	0	0	974.3	NA	0.0000		9999	5580	0	0	0
2019/04/15 08:48:00	BASE	16.50	63	21.71	52	0.5	67	-4.9	0	0	974.3	NA	0.0000		9999	5610	0	0	0
2019/04/15 08:49:00	BASE	15.87	63	21.71	52	0.5	67	-5.0	0	0	974.3	NA	0.0000		9999	5680	0	0	0
2019/04/15 08:50:00	BASE	16.05	61	21.71	52	0.4	67	-5.0	0	0	974.3	NA	0.0000		9999	5810	0	0	0
2019/04/15 08:51:00	BASE	17.36	61	20.94	57	0.4	67	-5.1	0	0	974.2	NA	0.0000		9999	5770	0	0	0
2019/04/15 08:52:00	BASE	18.08	64	20.94	57	0.3	67	-5.2	0	0	974.2	NA	0.0000		9999	5740	0	0	0
2019/04/15 08:53:00	BASE	18.01	65	19.96	49	0.3	66	-5.2	0	0	974.2	NA	0.0000		9999	5710	0	0	0
2019/04/15 08:54:00	BASE	17.70	63	19.70	66	0.3	66	-5.3	0	0	974.3	NA	0.0000		9999	5480	0	0	0
2019/04/15 08:55:00	BASE	16.78	62	19.70	66	0.3	66	-5.3	0	0	974.3	NA	0.0000		9999	5510	0	0	0
2019/04/15 08:56:00	BASE	16.50	65	19.70	66	0.3	66	-5.3	0	0	974.3	NA	0.0000		9999	5540	0	0	0
2019/04/15 08:57:00	BASE	16.57	66	19.70	66	0.3	67	-5.2	0	0	974.3	NA	0.0000		9999	5540	0	0	0
2019/04/15 08:58:00	BASE	16.23	67	19.70	66	0.3	67	-5.2	0	0	974.3	NA	0.0000		9999	5410	0	0	0
2019/04/15 08:59:00	BASE	15.77	69	19.70	66	0.3	67	-5.2	0	0	974.4	NA	0.0000		9999	4530	0	0	0
2019/04/15 09:00:00	BASE	15.12	72	19.70	66	0.3	67	-5.2	0	0	974.4	NA	0.0000		9999	4630	0	0	0
2019/04/15 09:01:00	BASE	14.43	73	19.70	66	0.3	66	-5.3	0	0	974.4	NA	0.0000		9999	4660	0	0	0
2019/04/15 09:02:00	BASE	13.23	75	19.70	66	0.3	66	-5.4	0	0	974.5	NA	0.0000		9999	4820	0	0	0
2019/04/15 09:03:00	BASE	12.27	78	18.47	57	0.3	65	-5.6	0	0	974.5	NA	0.0000		9999	4400	0	0	0
2019/04/15 09:04:00	BASE	11.48	81	18.11	62	0.3	64	-5.7	0	0	974.5	NA	0.0000		9999	4360	0	0	0
2019/04/15 09:05:00	BASE	11.22	83	17.75	71	0.3	64	-5.8	0	0	974.5	NA	0.0000		9999	4130	0	0	0
2019/04/15 09:06:00	BASE	11.38	87	17.75	71	0.3	63	-5.9	0	0	974.5	NA	0.0000		9999	4000	0	0	0
2019/04/15 09:07:00	BASE	9.95	84	17.75	71	0.3	63	-5.9	0	0	974.5	NA	0.0000		9999	4070	0	0	0
2019/04/15 09:08:00	BASE	9.49	75	17.54	70	0.3	63	-5.9	0	0	974.5	NA	0.0000		9999	4100	0	0	0
2019/04/15 09:09:00	BASE	10.46	74	16.62	74	0.3	64	-5.8	0	0	974.4	NA	0.0000		9999	4130	0	0	0
2019/04/15 09:10:00	BASE	10.50	71	15.07	75	0.3	64	-5.8	0	0	974.4	NA	0.0000		9999	4070	0	0	0
2019/04/15 09:11:00	BASE	10.58	65	13.84	81	0.3	64	-5.8	0	0	974.3	NA	0.0000		9999	4100	0	0	0
2019/04/15 09:12:00	BASE	10.69	64	13.12	85	0.3	64	-5.7	0	0	974.3	NA	0.0000		9999	4040	0	0	0
2019/04/15 09:13:00	BASE	11.26	63	13.38	58	0.3	64	-5.6	0	0	974.3	NA	0.0000		9999	4040	0	0	0
2019/04/15 09:14:00	BASE	10.74	64	13.38	58	0.4	64	-5.6	0	0	974.3	NA	0.0000		9999	4100	0	0	0
2019/04/15 09:15:00	BASE	10.60	71	13.38	58	0.5	64	-5.5	0	0	974.2	NA	0.0000		9999	4170	0	0	0
2019/04/15 09:16:00	BASE	11.23	76	13.38	58	0.5	64	-5.5	0	0	974.2	NA	0.0000		9999	4130	0	0	0
2019/04/15 09:17:00	BASE	11.31	76	13.84	65	0.6	64	-5.4	0	0	974.2	NA	0.0000		9999	4200	0	0	0
2019/04/15 09:18:00	BASE	11.91	72	13.84	65	0.6	64	-5.4	0	0	974.2	NA	0.0000		9999	4200	5150	0	0
2019/04/15 09:19:00	BASE	11.20	67	13.84	65	0.6	64	-5.4	0	0	974.2	NA	0.0000		9999	4860	0	0	0
2019/04/15 09:20:00	BASE	10.60	68	13.84	65	0.6	64	-5.4	0	0	974.1	NA	0.0000		9999	4530	0	0	0
2019/04/15 09:21:00	BASE	11.32	70	14.97	72	0.6	64	-5.3	0	0	974.0	NA	0.0000		9999	5050	0	0	0
2019/04/15 09:22:00	BASE	13.15	70	16.51	68	0.6	65	-5.2	0	0	973.9	NA	0.0000		9999	5020	0	0	0
2019/04/15 09:23:00	BASE	14.41	71	16.57	66	0.6	65	-5.2	0	0	973.9	NA	0.0000		9999	5020	0	0	0
2019/04/15 09:24:00	BASE	15.37	75	18.26	83	0.6	66	-5.1	0	0	973.8	NA	0.0000		9999	5540	0	0	0
2019/04/15 09:25:00	BASE	15.56	84	18.26	83	0.6	66	-5.1	0	0	973.9	NA	0.0000		9999	6270	0	0	0
2019/04/15 09:26:00	BASE	13.84	86	18.26	83	0.6	66	-5.1	0	0	973.8	NA	0.0000		9999	6230	0	0	0
2019/04/15 09:27:00	BASE	12.64	83	18.26	83	0.6	66	-5.1	0	0	973.8	NA	0.0000		9999	6400	0	0	0
2019/04/15 09:28:00	BASE	12.08	85	18.26	83	0.6	65	-5.2	0	0	973.8	NA	0.0000		9999	5320	6400	0	0
2019/04/15 09:29:00	BASE	11.73	89	18.26	83	0.6	64	-5.4	0	0	973.8	NA	0.0000		9999	5410	0	0	0
2019/04/15 09:30:00	BASE	12.23	91	18.26	83	0.6	63	-5.6	0	0	973.8	NA	0.0000		9999	5120	0	0	0
2019/04/15 09:31:00	BASE	12.45	91	18.26	83	0.5	63	-5.7	0	0	973.8	NA	0.0000		9999	6270	0	0	0
2019/04/15 09:32:00	BASE	11.37	89	18.26	83	0.5	63	-5.8	0	0	973.8	NA	0.0000		9999	5120	0	0	0
2019/04/15 09:33:00	BASE	11.81	88	18.26	83	0.4	63	-5.8	0	0	973.8	NA	0.0000		9999	5350	0	0	0
2019/04/15 09:34:00	BASE	13.15	84	17.03	89	0.4	63	-5.8	0	0	973.7	NA	0.0000		9999	4890	0	0	0
2019/04/15 09:35:00	BASE	14.22	90	20.11	100	0.5	64	-5.7	0	0	973.6	NA	0.0000		9999	5150	0	0	0
2019/04/15 09:36:00	BASE	14.08	97	20.11	100	0.6	63	-5.6	0	0	973.7	NA	0.0000		9999	4860	6200	0	0
2019/04/15 09:37:00	BASE	13.23	92	20.11	100	0.7	63	-5.6	0	0	973.7	NA	0.0000		9999	5320	0	0	0
2019/04/15 09:38:00	BASE	13.54	98	20.11	100	0.8	62	-5.7	0	0	973.8	NA	0.0000		9999	5180	6170	0	0
2019/04/15 09:39:00	BASE	14.54	110	20.11	100	0.7	61	-5.9	0	0	973.7	NA	0.0000		9999	5640	0	0	0
2019/04/15 09:40:00	BASE	13.29	119	20.11	100	0.4	62	-6.1	0	0	973.6	NA	0.0000		9999	5180	0	0	0
2019/04/15 09:41:00	BASE	11.70	128	20.11	100	0.1	63	-6.1	0	0	973.5	NA	0.0000		9999	6100	0	0	0
2019/04/15 09:42:00	BASE	12.89	122	20.11	100	-0.2	64	-6.2	0	0	973.6	NA	0.0000		9999	6170	0	0	0
2019/04/15 09:43:00	BASE	13.54	115	20.11	100	-0.4	65	-6.1	0	0	973.6	NA	0.0000		9999	6230	0	0	0
2019/04/15 09:44:00	BASE	13.73	114	20.11	100	-0.5	67	-6.0	0	0	973.7	NA	0.0000		9999	6230	0	0	0
2019/04/15 09:45:00	BASE	13.72	108	17.95	113	-0.6	68	-5.8	0	0	973.7	NA	0.0000		9999	6230	0	0	0
2019/04/15 09:46:00	BASE	13.46	106	17.95	113	-0.7	69	-5.7	0	0	973.7	NA	0.0000		9999	6200	0	0	0
2019/04/15 09:47:00	BASE	12.45	112	17.95	113	-0.8	70	-5.6	0	0	973.7	NA	0.0000		9999	5940	0	0	0
2019/04/15 09:48:00	BASE	11.32	121	17.95	113	-0.9	71	-5.5	0	0	973.6	NA	0.0000		9999	6200	0	0	0
2019/04/15 09:49:00	BASE	12.10	130	15.64	114	-1.0	73	-5.3	0	0	973.4	NA	0.0000		9999	6200	0	0	0
2019/04/15 09:50:00	BASE	13.33	132	15.74	129	-1.0	74	-5.1	0	0	973.4	NA	0.0000		9999	5810	0	0	0
2019/04/15 09:51:00	BASE	13.02	127	15.74	129	-1.0	74	-5.0	0	0	973.5	NA	0.0000		9999	5770	0	0	0
2019/04/15 09:52:00	BASE	12.45	125	15.74	129	-1.0	75	-4.9	0	0	973.5	NA	0.0000		9999	5150	6100	0	0
2019/04/15 09:53:00	BASE	12.52	122	15.74	129	-1.0	75	-4.9	0	0	973.6	NA	0.0000		9999	5380	6070	0	0
2019/04/15 09:54:00	BASE	11.25	120	15.74	129	-1.0	75	-4.8	0	0	973.5	NA	0.0000		9999	4560	6070	0	0
2019/04/15 09:55:00	BASE	10.10	123	15.74	129	-1.0	75	-4.8	0	0	973.5	NA	0.0000		9999	4630	5970	0	0
2019/04/15 09:56:00	BASE	11.79	124	16.20	120	-0.9	75	-4.7	0	0	973.5	NA	0.0000		9999	4040	4560	5970	0
2019/04/15 09:57:00	BASE	14.29	120	19.09	109	-0.9	76	-4.7	0	0	973.5	NA	0.0000		9999	5840	0	0	0
2019/04/15 09:58:00	BASE	15.42	116	19.09	109	-0.8	76	-4.6	0	0	973.5	NA	0.0000		9999	5810	0	0	0
2019/04/15 09:59:00	BASE	14.20	116	19.09	109	-0.8	75	-4.6	0	0	973.6	NA	0.0000		9999	4950	0	0	0
2019/04/15 10:00:00	BASE	11.80	113	19.09	109	-0.8	75	-4.7	0	0	973.7	NA	0.0000		9999	4990	5870	0	0
2019/04/15 10:01:00	BASE	11.26	115	19.09	109	-0.8	75	-4.8	0	0	973.6	NA	0.0000		9999	4690	0	0	0
2019/04/15 10:02:00	BASE	11.41	119	19.09	109	-0.8	74	-4.8	0	0	973.6	NA	0.0000		9999	4660	5120	0	0
2019/04/15 10:03:00	BASE	10.72	118	19.09	109	-0.9	74	-4.8	0	0	973.6	NA	0.0000		9999	4820	0	0	0
2019/04/15 10:04:00	BASE	10.48	116	19.09	109	-0.9	75	-4.8	0	0	973.6	NA	0.0000		9999	4660	0	0	0
2019/04/15 10:05:00	BASE	10.83	117	19.09	109	-0.9	75	-4.8	0	0	973.5	NA	0.0000		9999	4630	5940	0	0
2019/04/15 10:06:00	BASE	10.52	119	19.09	109	-0.9	75	-4.7	0	0	973.6	NA	0.0000		9999	4590	0	0	0
2019/04/15 10:07:00	BASE	9.76	115	16.98	119	-0.9	76	-4.7	0	0	973.6	NA	0.0000		9999	3940	0	0	0
2019/04/15 10:08:00	BASE	8.78	109	13.58	124	-0.9	76	-4.7	0	0	973.7	NA	0.0000		9999	4170	0	0	0
2019/04/15 10:09:00	BASE	7.42	103	12.30	108	-0.9	76	-4.6	0	0	973.7	NA	0.0000		9999	3970	0	0	0
2019/04/15 10:10:00	BASE	7.81	103	12.24	124	-0.9	76	-4.6	0	0	973.7	NA	0.0000		9999	4040	4690	5610	0
2019/04/15 10:11:00	BASE	9.21	102	12.04	113	-1.0	76	-4.6	0	0	973.7	NA	0.0000		9999	5540	0	0	0
2019/04/15 10:12:00	BASE	10.13	104	12.14	121	-1.0	77	-4.6	0	0	973.6	NA	0.0000		9999	5770	0	0	0
2019/04/15 10:13:00	BASE	11.92	114	14.71	119	-1.0	77	-4.6	0	0	973.4	NA	0.0000		9999	4530	5740	0	0
2019/04/15 10:14:00	BASE	13.09	117	14.71	116	-1.1	77	-4.6	0	0	973.4	NA	0.0000		9999	5510	0	0	0
2019/04/15 10:15:00	BASE	12.45	112	14.71	116	-1.1	77	-4.6	0	0	973.5	NA	0.0000		9999	5640	0	0	0
2019/04/15 10:16:00	BASE	11.29	108	14.71	116	-1.0	77	-4.6	0	0	973.5	NA	0.0000		9999	5410	0	0	0
2019/04/15 10:17:00	BASE	10.70	108	14.71	116	-1.0	77	-4.5	0	0	973.5	NA	0.0000		9999	5480	0	0	0
2019/04/15 10:18:00	BASE	10.18	116	14.71	116	-1.0	77	-4.5	0	0	973.4	NA	0.0000		9999	5540	0	0	0
2019/04/15 10:19:00	BASE	10.44	122	14.71	116	-0.9	77	-4.5	0	0	973.3	NA	0.0000		9999	5510	0	0	0
2019/04/15 10:20:00	BASE	10.41	120	14.71	116	-0.9	77	-4.5	0	0	973.4	NA	0.0000		9999	5510	0	0	0
2019/04/15 10:21:00	BASE	10.46	112	14.71	116	-0.9	77	-4.4	0	0	973.4	NA	0.0000		9999	5410	0	0	0
2019/04/15 10:22:00	BASE	10.72	109	14.71	116	-0.9	77	-4.4	0	0	973.3	NA	0.0000		9999	5350	0	0	0
2019/04/15 10:23:00	BASE	9.39	110	14.71	116	-0.9	77	-4.4	0	0	973.3	NA	0.0000		9999	5350	0	0	0
2019/04/15 10:24:00	BASE	8.99	113	13.32	110	-0.9	77	-4.5	0	0	973.3	NA	0.0000		9999	5350	0	0	0
2019/04/15 10:25:00	BASE	8.82	122	12.19	107	-0.9	77	-4.5	0	0	973.2	NA	0.0000		9999	5350	0	0	0
2019/04/15 10:26:00	BASE	7.79	129	12.19	107	-0.9	77	-4.5	0	0	973.0	NA	0.0000		9999	5380	0	0	0
2019/04/15 10:27:00	BASE	7.08	130	12.19	107	-0.9	77	-4.5	0	0	973.1	NA	0.0000		9999	5410	0	0	0
2019/04/15 10:28:00	BASE	6.87	131	12.19	107	-0.9	77	-4.5	0	0	973.0	NA	0.0000		9999	5450	0	0	0
2019/04/15 10:29:00	BASE	6.65	137	12.19	107	-0.9	76	-4.5	0	0	973.0	NA	0.0000		9999	5320	0	0	0
2019/04/15 10:30:00	BASE	6.21	140	12.19	107	-0.8	76	-4.5	0	0	973.0	NA	0.0000		9999	5320	0	0	0
2019/04/15 10:31:00	BASE	6.04	138	10.91	111	-0.8	76	-4.6	0	0	973.0	NA	0.0000		9999	5280	0	0	0
2019/04/15 10:32:00	BASE	6.16	132	10.08	118	-0.8	76	-4.6	0	0	973.0	NA	0.0000		9999	5250	0	0	0
2019/04/15 10:33:00	BASE	6.35	135	10.08	118	-0.8	76	-4.6	0	0	973.0	NA	0.0000		9999	5380	0	0	0
2019/04/15 10:34:00	BASE	7.04	144	9.05	127	-0.8	76	-4.5	0	0	973.0	NA	0.0000		9999	5250	0	0	0
2019/04/15 10:35:00	BASE	7.27	131	8.85	110	-0.7	76	-4.5	0	0	973.0	NA	0.0000		9999	5280	0	0	0
2019/04/15 10:36:00	BASE	7.28	123	9.52	133	-0.7	76	-4.4	0	0	973.0	NA	0.0000		9999	5280	0	0	0
2019/04/15 10:37:00	BASE	8.18	136	10.03	142	-0.6	75	-4.4	0	0	972.9	NA	0.0000		9999	5150	0	0	0
2019/04/15 10:38:00	BASE	8.69	139	10.03	142	-0.6	75	-4.4	0	0	972.9	NA	0.0000		9999	5250	0	0	0
2019/04/15 10:39:00	BASE	8.49	133	10.03	142	-0.6	75	-4.4	0	0	972.9	NA	0.0000		9999	5280	0	0	0
2019/04/15 10:40:00	BASE	9.38	132	11.94	126	-0.6	76	-4.4	0	0	972.8	NA	0.0000		9999	5320	0	0	0
2019/04/15 10:41:00	BASE	10.83	126	13.27	114	-0.6	76	-4.3	0	0	972.8	NA	0.0000		9999	5380	0	0	0
2019/04/15 10:42:00	BASE	10.17	124	13.27	114	-0.6	76	-4.3	0	0	972.9	NA	0.0000		9999	5380	0	0	0
2019/04/15 10:43:00	BASE	9.16	126	13.27	114	-0.6	76	-4.3	0	0	972.9	NA	0.0000		9999	5280	0	0	0
2019/04/15 10:44:00	BASE	9.00	122	13.27	114	-0.6	77	-4.2	0	0	972.9	NA	0.0000		9999	5220	0	0	0
2019/04/15 10:45:00	BASE	8.47	121	13.27	114	-0.6	77	-4.2	0	0	972.9	NA	0.0000		9999	5320	0	0	0
2019/04/15 10:46:00	BASE	8.59	122	13.27	114	-0.6	77	-4.2	0	0	972.9	NA	0.0000		9999	5380	0	0	0
2019/04/15 10:47:00	BASE	8.20	120	13.27	114	-0.6	77	-4.2	0	0	972.9	NA	0.0000		9999	5380	0	0	0
2019/04/15 10:48:00	BASE	6.99	116	13.27	114	-0.6	77	-4.2	0	0	972.9	NA	0.0000		9999	5410	0	0	0
2019/04/15 10:49:00	BASE	6.73	114	13.27	114	-0.6	76	-4.2	0	0	972.8	NA	0.0000		9999	5410	0	0	0
2019/04/15 10:50:00	BASE	7.81	98	13.27	114	-0.6	76	-4.2	0	0	972.8	NA	0.0000		9999	5350	0	0	0
2019/04/15 10:51:00	BASE	12.09	79	18.16	82	-0.4	76	-4.1	0	0	972.7	NA	0.0000		9999	5320	0	0	0
2019/04/15 10:52:00	BASE	14.67	80	18.16	82	-0.2	76	-3.9	0	0	972.7	NA	0.0000		9999	5320	0	0	0
2019/04/15 10:53:00	BASE	14.33	86	18.52	88	0.1	76	-3.7	0	0	972.7	NA	0.0000		9999	5280	0	0	0
2019/04/15 10:54:00	BASE	13.22	87	18.52	88	0.3	75	-3.7	0	0	972.7	NA	0.0000		9999	5320	0	0	0
2019/04/15 10:55:00	BASE	12.45	82	18.52	88	0.5	74	-3.5	0	0	972.7	NA	0.0000		9999	6530	0	0	0
2019/04/15 10:56:00	BASE	15.05	75	18.67	72	0.7	73	-3.6	0	0	972.6	NA	0.0000		9999	2130	0	0	0
2019/04/15 10:57:00	BASE	17.19	75	20.68	76	0.8	72	-3.6	0	0	972.5	NA	0.0000		9999	5350	0	0	0
2019/04/15 10:58:00	BASE	17.15	78	20.68	76	0.9	72	-3.7	0	0	972.5	NA	0.0000		9999	5540	0	0	0
2019/04/15 10:59:00	BASE	15.99	75	20.68	76	1.0	71	-3.7	0	0	972.5	NA	0.0000		9999	0	0	0	2530
2019/04/15 11:00:00	BASE	15.57	69	20.68	76	1.0	70	-3.8	0	0	972.5	NA	0.0000		9999	0	0	0	2560
2019/04/15 11:01:00	BASE	17.48	70	20.89	69	1.1	70	-3.9	0	0	972.4	NA	0.0000		9999	2360	0	0	0
2019/04/15 11:02:00	BASE	17.84	76	20.89	69	1.1	69	-3.9	0	0	972.4	NA	0.0000		9999	5480	0	0	0
2019/04/15 11:03:00	BASE	15.30	85	20.89	69	1.1	69	-4.0	0	0	972.5	NA	0.0000		9999	5380	0	0	0
2019/04/15 11:04:00	BASE	12.82	90	20.89	69	1.1	68	-4.1	0	0	972.6	NA	0.0000		9999	5480	6630	0	0
2019/04/15 11:05:00	BASE	10.89	90	20.89	69	1.1	68	-4.1	0	0	972.6	NA	0.0000		9999	5380	0	0	0
2019/04/15 11:06:00	BASE	10.90	89	20.89	69	1.1	68	-4.1	0	0	972.6	NA	0.0000		9999	5350	0	0	0
2019/04/15 11:07:00	BASE	13.17	81	20.89	69	1.1	69	-4.0	0	0	972.5	NA	0.0000		9999	5410	0	0	0
2019/04/15 11:08:00	BASE	14.34	73	20.89	69	1.1	69	-4.0	0	0	972.4	NA	0.0000		9999	5580	0	0	0
2019/04/15 11:09:00	BASE	16.19	72	20.89	69	1.1	69	-3.9	0	0	972.3	NA	0.0000		9999	5610	0	0	0
2019/04/15 11:10:00	BASE	17.56	70	20.89	69	1.1	69	-3.9	0	0	972.3	NA	0.0000	UP	9999	5640	6560	0	0
2019/04/15 11:11:00	BASE	17.63	67	21.09	62	1.2	69	-3.8	0	0	972.3	NA	0.0000	UP	9999	5510	0	0	0
2019/04/15 11:12:00	BASE	18.18	62	22.38	57	1.2	69	-3.8	0	0	972.2	NA	0.0000	UP	9999	5580	0	0	0
2019/04/15 11:13:00	BASE	18.38	61	22.38	57	1.2	70	-3.8	0	0	972.1	NA	0.0000	UP	9999	5540	0	0	0
2019/04/15 11:14:00	BASE	18.59	63	22.38	57	1.1	70	-3.7	0	0	972.0	NA	0.0000	UP	9999	5510	0	0	0
2019/04/15 11:15:00	BASE	19.27	61	24.18	62	1.1	70	-3.7	0	0	971.9	NA	0.0000	UP	9999	5510	0	0	0
2019/04/15 11:16:00	BASE	21.06	56	25.77	53	1.0	71	-3.6	0	0	971.8	NA	0.0000	UP	9999	5510	0	0	0
2019/04/15 11:17:00	BASE	21.34	55	25.77	53	1.0	71	-3.6	0	0	971.8	NA	0.0000	UP	9999	6790	0	0	0
2019/04/15 11:18:00	BASE	20.54	56	25.77	53	1.0	72	-3.6	0	0	971.7	NA	0.0000	UP	9999	6660	0	0	0
2019/04/15 11:19:00	BASE	20.74	56	27.63	51	1.0	72	-3.6	0	0	971.6	NA	0.0000	UP	9999	5450	6690	0	0
2019/04/15 11:20:00	BASE	21.04	55	27.63	51	1.0	72	-3.5	1	0	971.7	NA	0.0000	UP	9999	5450	6560	0	0
2019/04/15 11:21:00	BASE	21.43	53	27.63	51	1.0	71	-3.6	1	0	971.7	NA	0.0000	UP	9999	6560	0	0	0
2019/04/15 11:22:00	BASE	21.49	53	27.63	51	1.1	71	-3.6	1	0	971.6	NA	0.0000	UP	9999	6630	0	0	0
2019/04/15 11:23:00	BASE	20.76	55	27.63	51	1.1	71	-3.6	1	0	971.6	NA	0.0000	UP	9999	6760	0	0	0
2019/04/15 11:24:00	BASE	22.07	55	27.63	51	1.1	71	-3.6	1	0	971.5	NA	0.0000	UP	9999	5480	6630	0	0
2019/04/15 11:25:00	BASE	23.85	52	27.93	60	1.1	71	-3.6	1	0	971.5	NA	0.0000	UP	9999	5410	6760	0	0
2019/04/15 11:26:00	BASE	24.07	51	27.93	60	1.1	70	-3.6	1	0	971.4	NA	0.0000	UP	9999	6730	0	0	0
2019/04/15 11:27:00	BASE	22.59	50	27.93	60	1.2	70	-3.7	1	0	971.5	NA	0.0000	UP	9999	6660	0	0	0
2019/04/15 11:28:00	BASE	21.14	51	27.93	60	1.2	70	-3.7	1	0	971.5	NA	0.0000	UP	9999	6630	0	0	0
2019/04/15 11:29:00	BASE	21.58	51	27.93	60	1.2	70	-3.8	1	0	971.5	NA	0.0000	UP	9999	6820	0	0	0
2019/04/15 11:30:00	BASE	21.53	51	27.93	60	1.2	70	-3.8	1	0	971.5	NA	0.0000	UP	9999	6890	0	0	0
2019/04/15 11:31:00	BASE	20.47	51	27.93	60	1.1	70	-3.7	1	0	971.5	NA	0.0000	UP	9999	6760	0	0	0
2019/04/15 11:32:00	BASE	19.81	52	27.93	60	1.1	71	-3.6	1	0	971.5	NA	0.0000	UP	9999	6690	0	0	0
2019/04/15 11:33:00	BASE	21.08	50	27.93	60	1.1	71	-3.6	1	0	971.5	NA	0.0000	UP	9999	6660	0	0	0
2019/04/15 11:34:00	BASE	21.85	50	27.93	60	1.1	71	-3.6	1	0	971.5	NA	0.0000		9999	6660	0	0	0
2019/04/15 11:35:01	BASE	20.64	52	27.68	50	1.1	71	-3.6	1	0	971.5	NA	0.0000		9999	5580	6690	0	0
2019/04/15 11:36:01	BASE	20.99	52	25.93	44	1.1	71	-3.6	1	0	971.4	NA	0.0000		9999	5540	6170	0	0
2019/04/15 11:37:01	BASE	22.93	48	28.91	45	1.0	71	-3.6	1	0	971.4	NA	0.0000		9999	6170	0	0	0
2019/04/15 11:38:01	BASE	24.52	45	28.91	45	1.0	72	-3.5	2	0	971.4	NA	0.0000		9999	5710	6630	0	0
2019/04/15 11:39:01	BASE	24.41	46	28.91	45	1.0	72	-3.5	2	0	971.3	NA	0.0000		9999	6100	0	0	0
2019/04/15 11:40:01	BASE	22.72	45	28.91	45	1.0	72	-3.5	2	0	971.4	NA	0.0000		9999	5770	0	0	0
2019/04/15 11:41:01	BASE	22.54	46	28.91	45	1.1	71	-3.5	2	0	971.3	NA	0.0000		9999	5610	0	0	0
2019/04/15 11:42:01	BASE	23.07	48	28.91	45	1.1	71	-3.6	2	0	971.3	NA	0.0000		9999	6690	0	0	0
2019/04/15 11:43:01	BASE	22.73	47	28.91	45	1.1	71	-3.6	2	0	971.3	NA	0.0000		9999	5970	0	0	0
2019/04/15 11:44:01	BASE	22.61	46	28.91	45	1.0	71	-3.6	2	0	971.2	NA	0.0000		9999	6100	0	0	0
2019/04/15 11:45:01	BASE	22.61	47	28.91	45	1.0	71	-3.6	2	0	971.2	NA	0.0000		9999	6070	0	0	0
2019/04/15 11:46:01	BASE	24.09	46	29.27	45	1.0	71	-3.6	2	0	971.1	NA	0.0000		9999	6100	6860	0	0
2019/04/15 11:47:01	BASE	23.72	45	29.27	45	1.0	71	-3.6	3	0	971.2	NA	0.0000		9999	5450	6790	0	0
2019/04/15 11:48:01	BASE	22.20	47	29.27	45	1.0	71	-3.6	3	0	971.2	NA	0.0000		9999	5680	6690	0	0
2019/04/15 11:49:01	BASE	23.22	49	29.27	45	1.0	71	-3.6	3	0	971.1	NA	0.0000		9999	5940	6730	0	0
2019/04/15 11:50:01	BASE	22.90	52	29.27	45	1.0	71	-3.6	4	0	971.2	NA	0.0000		9999	6000	6730	0	0
2019/04/15 11:51:01	BASE	21.30	50	29.27	45	1.0	72	-3.6	4	0	971.2	NA	0.0000		9999	5810	6760	0	0
2019/04/15 11:52:01	BASE	21.59	47	29.27	45	1.0	72	-3.5	4	0	971.1	NA	0.0000		9999	5870	6760	0	0
2019/04/15 11:53:01	BASE	22.51	47	29.27	45	1.0	72	-3.5	4	0	971.1	NA	0.0000		9999	6170	0	0	0
2019/04/15 11:54:01	BASE	22.58	46	29.27	45	1.0	72	-3.5	5	0	971.0	NA	0.0000		9999	6690	0	0	0
2019/04/15 11:55:01	BASE	22.51	46	29.27	45	1.0	72	-3.5	5	0	971.0	NA	0.0000		9999	5320	0	0	0
2019/04/15 11:56:01	BASE	21.62	47	28.40	45	1.0	72	-3.5	5	0	971.1	NA	0.0000		9999	5840	0	0	0
2019/04/15 11:57:01	BASE	21.48	47	28.40	45	1.1	71	-3.5	6	0	971.0	NA	0.0000		9999	5450	0	0	0
2019/04/15 11:58:01	BASE	22.51	47	28.40	45	1.1	71	-3.6	6	0	971.1	NA	0.0000		9999	6100	0	0	0
2019/04/15 11:59:01	BASE	22.24	46	27.11	43	1.1	71	-3.6	7	0	971.1	NA	0.0000		9999	6820	0	0	0
2019/04/15 12:00:01	BASE	22.41	46	27.11	43	1.1	71	-3.6	7	0	971.0	NA	0.0000	UP	9000	0	0	0	1670
2019/04/15 12:01:01	BASE	22.01	46	27.11	43	1.1	71	-3.6	7	0	971.0	NA	0.0000	UP	9000	0	0	0	1570
2019/04/15 12:02:01	BASE	22.77	46	28.50	43	1.1	71	-3.6	8	0	970.9	NA	0.0000	UP	9000	5090	0	0	0
2019/04/15 12:03:01	BASE	22.95	45	28.50	43	1.1	71	-3.5	8	0	971.0	NA	0.0000	UP	8000	5120	0	0	0
2019/04/15 12:04:01	BASE	21.00	43	28.50	43	1.1	72	-3.4	8	0	970.9	NA	0.0000	UP	8000	0	0	0	1840
2019/04/15 12:05:01	BASE	21.22	42	28.50	43	1.1	72	-3.4	8	0	970.9	NA	0.0000	UP	9000	0	0	0	2260
2019/04/15 12:06:01	BASE	21.96	43	28.50	43	1.1	73	-3.3	8	0	970.9	NA	0.0000	UP	8000	4660	0	0	0
2019/04/15 12:07:01	BASE	23.04	45	28.50	43	1.1	73	-3.2	8	0	970.8	NA	0.0000	UP	7000	4920	6820	0	0
2019/04/15 12:08:01	BASE	23.02	48	28.50	43	1.1	73	-3.2	8	0	970.9	NA	0.0000	UP	8000	4820	6760	0	0
2019/04/15 12:09:01	BASE	22.72	47	28.50	43	1.1	74	-3.1	8	0	970.9	NA	0.0000	UP	8000	4400	0	0	0
2019/04/15 12:10:01	BASE	22.63	46	28.50	43	1.1	74	-3.1	8	0	970.9	NA	0.0000	UP	8000	4100	5610	0	0
2019/04/15 12:11:01	BASE	22.45	46	28.50	43	1.0	74	-3.1	8	0	970.9	NA	0.0000	UP	9000	4990	5710	0	0
2019/04/15 12:12:01	BASE	22.48	46	27.93	44	1.0	74	-3.1	8	0	971.0	NA	0.0000	UP	9999	4400	5810	0	0
2019/04/15 12:13:01	BASE	23.17	46	27.93	44	1.0	74	-3.1	8	0	970.9	NA	0.0000	UP	9999	5250	5940	0	0
2019/04/15 12:14:01	BASE	22.97	44	27.93	44	1.0	74	-3.1	8	0	970.9	NA	0.0000	UP	9999	5510	6730	0	0
2019/04/15 12:15:01	BASE	22.29	43	27.93	44	1.0	74	-3.1	8	0	970.8	NA	0.0000	UP	9999	6760	0	0	0
2019/04/15 12:16:01	BASE	23.80	45	27.93	44	1.1	74	-3.1	9	0	970.8	NA	0.0000	UP	9999	6590	0	0	0
2019/04/15 12:17:01	BASE	24.31	44	27.93	44	1.1	73	-3.2	9	0	970.8	NA	0.0000	UP	9999	6560	0	0	0
2019/04/15 12:18:01	BASE	23.40	44	27.93	44	1.0	73	-3.2	9	0	970.8	NA	0.0000	UP	9999	6530	0	0	0
2019/04/15 12:19:01	BASE	23.75	47	27.93	44	1.0	73	-3.3	10	0	970.7	NA	0.0000		9999	0	0	0	7150
2019/04/15 12:20:01	BASE	23.42	48	27.93	44	1.0	73	-3.3	10	0	970.7	NA	0.0000		9999	5910	0	0	0
2019/04/15 12:21:01	BASE	23.87	49	29.17	51	1.0	73	-3.3	11	0	970.6	NA	0.0000		9999	6270	0	0	0
2019/04/15 12:22:01	BASE	24.91	49	29.17	51	1.0	73	-3.3	11	0	970.6	NA	0.0000		9999	0	0	0	2230
2019/04/15 12:23:01	BASE	24.27	49	29.17	51	1.0	73	-3.3	11	0	970.6	NA	0.0000	UP	9999	6560	0	0	0
2019/04/15 12:24:01	BASE	24.35	50	29.17	51	1.1	73	-3.2	12	0	970.5	NA	0.0000	UP	9999	7320	0	0	0
2019/04/15 12:25:01	BASE	25.00	52	29.17	51	1.1	73	-3.2	12	0	970.5	NA	0.0000	UP	9999	6590	0	0	0
2019/04/15 12:26:01	BASE	26.10	51	32.20	45	1.1	73	-3.2	12	0	970.4	NA	0.0000	UP	9999	6560	0	0	0
2019/04/15 12:27:01	BASE	27.09	51	32.20	45	1.1	73	-3.2	12	0	970.4	NA	0.0000	UP	9999	6690	0	0	0
2019/04/15 12:28:01	BASE	27.16	51	32.20	45	1.1	73	-3.2	13	0	970.3	NA	0.0000	UP	9000	6660	0	0	0
2019/04/15 12:29:01	BASE	26.34	51	32.20	45	1.1	73	-3.3	13	0	970.4	NA	0.0000	UP	8000	6560	0	0	0
2019/04/15 12:30:01	BASE	25.79	50	32.20	45	1.1	73	-3.3	14	0	970.3	NA	0.0000	UP	8000	6590	0	0	0
2019/04/15 12:31:01	BASE	26.23	50	32.20	45	1.1	73	-3.3	14	0	970.3	NA	0.0000	UP	9000	6590	0	0	0
2019/04/15 12:32:01	BASE	26.38	51	32.20	45	1.1	73	-3.3	14	0	970.4	NA	0.0000	UP	8000	5540	0	0	0
2019/04/15 12:33:01	BASE	26.01	50	32.20	45	1.1	73	-3.2	15	0	970.3	NA	0.0000	UP	9000	5380	6630	0	0
2019/04/15 12:34:01	BASE	26.32	51	32.20	45	1.1	73	-3.2	15	0	970.3	NA	0.0000	UP	8000	5580	0	0	0
2019/04/15 12:35:01	BASE	26.67	53	32.20	45	1.1	73	-3.2	15	0	970.2	NA	0.0000	UP	7000	5380	0	0	0
2019/04/15 12:36:00	BASE	26.22	52	30.87	50	1.1	73	-3.2	16	0	970.2	NA	0.0000	UP	7000	5350	6560	0	0
2019/04/15 12:37:00	BASE	25.71	49	30.87	50	1.0	74	-3.2	16	0	970.2	NA	0.0000	UP	9000	5840	6500	0	0
2019/04/15 12:38:01	BASE	25.77	48	30.87	50	1.0	74	-3.1	17	0	970.2	NA	0.0000	UP	9000	5870	0	0	0
2019/04/15 12:39:00	BASE	25.00	46	30.87	50	1.0	74	-3.1	17	0	970.2	NA	0.0000	UP	9000	5840	0	0	0
2019/04/15 12:40:01	BASE	23.71	45	30.87	50	1.0	74	-3.0	17	0	970.2	NA	0.0000	UP	9000	6100	0	0	0
2019/04/15 12:41:00	BASE	23.72	46	29.43	54	1.0	75	-3.0	17	0	970.1	NA	0.0000	UP	9000	6690	0	0	0
2019/04/15 12:42:00	BASE	25.25	43	30.20	33	1.1	75	-2.9	17	0	970.0	NA	0.0000	UP	9999	6690	0	0	0
2019/04/15 12:43:00	BASE	26.58	42	30.20	33	1.1	75	-2.8	17	0	970.0	NA	0.0000	UP	9999	6690	0	0	0
2019/04/15 12:44:00	BASE	26.35	39	30.20	33	1.2	75	-2.8	17	0	969.9	NA	0.0000	UP	9000	6630	0	0	0
2019/04/15 12:45:00	BASE	25.98	37	30.87	44	1.2	75	-2.8	17	0	970.0	NA	0.0000	UP	9000	6530	0	0	0
2019/04/15 12:46:00	BASE	25.36	38	30.87	44	1.3	74	-2.8	17	0	969.9	NA	0.0000	HZ	9999	6430	0	0	0
2019/04/15 12:47:01	BASE	25.15	35	30.87	44	1.3	74	-2.8	17	0	969.9	NA	0.0000	HZ	9999	6460	0	0	0
2019/04/15 12:48:01	BASE	27.00	32	31.69	32	1.3	74	-2.8	17	0	969.7	NA	0.0000	HZ	9999	6630	0	0	0
2019/04/15 12:49:01	BASE	28.95	31	34.11	29	1.3	74	-2.8	17	0	969.8	NA	0.0000	HZ	9999	6590	0	0	0
2019/04/15 12:50:00	BASE	29.21	31	34.11	29	1.4	74	-2.8	17	0	969.7	NA	0.0000		9999	0	0	0	1050
2019/04/15 12:51:00	BASE	29.25	34	34.11	29	1.4	73	-2.8	17	0	969.7	NA	0.0000		9999	0	0	0	950
2019/04/15 12:52:00	BASE	29.40	34	34.11	29	1.4	73	-2.9	17	0	969.7	NA	0.0000		9999	0	0	0	790
2019/04/15 12:53:00	BASE	27.63	31	34.11	29	1.5	73	-2.9	17	0	969.8	NA	0.0000		9999	0	0	0	750
2019/04/15 12:54:00	BASE	26.78	30	34.11	29	1.5	73	-2.9	17	0	969.7	NA	0.0000		9999	0	0	0	620
2019/04/15 12:55:00	BASE	28.10	30	34.11	29	1.5	73	-2.9	17	0	969.6	NA	0.0000	UP	9999	0	0	0	1180
2019/04/15 12:56:00	BASE	28.46	30	34.11	29	1.4	72	-3.0	17	0	969.7	NA	0.0000	UP	9999	0	0	0	1180
2019/04/15 12:57:00	BASE	29.96	30	35.39	27	1.4	72	-3.0	17	0	969.5	NA	0.0000	UP	9999	0	0	0	950
2019/04/15 12:58:00	BASE	29.67	33	35.39	27	1.4	72	-3.0	16	0	969.6	NA	0.0000	UP	9000	0	0	0	890
2019/04/15 12:59:00	BASE	29.68	33	35.39	27	1.4	72	-3.0	16	0	969.4	NA	0.0000	UP	9999	0	0	0	590
2019/04/15 13:00:01	BASE	30.47	30	35.39	27	1.5	72	-3.0	16	0	969.5	NA	0.0000	UP	9999	7280	0	0	0
2019/04/15 13:01:00	BASE	28.17	28	35.39	27	1.5	72	-3.0	16	0	969.5	NA	0.0000	UP	9999	0	0	0	1080
2019/04/15 13:02:01	BASE	26.98	29	35.39	27	1.5	72	-3.0	16	0	969.6	NA	0.0000	UP	9999	0	0	0	1250
2019/04/15 13:03:00	BASE	27.75	32	35.39	27	1.4	72	-3.0	16	0	969.5	NA	0.0000	UP	9999	0	0	0	1180
2019/04/15 13:04:00	BASE	27.68	31	35.39	27	1.4	73	-3.0	17	0	969.6	NA	0.0000	UP	9999	0	0	0	1120
2019/04/15 13:05:00	BASE	27.67	30	35.39	27	1.3	73	-3.0	17	0	969.5	NA	0.0000	UP	9999	0	0	0	1350
2019/04/15 13:06:00	BASE	28.94	31	35.39	27	1.3	73	-2.9	18	0	969.4	NA	0.0000	UP	9999	0	0	0	1250
2019/04/15 13:07:00	BASE	29.01	29	34.52	40	1.3	74	-2.9	18	0	969.4	NA	0.0000	UP	9999	0	0	0	1440
2019/04/15 13:08:00	BASE	28.03	26	34.52	40	1.3	74	-2.8	19	0	969.5	NA	0.0000	UP	9999	0	0	0	1310
2019/04/15 13:09:01	BASE	26.42	28	34.11	29	1.4	74	-2.8	21	0	969.5	NA	0.0000	UP	9000	0	0	0	1050
2019/04/15 13:10:00	BASE	27.74	30	34.11	31	1.4	74	-2.7	22	0	969.3	NA	0.0000	UP	9000	0	0	0	1020
2019/04/15 13:11:00	BASE	30.89	33	35.14	18	1.4	74	-2.7	23	0	969.3	NA	0.0000	UP	9000	0	0	0	1050
2019/04/15 13:12:01	BASE	29.78	34	35.14	18	1.4	75	-2.6	25	0	969.3	NA	0.0000	UP	9000	0	0	0	1050
2019/04/15 13:13:00	BASE	29.71	31	35.14	18	1.4	75	-2.6	26	0	969.2	NA	0.0000	UP	9000	0	0	0	980
2019/04/15 13:14:00	BASE	31.06	32	35.14	18	1.4	75	-2.6	28	0	969.3	NA	0.0000	UP	8000	0	0	0	690
2019/04/15 13:15:00	BASE	29.78	33	35.14	18	1.4	74	-2.7	30	0	969.3	NA	0.0000	UP	8000	0	0	0	1280
2019/04/15 13:16:01	BASE	30.11	31	35.14	18	1.4	74	-2.7	30	0	969.2	NA	0.0000	UP	8000	0	0	0	1250
2019/04/15 13:17:00	BASE	30.91	31	35.14	18	1.4	74	-2.7	30	0	969.2	NA	0.0000	UP	9000	0	0	0	1350
2019/04/15 13:18:00	BASE	31.41	32	35.29	39	1.4	75	-2.6	30	0	969.1	NA	0.0000	UP	9999	0	0	0	1350
2019/04/15 13:19:00	BASE	31.05	31	35.65	31	1.4	75	-2.6	30	0	969.1	NA	0.0000	UP	9000	0	0	0	1120
2019/04/15 13:20:00	BASE	30.96	32	35.65	31	1.3	75	-2.6	30	0	969.0	NA	0.0000	UP	9000	0	0	0	1180
2019/04/15 13:21:00	BASE	31.66	33	36.63	27	1.3	75	-2.7	30	0	969.0	NA	0.0000	UP	9000	0	0	0	1210
2019/04/15 13:22:00	BASE	30.35	33	36.63	27	1.3	75	-2.7	30	0	969.1	NA	0.0000	UP	9000	0	0	0	1120
2019/04/15 13:23:00	BASE	30.42	35	36.63	27	1.2	75	-2.7	30	0	968.9	NA	0.0000	UP	9000	0	0	0	980
2019/04/15 13:24:00	BASE	32.65	34	38.22	37	1.3	75	-2.6	30	0	968.8	NA	0.0000	UP	9000	0	0	0	1080
2019/04/15 13:25:00	BASE	33.65	32	38.22	37	1.3	75	-2.6	31	0	968.8	NA	0.0000	UP	9000	0	0	0	1180
2019/04/15 13:26:00	BASE	32.70	32	38.22	37	1.4	75	-2.5	31	0	968.9	NA	0.0000	UP	8000	0	0	0	1250
2019/04/15 13:27:00	BASE	31.83	31	38.22	37	1.4	75	-2.5	31	0	968.9	NA	0.0000	UP	8000	0	0	0	1180
2019/04/15 13:28:00	BASE	33.27	32	38.22	37	1.5	75	-2.5	31	0	968.7	NA	0.0000	UP	7000	0	0	0	980
2019/04/15 13:29:00	BASE	34.16	32	38.22	37	1.5	75	-2.5	31	0	968.8	NA	0.0000	UP	6000	5680	0	0	0
2019/04/15 13:30:00	BASE	33.25	31	38.22	37	1.5	75	-2.5	32	0	968.8	NA	0.0000	UP	5000	5580	0	0	0
2019/04/15 13:31:00	BASE	33.13	32	38.22	37	1.4	75	-2.5	33	0	968.7	NA	0.0000	UP	6000	5480	0	0	0
2019/04/15 13:32:00	BASE	32.96	32	38.38	27	1.4	75	-2.5	33	0	968.8	NA	0.0000	UP	7000	0	0	0	1210
2019/04/15 13:33:00	BASE	31.97	34	38.38	27	1.4	76	-2.4	34	0	968.8	NA	0.0000	UP	7000	0	0	0	1210
2019/04/15 13:34:00	BASE	31.94	35	38.38	27	1.3	76	-2.4	34	0	968.7	NA	0.0000	UP	7000	0	0	0	1210
2019/04/15 13:35:00	BASE	30.95	35	38.38	27	1.3	77	-2.3	34	0	968.9	NA	0.0000	UP	7000	7150	0	0	0
2019/04/15 13:36:00	BASE	29.49	35	38.38	27	1.3	77	-2.3	35	0	968.8	NA	0.0000	UP	7000	0	0	0	1250
2019/04/15 13:37:00	BASE	30.92	34	38.38	27	1.3	77	-2.2	35	0	968.7	NA	0.0000	UP	7000	7190	0	0	0
2019/04/15 13:38:00	BASE	32.62	33	38.38	27	1.3	78	-2.2	36	0	968.7	NA	0.0000	UP	7000	7250	0	0	0
2019/04/15 13:39:00	BASE	32.90	33	38.38	27	1.3	78	-2.2	36	0	968.7	NA	0.0000	UP	7000	0	0	0	1080
2019/04/15 13:40:00	BASE	33.41	34	38.38	27	1.3	78	-2.2	37	0	968.6	NA	0.0000	UP	7000	0	0	0	950
2019/04/15 13:41:00	BASE	33.28	33	38.38	27	1.3	78	-2.1	38	0	968.6	NA	0.0000	UP	8000	0	0	0	950
2019/04/15 13:42:00	BASE	33.13	31	37.50	30	1.3	78	-2.1	39	0	968.6	NA	0.0000	UP	9999	0	0	0	950
2019/04/15 13:43:00	BASE	32.81	31	37.50	30	1.4	78	-2.1	39	0	968.7	NA	0.0000	UP	9999	0	0	0	890
2019/04/15 13:44:00	BASE	33.55	32	37.71	31	1.4	78	-2.1	39	0	968.5	NA	0.0000	UP	9999	0	0	0	890
2019/04/15 13:45:00	BASE	35.22	32	37.71	34	1.4	77	-2.1	40	0	968.5	NA	0.0000	UP	9999	0	0	0	1020
2019/04/15 13:46:00	BASE	33.68	33	37.71	34	1.5	77	-2.1	40	0	968.7	NA	0.0000	UP	9999	0	0	0	1020
2019/04/15 13:47:00	BASE	32.75	32	37.91	28	1.5	77	-2.1	41	0	968.5	NA	0.0000	UP	9999	0	0	0	1080
2019/04/15 13:48:00	BASE	32.12	31	37.91	28	1.6	77	-2.1	42	0	968.6	NA	0.0000	UP	9999	0	0	0	1050
2019/04/15 13:49:00	BASE	30.67	30	37.91	28	1.6	76	-2.1	43	0	968.7	NA	0.0000	UP	9999	0	0	0	980
2019/04/15 13:50:00	BASE	30.19	29	37.91	28	1.6	76	-2.1	44	0	968.7	NA	0.0000	UP	9999	0	0	0	1020
2019/04/15 13:51:00	BASE	30.77	30	37.91	28	1.6	76	-2.2	45	0	968.7	NA	0.0000	UP	9999	0	0	0	1150
2019/04/15 13:52:00	BASE	31.74	30	37.91	28	1.6	76	-2.2	47	0	968.7	NA	0.0000	UP	8000	0	0	0	1120
2019/04/15 13:53:00	BASE	30.90	30	37.91	28	1.6	76	-2.1	48	0	968.7	NA	0.0000	UP	8000	0	0	0	890
2019/04/15 13:54:00	BASE	29.45	29	37.91	28	1.6	77	-2.1	49	0	968.8	NA	0.0000	UP	9000	0	0	0	980
2019/04/15 13:55:00	BASE	30.40	29	37.91	28	1.6	77	-2.1	49	0	968.6	NA	0.0000	UP	9000	0	0	0	1080
2019/04/15 13:56:00	BASE	32.68	30	37.91	28	1.6	77	-2.0	50	0	968.6	NA	0.0000	UP	9000	0	0	0	1120
2019/04/15 13:57:00	BASE	32.46	30	37.19	34	1.7	77	-2.0	51	0	968.6	NA	0.0000	UP	9000	0	0	0	750
2019/04/15 13:58:00	BASE	31.90	30	37.25	26	1.7	77	-2.0	52	0	968.6	NA	0.0000	UP	9000	0	0	0	980
2019/04/15 13:59:00	BASE	32.25	28	37.40	25	1.8	76	-2.0	54	0	968.7	NA	0.0000	UP	9000	20770	0	0	0
2019/04/15 14:00:00	BASE	31.75	25	37.40	25	1.8	76	-1.9	56	0	968.6	NA	0.0000	UP	9000	0	0	0	1310
2019/04/15 14:01:00	BASE	31.03	25	37.40	25	1.9	76	-1.9	58	0	968.6	NA	0.0000	UP	9000	0	0	0	1020
2019/04/15 14:02:00	BASE	32.31	26	38.38	33	1.9	76	-1.9	60	0	968.4	NA	0.0000	UP	9000	0	0	0	980
2019/04/15 14:03:00	BASE	33.16	26	38.38	33	1.9	76	-1.9	62	0	968.6	NA	0.0000	UP	9000	0	0	0	690
2019/04/15 14:04:00	BASE	32.19	26	38.38	33	1.9	76	-1.9	64	0	968.6	NA	0.0000	UP	9999	0	0	0	1180
2019/04/15 14:05:00	BASE	32.55	25	38.38	33	1.9	76	-1.9	70	0	968.5	NA	0.0000	UP	9000	0	0	0	1150
2019/04/15 14:06:00	BASE	32.21	24	38.38	33	1.9	76	-1.9	74	0	968.5	NA	0.0000	UP	8000	0	0	0	850
2019/04/15 14:07:00	BASE	32.10	25	38.38	33	1.9	76	-1.9	78	0	968.6	NA	0.0000	UP	9000	5770	0	0	0
2019/04/15 14:08:00	BASE	32.88	24	38.38	33	1.9	76	-1.8	83	0	968.5	NA	0.0000	UP	9000	5680	0	0	0
2019/04/15 14:09:00	BASE	32.22	23	38.38	33	1.9	77	-1.8	85	0	968.5	NA	0.0000	UP	9000	5540	0	0	0
2019/04/15 14:10:00	BASE	31.20	24	38.38	33	1.9	77	-1.7	82	0	968.5	NA	0.0000	UP	9000	5380	0	0	0
2019/04/15 14:11:00	BASE	30.23	26	38.38	33	1.9	78	-1.6	81	0	968.6	NA	0.0000	UP	9000	5480	0	0	0
2019/04/15 14:12:00	BASE	31.99	26	38.27	26	1.9	78	-1.5	77	0	968.4	NA	0.0000	UP	9000	5640	0	0	0
2019/04/15 14:13:00	BASE	33.41	26	38.27	26	1.9	79	-1.4	79	0	968.5	NA	0.0000	UP	9000	5510	0	0	0
2019/04/15 14:14:00	BASE	33.08	26	38.27	26	1.9	79	-1.4	84	0	968.5	NA	0.0000	UP	9000	5480	0	0	0
2019/04/15 14:15:00	BASE	34.54	26	38.27	26	1.9	79	-1.3	79	0	968.3	NA	0.0000	UP	9000	5280	0	0	0
2019/04/15 14:16:00	BASE	35.60	26	38.74	27	2.0	79	-1.3	78	0	968.4	NA	0.0000	UP	9000	5050	0	0	0
2019/04/15 14:17:00	BASE	35.44	25	39.20	23	2.0	79	-1.3	78	0	968.3	NA	0.0000	UP	9000	4990	0	0	0
2019/04/15 14:18:00	BASE	35.13	24	39.20	23	2.0	78	-1.4	80	0	968.4	NA	0.0000	UP	9000	460	4890	0	0
2019/04/15 14:19:00	BASE	33.72	24	39.20	23	2.0	78	-1.4	82	0	968.4	NA	0.0000	UP	9999	4460	0	0	0
2019/04/15 14:20:00	BASE	32.96	26	39.20	23	2.0	78	-1.4	88	0	968.3	NA	0.0000	UP	9999	4430	0	0	0
2019/04/15 14:21:00	BASE	34.12	26	39.20	23	2.0	78	-1.4	91	0	968.3	NA	0.0000	UP	9999	4560	0	0	0
2019/04/15 14:22:00	BASE	33.30	25	39.20	23	2.1	78	-1.4	96	0	968.5	NA	0.0000	UP	9999	4200	0	0	0
2019/04/15 14:23:00	BASE	31.19	25	39.20	23	2.1	78	-1.3	99	0	968.5	NA	0.0000	UP	9999	4040	21460	0	0
2019/04/15 14:24:00	BASE	30.51	23	39.20	23	2.1	78	-1.3	97	0	968.4	NA	0.0000	UP	9999	3670	0	0	0
2019/04/15 14:25:00	BASE	31.75	23	39.20	23	2.1	78	-1.3	97	0	968.2	NA	0.0000	UP	9999	0	0	0	1250
2019/04/15 14:26:00	BASE	32.24	26	39.20	23	2.1	78	-1.3	100	0	968.3	NA	0.0000	UP	9000	0	0	0	1150
2019/04/15 14:27:00	BASE	31.43	26	38.74	27	2.1	78	-1.3	101	0	968.3	NA	0.0000	UP	9000	0	0	0	1020
2019/04/15 14:28:00	BASE	31.45	23	38.74	27	2.1	78	-1.3	101	0	968.3	NA	0.0000	UP	9999	0	0	0	1020
2019/04/15 14:29:00	BASE	29.82	22	38.74	27	2.1	78	-1.3	103	0	968.3	NA	0.0000	UP	9999	0	0	0	690
2019/04/15 14:30:00	BASE	29.82	25	38.74	27	2.1	78	-1.3	105	0	968.2	NA	0.0000	UP	9999	0	0	0	560
2019/04/15 14:31:00	BASE	32.51	28	38.74	27	2.1	78	-1.4	109	0	968.3	NA	0.0000	UP	9999	0	0	0	620
2019/04/15 14:32:00	BASE	33.94	28	38.74	27	2.1	78	-1.4	114	0	968.2	NA	0.0000	UP	9999	0	0	0	620
2019/04/15 14:33:00	BASE	32.29	28	38.74	27	2.0	78	-1.4	122	0	968.4	NA	0.0000	UP	9999	0	0	0	560
2019/04/15 14:34:00	BASE	30.98	28	38.74	27	2.0	78	-1.5	136	0	968.2	NA	0.0000	UP	9999	0	0	0	660
2019/04/15 14:35:00	BASE	31.87	28	38.22	33	2.0	77	-1.5	147	0	968.2	NA	0.0000	UP	9999	0	0	0	620
2019/04/15 14:36:00	BASE	31.73	27	38.22	33	2.0	77	-1.6	151	0	968.2	NA	0.0000	UP	9999	0	0	0	520
2019/04/15 14:37:00	BASE	31.28	26	38.22	33	2.0	77	-1.7	152	0	968.2	NA	0.0000	UP	9999	0	0	0	790
2019/04/15 14:38:00	BASE	32.01	27	39.20	25	2.0	76	-1.7	149	0	968.2	NA	0.0000	UP	9999	6760	0	0	0
2019/04/15 14:39:00	BASE	32.78	27	39.20	25	2.0	76	-1.7	143	0	968.2	NA	0.0000	UP	9999	5050	0	0	0
2019/04/15 14:40:00	BASE	31.38	26	39.20	25	2.0	76	-1.8	134	0	968.3	NA	0.0000	UP	9999	4920	6630	0	0
2019/04/15 14:41:00	BASE	31.08	28	39.20	25	2.0	76	-1.8	122	0	968.3	NA	0.0000	UP	9999	4590	0	0	0
2019/04/15 14:42:00	BASE	31.12	26	39.20	25	1.9	76	-1.8	113	1	968.3	NA	0.0000	UP	9999	4360	0	0	0
2019/04/15 14:43:00	BASE	31.30	25	39.20	25	1.9	76	-1.8	107	0	968.2	NA	0.0000	UP	9999	4000	0	0	0
2019/04/15 14:44:00	BASE	31.02	26	39.20	25	1.9	77	-1.8	102	0	968.3	NA	0.0000	UP	9999	3900	0	0	0
2019/04/15 14:45:00	BASE	29.59	27	39.20	25	1.8	77	-1.8	100	0	968.3	NA	0.0000	UP	9999	3770	0	0	0
2019/04/15 14:46:00	BASE	29.01	28	39.20	25	1.8	77	-1.8	99	0	968.4	NA	0.0000	UP	9999	0	0	0	460
2019/04/15 14:47:00	BASE	29.90	26	39.20	25	1.8	77	-1.8	98	0	968.3	NA	0.0000	UP	9999	21690	0	0	0
2019/04/15 14:48:00	BASE	30.24	27	38.22	31	1.8	77	-1.8	98	0	968.3	NA	0.0000	UP	9999	7090	0	0	0
2019/04/15 14:49:00	BASE	29.99	28	37.40	27	1.8	77	-1.7	97	0	968.3	NA	0.0000	UP	9999	7220	0	0	0
2019/04/15 14:50:00	BASE	29.40	27	37.40	27	1.8	78	-1.7	95	0	968.4	NA	0.0000	UP	9999	5350	0	0	0
2019/04/15 14:51:00	BASE	28.18	23	37.40	27	1.8	78	-1.7	93	0	968.4	NA	0.0000	UP	9999	7120	0	0	0
2019/04/15 14:52:00	BASE	30.09	23	37.40	27	1.8	78	-1.6	90	0	968.3	NA	0.0000	UP	9999	17260	0	0	0
2019/04/15 14:53:00	BASE	32.03	25	38.43	28	1.8	78	-1.6	87	0	968.2	NA	0.0000	UP	9999	0	0	0	560
2019/04/15 14:54:00	BASE	31.83	26	38.43	28	1.8	78	-1.5	84	0	968.2	NA	0.0000	UP	9999	6300	0	0	0
2019/04/15 14:55:00	BASE	31.07	26	38.43	28	1.8	79	-1.5	81	0	968.3	NA	0.0000	UP	9999	6170	0	0	0
2019/04/15 14:56:00	BASE	30.72	26	38.43	28	1.8	79	-1.5	78	0	968.3	NA	0.0000	UP	9999	0	0	0	560
2019/04/15 14:57:00	BASE	31.08	26	38.43	28	1.8	79	-1.4	75	0	968.3	NA	0.0000	UP	9999	0	0	0	690
2019/04/15 14:58:00	BASE	31.12	25	38.43	28	1.9	79	-1.4	73	0	968.3	NA	0.0000	UP	9999	0	0	0	360
2019/04/15 14:59:00	BASE	31.11	25	38.43	28	1.9	79	-1.4	73	0	968.4	NA	0.0000	UP	9999	6230	0	0	0
2019/04/15 15:00:00	BASE	30.25	24	38.43	28	1.9	79	-1.4	73	0	968.4	NA	0.0000	UP	9999	0	0	0	460
2019/04/15 15:01:00	BASE	30.47	24	38.74	26	1.9	79	-1.4	74	0	968.3	NA	0.0000	UP	9999	0	0	0	390
2019/04/15 15:02:00	BASE	31.20	25	38.74	26	1.9	79	-1.4	74	0	968.4	NA	0.0000	UP	9999	0	0	0	390
2019/04/15 15:03:00	BASE	30.61	23	38.74	26	1.9	79	-1.4	74	0	968.4	NA	0.0000	UP	9999	5580	0	0	0
2019/04/15 15:04:00	BASE	30.89	24	38.74	26	1.9	79	-1.4	72	0	968.3	NA	0.0000	UP	9999	5640	0	0	0
2019/04/15 15:05:00	BASE	31.30	26	38.74	26	1.8	79	-1.4	73	0	968.4	NA	0.0000	UP	9999	0	0	0	460
2019/04/15 15:06:00	BASE	29.70	26	38.74	26	1.8	79	-1.4	72	0	968.5	NA	0.0000	UP	9999	5540	0	0	0
2019/04/15 15:07:00	BASE	27.17	26	38.74	26	1.8	79	-1.4	72	0	968.5	NA	0.0000	UP	9999	5970	0	0	0
2019/04/15 15:08:00	BASE	27.97	26	38.74	26	1.8	79	-1.4	72	0	968.4	NA	0.0000	UP	9999	0	0	0	360
2019/04/15 15:09:00	BASE	29.82	24	38.74	26	1.8	79	-1.4	73	0	968.4	NA	0.0000	UP	9999	5450	0	0	0
2019/04/15 15:10:00	BASE	29.90	24	38.74	26	1.8	79	-1.5	74	0	968.5	NA	0.0000	UP	9999	5220	0	0	0
2019/04/15 15:11:00	BASE	28.61	26	38.02	25	1.8	79	-1.4	74	0	968.6	NA	0.0000	UP	9999	6040	0	0	0
2019/04/15 15:12:00	BASE	28.03	26	38.02	25	1.8	79	-1.4	75	0	968.6	NA	0.0000	UP	9999	6230	0	0	0
2019/04/15 15:13:00	BASE	27.02	25	38.02	25	1.9	79	-1.4	75	0	968.9	NA	0.0000	UP	9999	6300	0	0	0
2019/04/15 15:14:00	BASE	25.89	27	38.02	25	1.9	79	-1.4	75	0	968.9	NA	0.0000	UP	9999	7020	0	0	0
2019/04/15 15:15:00	BASE	25.81	27	38.02	25	2.0	79	-1.3	75	0	969.1	NA	0.0000		9999	6270	0	0	0
2019/04/15 15:16:00	BASE	24.52	27	38.02	25	2.0	78	-1.4	76	0	969.2	NA	0.0000		9999	6400	0	0	0
2019/04/15 15:17:00	BASE	24.13	27	38.02	25	2.1	78	-1.4	77	0	969.3	NA	0.0000		9999	5740	0	0	0
2019/04/15 15:18:00	BASE	22.81	27	38.02	25	2.1	77	-1.4	78	0	969.6	NA	0.0000		9999	6140	0	0	0
2019/04/15 15:19:00	BASE	21.00	27	38.02	25	2.2	77	-1.4	79	0	969.7	NA	0.0000		9999	6000	0	0	0
2019/04/15 15:20:00	BASE	19.24	27	33.49	22	2.2	77	-1.4	80	0	969.8	NA	0.0000		9999	6140	0	0	0
2019/04/15 15:21:00	BASE	17.77	23	33.49	22	2.1	77	-1.5	83	0	969.8	NA	0.0000		9999	6170	0	0	0
2019/04/15 15:22:00	BASE	16.74	24	31.18	31	2.1	77	-1.5	86	0	969.9	NA	0.0000		9999	5090	0	0	0
2019/04/15 15:23:01	BASE	17.15	33	31.18	31	2.1	77	-1.5	87	0	969.9	NA	0.0000		9999	5050	0	0	0
2019/04/15 15:24:00	BASE	15.39	37	29.48	31	2.0	77	-1.5	87	0	970.0	NA	0.0000	UP	9999	4920	0	0	0
2019/04/15 15:25:00	BASE	11.60	46	29.48	31	2.0	78	-1.5	84	0	970.1	NA	0.0000	UP	9999	4860	0	0	0
2019/04/15 15:26:00	BASE	11.36	60	26.65	28	2.0	78	-1.5	80	0	970.3	NA	0.0000	UP	9999	4920	0	0	0
2019/04/15 15:27:00	BASE	9.15	58	24.33	19	2.0	78	-1.5	80	0	970.3	NA	0.0000	UP	9999	5020	0	0	0
2019/04/15 15:28:00	BASE	6.27	53	24.33	19	2.0	78	-1.4	81	0	970.1	NA	0.0000	UP	9999	5050	0	0	0
2019/04/15 15:29:00	BASE	4.06	73	23.30	28	1.9	78	-1.4	80	0	970.1	NA	0.0000	UP	9999	4790	0	0	0
2019/04/15 15:30:00	BASE	4.72	58	23.30	28	1.9	79	-1.4	79	0	970.1	NA	0.0000	UP	9999	4860	0	0	0
2019/04/15 15:31:00	BASE	8.93	55	23.30	28	1.9	79	-1.4	78	0	970.2	NA	0.0000	UP	9999	4860	0	0	0
2019/04/15 15:32:00	BASE	9.24	75	23.30	28	1.9	79	-1.4	75	0	970.4	NA	0.0000	UP	9999	4720	0	0	0
2019/04/15 15:33:00	BASE	5.35	78	18.57	32	1.9	79	-1.4	71	0	970.4	NA	0.0000	UP	9999	4760	0	0	0
2019/04/15 15:34:00	BASE	4.74	73	16.05	34	1.9	79	-1.4	69	0	970.4	NA	0.0000		9999	4690	0	0	0
2019/04/15 15:35:00	BASE	5.46	104	16.05	34	1.9	79	-1.4	66	0	970.6	NA	0.0000		9999	4590	0	0	0
2019/04/15 15:36:00	BASE	5.39	151	16.05	34	1.8	79	-1.5	62	0	970.4	NA	0.0000		9999	4630	0	0	0
2019/04/15 15:37:00	BASE	4.40	104	16.05	34	1.7	79	-1.6	60	0	970.5	NA	0.0000		9999	4790	0	0	0
2019/04/15 15:38:00	BASE	3.45	81	16.05	34	1.6	79	-1.6	59	0	970.6	NA	0.0000		9999	4690	0	0	0
2019/04/15 15:39:00	BASE	6.60	120	16.05	34	1.5	79	-1.8	58	0	970.6	NA	0.0000		9999	4760	0	0	0
2019/04/15 15:40:00	BASE	8.99	117	14.71	48	1.3	79	-1.9	58	0	970.5	NA	0.0000		9999	4630	0	0	0
2019/04/15 15:41:00	BASE	9.89	128	12.96	130	1.3	79	-2.0	57	0	970.4	NA	0.0000		9999	4530	0	0	0
2019/04/15 15:42:00	BASE	11.41	129	15.23	135	1.1	79	-2.1	57	0	970.5	NA	0.0000		9999	4530	0	0	0
2019/04/15 15:43:00	BASE	12.44	135	15.79	131	1.0	79	-2.3	57	0	970.4	NA	0.0000		9999	4530	0	0	0
2019/04/15 15:44:00	BASE	11.53	133	15.79	131	0.8	79	-2.5	57	0	970.5	NA	0.0000		9999	4400	0	0	0
2019/04/15 15:45:00	BASE	9.61	126	15.79	131	0.7	79	-2.5	55	0	970.4	NA	0.0000		9999	4230	0	0	0
2019/04/15 15:46:00	BASE	8.70	128	15.79	131	0.7	79	-2.5	53	0	970.4	NA	0.0000		9999	4040	0	0	0
2019/04/15 15:47:00	BASE	7.65	124	15.79	131	0.7	80	-2.4	52	0	970.6	NA	0.0000		9999	4040	0	0	0
2019/04/15 15:48:00	BASE	8.60	126	15.79	131	0.7	80	-2.3	50	0	970.6	NA	0.0000		9999	3970	0	0	0
2019/04/15 15:49:00	BASE	13.16	132	18.98	136	0.8	80	-2.3	48	0	970.4	NA	0.0000		9999	4070	0	0	0
2019/04/15 15:50:00	BASE	17.33	139	20.83	146	0.8	80	-2.3	47	0	970.0	NA	0.0000	SQ	9999	3970	0	0	0
2019/04/15 15:51:00	BASE	16.46	149	20.83	146	0.7	80	-2.3	46	0	970.2	NA	0.0000	SQ	9999	3740	0	0	0
2019/04/15 15:52:00	BASE	11.74	142	20.83	146	0.7	80	-2.4	45	0	970.4	NA	0.0000		9999	3770	0	0	0
2019/04/15 15:53:00	BASE	11.01	118	20.83	146	0.6	80	-2.4	45	0	970.5	NA	0.0000		9999	3710	0	0	0
2019/04/15 15:54:00	BASE	15.58	111	21.50	114	0.7	80	-2.3	45	0	970.2	NA	0.0000		9999	3540	0	0	0
2019/04/15 15:55:00	BASE	17.90	128	21.50	114	0.8	80	-2.3	44	0	970.0	NA	0.0000		9999	3380	0	0	0
2019/04/15 15:56:00	BASE	16.43	141	21.50	114	0.8	80	-2.3	45	0	970.0	NA	0.0000		9999	3350	0	0	0
2019/04/15 15:57:00	BASE	11.97	126	21.50	114	0.8	80	-2.3	46	0	970.4	NA	0.0000		9999	3410	0	0	0
2019/04/15 15:58:00	BASE	7.80	80	21.50	114	0.8	80	-2.3	46	0	970.5	NA	0.0000		9999	3310	0	0	0
2019/04/15 15:59:00	BASE	8.45	68	21.50	114	0.9	80	-2.2	45	0	970.5	NA	0.0000		9999	3380	0	0	0
2019/04/15 16:00:00	BASE	11.02	107	21.50	114	1.0	80	-2.2	45	0	970.3	NA	0.0000		9999	3050	3670	0	0
2019/04/15 16:01:00	BASE	12.81	126	21.50	114	1.1	80	-2.1	45	0	970.4	NA	0.0000		9999	3350	0	0	0
2019/04/15 16:02:00	BASE	12.44	108	21.50	114	1.2	79	-2.0	44	0	970.5	NA	0.0000		9999	3120	0	0	0
2019/04/15 16:03:00	BASE	12.93	110	21.50	114	1.3	79	-2.0	45	0	970.5	NA	0.0000		9999	3080	0	0	0
2019/04/15 16:04:00	BASE	14.12	128	20.11	145	1.3	78	-2.1	44	0	970.4	NA	0.0000		9999	3080	0	0	0
2019/04/15 16:05:00	BASE	14.00	130	20.11	145	1.1	78	-2.3	44	0	970.4	NA	0.0000		9999	3080	0	0	0
2019/04/15 16:06:00	BASE	13.11	123	17.70	128	1.0	78	-2.4	45	0	970.4	NA	0.0000		9999	3050	0	0	0
2019/04/15 16:07:00	BASE	14.15	116	18.31	112	0.9	78	-2.5	46	0	970.4	NA	0.0000		9999	3050	0	0	0
2019/04/15 16:08:00	BASE	15.27	110	18.31	112	0.8	79	-2.4	47	0	970.5	NA	0.0000		9999	3050	22340	0	0
2019/04/15 16:09:00	BASE	14.15	117	18.31	112	0.8	80	-2.3	46	0	970.5	NA	0.0000		9999	3050	0	0	0
2019/04/15 16:10:00	BASE	14.94	121	18.57	111	0.8	80	-2.2	45	0	970.4	NA	0.0000		9999	3220	0	0	0
2019/04/15 16:11:00	BASE	14.63	116	18.57	111	0.8	80	-2.2	44	0	970.4	NA	0.0000		9999	3510	0	0	0
2019/04/15 16:12:00	BASE	13.02	118	18.57	111	0.8	80	-2.2	44	0	970.4	NA	0.0000		9999	3510	0	0	0
2019/04/15 16:13:00	BASE	12.78	125	18.57	111	0.7	80	-2.3	44	0	970.5	NA	0.0000		9999	3740	0	0	0
2019/04/15 16:14:00	BASE	12.17	126	18.57	111	0.7	81	-2.3	43	0	970.5	NA	0.0000		9999	3870	0	0	0
2019/04/15 16:15:00	BASE	10.64	112	18.57	111	0.7	81	-2.1	42	0	970.5	NA	0.0000		9999	3540	0	0	0
2019/04/15 16:16:00	BASE	9.40	88	18.57	111	0.8	82	-1.9	43	0	970.6	NA	0.0000		9999	3580	0	0	0
2019/04/15 16:17:00	BASE	8.68	79	18.57	111	1.0	82	-1.7	45	0	970.6	NA	0.0000		9999	3580	0	0	0
2019/04/15 16:18:00	BASE	8.87	78	18.57	111	1.2	83	-1.5	46	0	970.6	NA	0.0000		9999	3610	0	0	0
2019/04/15 16:19:00	BASE	10.01	63	18.57	111	1.4	83	-1.2	46	0	970.6	NA	0.0000		9999	3580	4200	0	0
2019/04/15 16:20:00	BASE	9.36	49	17.18	103	1.6	83	-1.0	47	0	970.7	NA	0.0000		9999	4130	0	0	0
2019/04/15 16:21:00	BASE	8.56	32	15.64	121	1.7	83	-0.9	46	0	970.7	NA	0.0000		9999	3480	4270	0	0
2019/04/15 16:22:00	BASE	9.42	12	14.51	111	1.8	83	-0.8	46	0	970.6	NA	0.0000		9999	3450	0	0	0
2019/04/15 16:23:00	BASE	10.37	11	14.71	28	2.0	83	-0.6	46	0	970.6	NA	0.0000		9999	3510	0	0	0
2019/04/15 16:24:00	BASE	11.35	5	14.71	28	2.0	83	-0.5	45	0	970.7	NA	0.0000		9999	3940	0	0	0
2019/04/15 16:25:00	BASE	9.61	360	14.71	28	2.0	83	-0.5	45	0	970.7	NA	0.0000		9999	4000	0	0	0
2019/04/15 16:26:00	BASE	9.09	18	14.71	28	2.1	83	-0.5	45	0	970.7	NA	0.0000		9999	4170	0	0	0
2019/04/15 16:27:00	BASE	11.09	27	14.71	28	2.1	83	-0.5	45	0	970.8	NA	0.0000		9999	4100	0	0	0
2019/04/15 16:28:00	BASE	9.60	33	14.71	28	2.1	83	-0.5	45	0	970.8	NA	0.0000		9999	4070	0	0	0
2019/04/15 16:29:00	BASE	7.28	47	14.71	28	2.1	83	-0.5	44	0	970.8	NA	0.0000		9999	3740	0	0	0
2019/04/15 16:30:00	BASE	5.87	80	14.71	28	2.0	83	-0.6	44	0	970.9	NA	0.0000		9999	3770	0	0	0
2019/04/15 16:31:00	BASE	5.95	83	14.71	28	1.9	83	-0.7	43	0	971.0	NA	0.0000		9999	3770	0	0	0
2019/04/15 16:32:00	BASE	4.93	51	14.71	28	1.8	83	-0.8	42	0	970.9	NA	0.0000		9999	3710	0	0	0
2019/04/15 16:33:00	BASE	2.39	312	13.99	2	1.6	83	-0.9	42	0	970.8	NA	0.0000		9999	3480	0	0	0
2019/04/15 16:34:00	BASE	1.80	256	13.38	29	1.5	83	-1.1	42	0	970.8	NA	0.0000		9999	3510	4330	0	0
2019/04/15 16:35:00	BASE	3.34	247	13.38	29	1.3	83	-1.2	43	0	970.8	NA	0.0000		9999	4100	0	0	0
2019/04/15 16:36:00	BASE	5.08	265	12.81	22	1.2	83	-1.4	45	0	970.9	NA	0.0000		9999	4040	0	0	0
2019/04/15 16:37:00	BASE	7.11	324	13.58	10	1.2	84	-1.3	47	0	970.8	NA	0.0000		9999	4130	4860	0	0
2019/04/15 16:38:00	BASE	7.98	23	14.25	35	1.2	84	-1.2	49	0	970.8	NA	0.0000		9999	3900	0	0	0
2019/04/15 16:39:00	BASE	4.79	37	14.25	35	1.3	84	-1.1	50	0	970.8	NA	0.0000	UP	9999	3840	0	0	0
2019/04/15 16:40:00	BASE	2.58	36	14.25	35	1.5	84	-0.9	50	0	970.8	NA	0.0000	UP	9999	4330	0	0	0
2019/04/15 16:41:00	BASE	2.98	57	14.25	35	1.7	84	-0.6	50	0	970.8	NA	0.0000	UP	9999	4100	4760	0	0
2019/04/15 16:42:00	BASE	3.33	34	14.25	35	1.8	84	-0.6	49	0	970.8	NA	0.0000	UP	9999	3670	0	0	0
2019/04/15 16:43:00	BASE	5.66	358	14.25	35	1.9	84	-0.6	50	0	970.8	NA	0.0000	UP	9999	4000	0	0	0
2019/04/15 16:44:00	BASE	8.12	22	14.25	35	1.9	84	-0.5	52	0	970.8	NA	0.0000	UP	9999	4230	0	0	0
2019/04/15 16:45:00	BASE	6.98	53	14.25	35	1.9	84	-0.4	54	0	970.8	NA	0.0000	UP	9999	3810	0	0	0
2019/04/15 16:46:00	BASE	4.56	64	14.25	35	1.9	84	-0.4	56	0	970.8	NA	0.0000	UP	9999	4100	4950	0	0
2019/04/15 16:47:00	BASE	4.85	45	14.25	35	1.9	84	-0.4	57	1	970.8	NA	0.0000	UP	9999	4530	0	0	0
2019/04/15 16:48:00	BASE	7.78	32	12.14	23	2.0	85	-0.4	58	0	970.8	NA	0.0000	UP	9999	4790	0	0	0
2019/04/15 16:49:00	BASE	8.56	29	12.14	23	2.0	85	-0.4	59	0	970.9	NA	0.0000	UP	9999	4660	0	0	0
2019/04/15 16:50:00	BASE	7.59	37	12.14	23	2.0	85	-0.4	59	0	970.9	NA	0.0000	UP	9999	4660	0	0	0
2019/04/15 16:51:00	BASE	7.20	38	12.14	23	2.0	85	-0.3	58	0	970.9	NA	0.0000	UP	9999	4630	0	0	0
2019/04/15 16:52:00	BASE	6.81	33	12.14	23	2.0	85	-0.3	56	0	970.8	NA	0.0000	UP	9000	4560	0	0	0
2019/04/15 16:53:00	BASE	7.83	30	12.81	16	2.0	85	-0.3	54	0	970.8	NA	0.0000	UP	9999	4460	0	0	0
2019/04/15 16:54:00	BASE	8.57	20	12.81	16	2.0	85	-0.3	53	0	970.9	NA	0.0000	UP	9999	4170	0	0	0
2019/04/15 16:55:00	BASE	8.15	14	12.81	16	2.0	85	-0.3	54	0	970.9	NA	0.0000	UP	9999	4490	0	0	0
2019/04/15 16:56:00	BASE	8.64	20	12.81	16	1.9	85	-0.3	54	0	970.9	NA	0.0000	UP	9999	4330	0	0	0
2019/04/15 16:57:00	BASE	9.85	16	13.58	14	1.9	85	-0.3	55	0	970.8	NA	0.0000	UP	9999	4270	0	0	0
2019/04/15 16:58:00	BASE	10.49	10	13.58	14	1.9	86	-0.3	55	0	970.9	NA	0.0000	UP	9999	4300	0	0	0
2019/04/15 16:59:00	BASE	10.10	13	13.58	14	1.8	86	-0.3	54	0	970.9	NA	0.0000	UP	9999	4270	0	0	0
2019/04/15 17:00:00	BASE	9.60	15	13.58	14	1.8	86	-0.3	53	0	970.9	NA	0.0000	UP	9999	4270	0	0	0
2019/04/15 17:01:00	BASE	9.96	19	13.58	20	1.8	86	-0.3	51	0	970.9	NA	0.0000	UP	9999	4170	0	0	0
2019/04/15 17:02:00	BASE	10.54	16	13.58	20	1.8	86	-0.3	50	0	970.9	NA	0.0000	UP	9999	3940	0	0	0
2019/04/15 17:03:00	BASE	11.13	9	13.58	20	1.7	86	-0.3	50	0	970.9	NA	0.0000	UP	9999	4130	0	0	0
2019/04/15 17:04:00	BASE	11.88	6	13.58	20	1.7	86	-0.3	50	0	970.9	NA	0.0000	UP	9999	4070	0	0	0
2019/04/15 17:05:00	BASE	11.45	360	13.58	20	1.7	87	-0.3	49	0	970.9	NA	0.0000	UP	9999	4100	0	0	0
2019/04/15 17:06:00	BASE	11.85	354	16.20	339	1.6	87	-0.4	48	0	970.8	NA	0.0000	UP	9999	3810	22080	0	0
2019/04/15 17:07:00	BASE	13.04	342	16.20	339	1.6	87	-0.3	47	0	970.8	NA	0.0000	UP	9999	3810	0	0	0
2019/04/15 17:08:00	BASE	13.22	330	16.20	339	1.5	87	-0.3	46	0	970.9	NA	0.0000	UP	9999	3840	0	0	0
2019/04/15 17:09:00	BASE	11.24	313	16.20	339	1.5	88	-0.3	46	0	971.1	NA	0.0000	UP	9999	4130	0	0	0
2019/04/15 17:10:00	BASE	7.72	293	16.20	339	1.4	88	-0.4	45	0	971.2	NA	0.0000		9999	3810	0	0	0
2019/04/15 17:11:00	BASE	6.60	275	16.20	339	1.3	88	-0.5	44	0	971.2	NA	0.0000		9999	3810	0	0	0
2019/04/15 17:12:00	BASE	7.81	261	16.20	339	1.2	87	-0.7	44	0	971.3	NA	0.0000	UP	9999	3450	0	0	0
2019/04/15 17:13:00	BASE	9.54	254	16.20	339	1.1	87	-0.8	44	0	971.3	NA	0.0000	UP	9999	3250	0	0	0
2019/04/15 17:14:00	BASE	11.05	255	16.20	339	0.9	87	-0.9	43	0	971.3	NA	0.0000		9999	1940	3410	0	0
2019/04/15 17:15:00	BASE	11.58	273	16.20	339	0.9	87	-1.0	44	0	971.3	NA	0.0000		9999	2030	3450	0	0
2019/04/15 17:16:00	BASE	14.01	289	21.25	299	0.8	88	-1.0	44	0	971.2	NA	0.0000		9999	3480	0	0	0
2019/04/15 17:17:00	BASE	17.01	294	21.25	299	0.7	89	-1.0	44	0	971.2	NA	0.0000		9999	1940	3510	0	0
2019/04/15 17:18:00	BASE	17.67	299	21.25	299	0.6	90	-0.9	42	0	971.2	NA	0.0000		9999	1210	1840	0	0
2019/04/15 17:19:00	BASE	17.38	307	21.25	299	0.4	91	-0.8	34	0	971.3	NA	0.0000		9999	1120	1970	0	0
2019/04/15 17:20:00	BASE	16.66	315	21.25	299	0.3	93	-0.7	27	0	971.3	NA	0.0000		9999	920	0	0	0
2019/04/15 17:21:00	BASE	15.72	320	21.25	299	0.2	94	-0.6	24	0	971.3	NA	0.0000		9000	360	0	0	0
2019/04/15 17:22:00	BASE	14.26	323	21.25	299	0.2	96	-0.5	22	0	971.3	NA	0.0000		9000	390	0	0	0
2019/04/15 17:23:00	BASE	13.38	327	21.25	299	0.1	97	-0.3	21	0	971.3	NA	0.0000	UP	8000	360	0	0	0
2019/04/15 17:24:00	BASE	12.76	330	21.25	299	0.1	98	-0.2	20	0	971.3	NA	0.0000	UP BR	6000	0	0	0	1380
2019/04/15 17:25:00	BASE	11.78	321	21.25	299	0.1	99	-0.1	21	0	971.3	NA	0.0000	UP BR	4600	0	0	0	1510
2019/04/15 17:26:00	BASE	11.19	314	19.81	311	0.1	99	-0.0	24	1	971.3	NA	0.0000	UP BR	3500	0	0	0	1740
2019/04/15 17:27:00	BASE	10.60	317	19.81	311	0.0	100	0.0	27	1	971.2	NA	0.0000	UP BR	3500	0	0	0	2330
2019/04/15 17:28:00	BASE	9.52	318	18.42	318	0.0	100	0.0	32	1	971.2	NA	0.0000	UP BR	3400	0	0	0	2030
2019/04/15 17:29:00	BASE	8.88	314	18.42	318	-0.0	100	-0.0	36	1	971.2	NA	0.0000	UP BR	4000	0	0	0	2170
2019/04/15 17:30:00	BASE	8.69	313	16.72	318	-0.0	100	-0.0	38	0	971.2	NA	0.0000	UP BR	5000	260	0	0	0
2019/04/15 17:31:00	BASE	9.28	313	14.97	320	-0.0	100	-0.0	39	0	971.2	NA	0.0000	UP BR	4000	0	0	0	2300
2019/04/15 17:32:00	BASE	9.59	314	14.15	327	-0.0	100	-0.0	40	0	971.2	NA	0.0000	UP BR	3400	0	0	0	2130
2019/04/15 17:33:00	BASE	9.07	312	13.17	324	-0.1	100	-0.1	41	0	971.2	NA	0.0000	UP BR	3900	0	0	0	2560
2019/04/15 17:34:00	BASE	9.04	308	12.14	317	-0.1	100	-0.1	40	0	971.2	NA	0.0000	UP BR	4100	0	0	0	2590
2019/04/15 17:35:00	BASE	9.29	309	11.99	312	-0.1	100	-0.1	38	0	971.2	NA	0.0000	UP BR	4200	0	0	0	2400
2019/04/15 17:36:00	BASE	9.83	308	11.06	307	-0.1	100	-0.1	36	1	971.2	NA	0.0000	UP BR	4500	0	0	0	2490
2019/04/15 17:37:00	BASE	9.66	303	11.06	307	-0.1	100	-0.1	37	0	971.2	NA	0.0000	UP BR	4500	260	0	0	0
2019/04/15 17:38:00	BASE	9.09	299	11.06	307	-0.1	100	-0.1	35	0	971.2	NA	0.0000	UP BR	4500	0	0	0	3050
2019/04/15 17:39:00	BASE	8.30	292	11.06	307	-0.1	100	-0.1	35	0	971.2	NA	0.0000	UP BR	2300	0	0	0	3250
2019/04/15 17:40:00	BASE	7.64	284	11.06	307	-0.1	100	-0.1	35	0	971.2	NA	0.0000	UP BR	1600	0	0	0	3410
2019/04/15 17:41:00	BASE	8.14	286	11.06	307	-0.1	100	-0.1	33	0	971.2	NA	0.0000	UP BR	1900	0	0	0	3540
2019/04/15 17:42:00	BASE	8.84	291	11.06	307	-0.1	100	-0.1	31	0	971.2	NA	0.0000	UP BR	2600	0	0	0	2990
2019/04/15 17:43:00	BASE	9.34	297	11.06	307	-0.1	100	-0.1	34	0	971.2	NA	0.0000	UP BR	3500	0	0	0	950
2019/04/15 17:44:00	BASE	11.25	305	13.94	313	-0.1	100	-0.1	34	0	971.2	NA	0.0000	UP BR	3900	300	0	0	0
2019/04/15 17:45:00	BASE	12.48	300	14.04	284	-0.2	100	-0.2	33	0	971.2	NA	0.0000	UP BR	3900	0	0	0	1350
2019/04/15 17:46:00	BASE	12.11	285	15.18	278	-0.2	100	-0.2	35	0	971.2	NA	0.0000	UP BR	3900	300	0	0	0
2019/04/15 17:47:00	BASE	11.52	278	15.18	278	-0.3	100	-0.3	35	0	971.3	NA	0.0000	UP BR	3800	0	0	0	1940
2019/04/15 17:48:00	BASE	11.94	276	15.18	278	-0.3	100	-0.3	37	0	971.4	NA	0.0000	UP BR	3800	300	0	0	0
2019/04/15 17:49:00	BASE	12.18	272	15.18	278	-0.4	100	-0.4	37	0	971.4	NA	0.0000	UP BR	4200	260	0	0	0
2019/04/15 17:50:00	BASE	11.44	272	15.18	278	-0.4	100	-0.4	38	0	971.4	NA	0.0000	UP BR	4400	300	0	0	0
2019/04/15 17:51:00	BASE	11.41	274	15.18	278	-0.4	100	-0.4	39	0	971.5	NA	0.0000	UP BR	4400	300	0	0	0
2019/04/15 17:52:00	BASE	11.39	273	15.18	278	-0.4	100	-0.4	41	0	971.5	NA	0.0000	UP BR	4400	300	0	0	0
2019/04/15 17:53:00	BASE	11.16	273	15.18	278	-0.5	100	-0.5	44	0	971.5	NA	0.0000	UP BR	4400	330	0	0	0
2019/04/15 17:54:00	BASE	10.63	270	15.18	278	-0.5	100	-0.5	44	0	971.5	NA	0.0000	UP BR	4400	260	0	0	0
2019/04/15 17:55:00	BASE	10.84	265	15.18	278	-0.6	100	-0.6	44	0	971.5	NA	0.0000	UP BR	3200	0	0	0	3900
2019/04/15 17:56:00	BASE	11.28	268	14.92	272	-0.6	100	-0.6	45	0	971.4	NA	0.0000	UP BR	3100	0	0	0	3870
2019/04/15 17:57:00	BASE	11.65	273	14.92	279	-0.6	100	-0.6	49	0	971.5	NA	0.0000	UP BR	3300	0	0	0	3870
2019/04/15 17:58:00	BASE	12.09	278	14.92	279	-0.6	100	-0.6	55	0	971.5	NA	0.0000	UP BR	3800	300	0	0	0
2019/04/15 17:59:00	BASE	12.46	281	14.92	279	-0.6	100	-0.6	56	0	971.5	NA	0.0000	UP BR	4400	360	2400	0	0
2019/04/15 18:00:00	BASE	12.33	282	14.92	279	-0.6	100	-0.6	54	0	971.5	NA	0.0000	UP BR	4400	390	0	0	0
2019/04/15 18:01:00	BASE	11.79	282	14.92	279	-0.5	100	-0.5	54	0	971.6	NA	0.0000	UP BR	4400	390	2890	0	0
2019/04/15 18:02:00	BASE	11.70	280	14.92	279	-0.5	100	-0.5	55	0	971.6	NA	0.0000	UP BR	4400	2230	2760	0	0
2019/04/15 18:03:00	BASE	11.21	274	14.92	279	-0.5	100	-0.5	56	0	971.6	NA	0.0000	UP BR	4400	2400	0	0	0
2019/04/15 18:04:00	BASE	10.38	267	14.92	279	-0.4	100	-0.4	57	0	971.7	NA	0.0000	UP BR	4400	2360	0	0	0
2019/04/15 18:05:00	BASE	9.80	266	14.92	279	-0.4	100	-0.4	57	0	971.7	NA	0.0000	UP BR	4400	2530	2990	0	0
2019/04/15 18:06:00	BASE	9.19	270	14.92	279	-0.4	100	-0.4	57	0	971.7	NA	0.0000	UP BR	4400	2430	0	0	0
2019/04/15 18:07:00	BASE	8.83	275	14.40	282	-0.4	100	-0.4	56	0	971.7	NA	0.0000	BR	6000	2530	0	0	0
2019/04/15 18:08:00	BASE	9.43	276	14.35	268	-0.4	100	-0.4	55	0	971.7	NA	0.0000	BR	9999	2530	0	0	0
2019/04/15 18:09:01	BASE	9.46	274	13.84	274	-0.4	100	-0.4	56	0	971.7	NA	0.0000	BR	9999	2400	0	0	0
2019/04/15 18:10:01	BASE	8.47	269	13.84	274	-0.4	100	-0.4	56	0	971.7	NA	0.0000	BR	9999	2760	0	0	0
2019/04/15 18:11:01	BASE	8.83	260	13.84	274	-0.4	100	-0.4	55	0	971.7	NA	0.0000	BR	9999	2720	0	0	0
2019/04/15 18:12:01	BASE	10.35	253	12.96	268	-0.4	100	-0.4	54	0	971.7	NA	0.0000	BR	9999	2660	0	0	0
2019/04/15 18:13:01	BASE	10.84	254	12.71	245	-0.3	100	-0.3	51	0	971.7	NA	0.0000	BR	9999	2690	0	0	0
2019/04/15 18:14:01	BASE	9.68	258	12.71	245	-0.3	100	-0.3	49	0	971.7	NA	0.0000	BR	9999	2000	0	0	0
2019/04/15 18:15:01	BASE	9.19	258	12.71	245	-0.3	100	-0.3	47	0	971.7	NA	0.0000	BR	9999	1940	0	0	0
2019/04/15 18:16:01	BASE	9.04	261	12.71	245	-0.3	100	-0.3	45	0	971.7	NA	0.0000		9999	1900	0	0	0
2019/04/15 18:17:01	BASE	7.83	266	12.71	245	-0.3	100	-0.3	43	0	971.7	NA	0.0000		9999	1740	0	0	0
2019/04/15 18:18:01	BASE	6.98	269	12.71	245	-0.3	100	-0.3	40	0	971.8	NA	0.0000		9999	1640	0	0	0
2019/04/15 18:19:01	BASE	6.67	274	12.71	245	-0.3	100	-0.3	37	0	971.8	NA	0.0000		9999	1610	0	0	0
2019/04/15 18:20:01	BASE	6.87	272	12.71	245	-0.3	100	-0.3	38	0	971.8	NA	0.0000		9999	1540	0	0	0
2019/04/15 18:21:01	BASE	7.27	273	12.71	245	-0.2	100	-0.2	40	0	971.8	NA	0.0000		9999	1480	0	0	0
2019/04/15 18:22:01	BASE	7.13	278	12.04	253	-0.2	100	-0.2	43	0	971.8	NA	0.0000		9999	1380	0	0	0
2019/04/15 18:23:01	BASE	6.85	281	10.80	272	-0.2	100	-0.2	46	0	971.8	NA	0.0000		9999	1380	0	0	0
2019/04/15 18:24:01	BASE	7.19	282	10.65	247	-0.2	100	-0.2	49	0	971.8	NA	0.0000		9999	1350	0	0	0
2019/04/15 18:25:01	BASE	7.35	281	9.98	257	-0.2	100	-0.2	52	0	971.8	NA	0.0000		9999	1350	0	0	0
2019/04/15 18:26:01	BASE	6.98	278	9.36	265	-0.2	100	-0.2	53	0	971.8	NA	0.0000		9999	1350	0	0	0
2019/04/15 18:27:01	BASE	6.76	276	9.36	265	-0.2	100	-0.2	52	0	971.8	NA	0.0000	UP	9999	1380	0	0	0
2019/04/15 18:28:01	BASE	6.64	274	8.85	276	-0.2	100	-0.2	51	0	971.8	NA	0.0000	UP	9000	1840	0	0	0
2019/04/15 18:29:01	BASE	6.91	271	8.85	276	-0.2	100	-0.2	51	0	971.8	NA	0.0000	UP BR	6000	430	0	0	0
2019/04/15 18:30:01	BASE	6.53	275	8.54	280	-0.2	100	-0.2	51	0	971.8	NA	0.0000	UP BR	7000	390	0	0	0
2019/04/15 18:31:01	BASE	5.18	273	8.54	280	-0.2	100	-0.2	51	0	971.8	NA	0.0000	UP BR	7000	360	0	0	0
2019/04/15 18:32:01	BASE	4.85	273	8.54	280	-0.2	100	-0.2	51	0	971.8	NA	0.0000	UP BR	6000	390	0	0	0
2019/04/15 18:33:01	BASE	5.66	278	8.54	280	-0.2	100	-0.2	51	0	971.8	NA	0.0000	UP BR	6000	390	0	0	0
2019/04/15 18:34:01	BASE	5.78	277	8.44	271	-0.2	100	-0.2	52	0	971.8	NA	0.0000	UP BR	7000	430	0	0	0
2019/04/15 18:35:01	BASE	5.48	277	8.44	271	-0.2	100	-0.2	53	0	971.8	NA	0.0000	UP BR	8000	360	0	0	0
2019/04/15 18:36:01	BASE	5.57	276	8.44	271	-0.2	100	-0.2	53	0	971.8	NA	0.0000	UP BR	4900	330	0	0	0
2019/04/15 18:37:01	BASE	5.59	280	8.44	271	-0.2	100	-0.2	53	0	971.8	NA	0.0000	UP BR	3600	330	0	0	0
2019/04/15 18:38:01	BASE	5.38	284	8.44	271	-0.2	100	-0.2	52	0	971.8	NA	0.0000	UP BR	3900	330	0	0	0
2019/04/15 18:39:01	BASE	5.23	285	7.51	272	-0.2	100	-0.2	53	0	971.8	NA	0.0000	UP BR	4100	330	1870	0	0
2019/04/15 18:40:01	BASE	5.01	288	6.94	263	-0.2	100	-0.2	53	0	971.8	NA	0.0000	UP BR	4400	360	0	0	0
2019/04/15 18:41:01	BASE	4.91	287	6.94	263	-0.2	100	-0.2	53	0	971.8	NA	0.0000	UP BR	5000	360	1940	0	0
2019/04/15 18:42:01	BASE	5.29	284	6.94	263	-0.2	100	-0.2	53	0	971.9	NA	0.0000	UP BR	7000	360	0	0	0
2019/04/15 18:43:01	BASE	5.15	282	6.74	281	-0.2	100	-0.2	55	0	972.0	NA	0.0000	UP BR	7000	330	0	0	0
2019/04/15 18:44:01	BASE	4.74	286	6.74	281	-0.3	100	-0.3	56	0	972.0	NA	0.0000	UP BR	7000	330	0	0	0
2019/04/15 18:45:01	BASE	4.78	288	6.74	281	-0.3	100	-0.3	59	0	972.0	NA	0.0000	UP BR	6000	360	0	0	0
2019/04/15 18:46:01	BASE	4.75	282	6.12	291	-0.3	100	-0.3	61	0	972.0	NA	0.0000	UP BR	5000	330	0	0	0
2019/04/15 18:47:01	BASE	4.74	277	6.12	291	-0.3	100	-0.3	63	0	972.0	NA	0.0000	UP BR	4500	300	0	0	0
2019/04/15 18:48:01	BASE	4.15	285	6.12	291	-0.3	100	-0.3	67	0	972.0	NA	0.0000	UP BR	3600	260	0	0	0
2019/04/15 18:49:01	BASE	3.69	290	6.12	291	-0.3	100	-0.3	70	0	972.0	NA	0.0000	UP BR	3700	300	0	0	0
2019/04/15 18:50:01	BASE	3.77	292	6.12	291	-0.3	100	-0.3	72	0	972.0	NA	0.0000	UP BR	3900	330	0	0	0
2019/04/15 18:51:01	BASE	3.76	301	6.12	291	-0.3	100	-0.3	74	0	972.0	NA	0.0000	UP BR	4200	330	0	0	0
2019/04/15 18:52:01	BASE	3.75	306	5.97	267	-0.3	100	-0.3	75	0	972.0	NA	0.0000	UP BR	4200	330	0	0	0
2019/04/15 18:53:01	BASE	3.76	308	5.97	267	-0.3	100	-0.3	75	0	972.0	NA	0.0000	UP BR	5000	330	0	0	0
2019/04/15 18:54:01	BASE	3.81	310	5.97	267	-0.3	100	-0.3	73	0	972.0	NA	0.0000	UP BR	6000	300	0	0	0
2019/04/15 18:55:01	BASE	3.93	312	5.97	267	-0.4	100	-0.4	71	0	972.0	NA	0.0000	UP BR	6000	300	0	0	0
2019/04/15 18:56:01	BASE	3.89	315	5.97	267	-0.4	100	-0.4	68	0	972.0	NA	0.0000	UP BR	6000	0	0	0	2490
2019/04/15 18:57:01	BASE	3.96	321	4.68	322	-0.4	100	-0.4	66	0	972.0	NA	0.0000	UP BR	5000	950	0	0	0
2019/04/15 18:58:01	BASE	4.06	326	4.68	322	-0.4	100	-0.4	63	0	972.1	NA	0.0000	UP BR	5000	260	0	0	0
2019/04/15 18:59:01	BASE	3.99	329	4.78	327	-0.4	100	-0.4	60	0	972.1	NA	0.0000	UP BR	5000	0	0	0	2100
2019/04/15 19:00:01	BASE	4.15	331	4.78	327	-0.4	100	-0.4	58	0	972.1	NA	0.0000	UP BR	5000	0	0	0	2230
2019/04/15 19:01:01	BASE	4.17	331	4.78	327	-0.4	100	-0.4	57	0	972.1	NA	0.0000	UP BR	5000	260	0	0	0
2019/04/15 19:02:01	BASE	4.14	335	4.78	327	-0.5	100	-0.5	55	0	972.1	NA	0.0000	UP BR	5000	300	0	0	0
2019/04/15 19:03:01	BASE	4.31	337	4.94	323	-0.5	100	-0.5	54	0	972.1	NA	0.0000	UP BR	5000	330	0	0	0
2019/04/15 19:04:01	BASE	4.46	329	4.99	319	-0.5	100	-0.5	52	0	972.1	NA	0.0000	UP BR	7000	330	0	0	0
2019/04/15 19:05:01	BASE	4.30	322	4.99	319	-0.5	100	-0.5	49	0	972.1	NA	0.0000	UP BR	8000	300	0	0	0
2019/04/15 19:06:01	BASE	4.47	322	5.14	327	-0.5	100	-0.5	46	1	972.1	NA	0.0000	UP BR	8000	0	0	0	1740
2019/04/15 19:07:01	BASE	4.95	325	5.61	325	-0.5	100	-0.5	43	0	972.1	NA	0.0000	UP BR	4900	0	0	0	1670
2019/04/15 19:08:01	BASE	5.45	322	6.48	313	-0.5	100	-0.5	40	0	972.2	NA	0.0000	UP BR	3700	0	0	0	1570
2019/04/15 19:09:00	BASE	5.49	320	6.48	313	-0.5	100	-0.5	38	0	972.2	NA	0.0000	UP BR	3700	0	0	0	1510
2019/04/15 19:10:01	BASE	5.41	322	6.48	313	-0.6	100	-0.6	36	0	972.2	NA	0.0000	UP BR	3700	0	0	0	1480
2019/04/15 19:11:00	BASE	5.75	321	6.64	312	-0.6	100	-0.6	34	0	972.2	NA	0.0000	UP BR	3700	0	0	0	1480
2019/04/15 19:12:01	BASE	5.99	319	6.64	312	-0.6	100	-0.6	33	0	972.2	NA	0.0000	UP BR	3400	0	0	0	1380
2019/04/15 19:13:01	BASE	6.26	319	7.05	321	-0.6	100	-0.6	32	0	972.2	NA	0.0000	UP BR	3400	22310	0	0	0
2019/04/15 19:14:00	BASE	6.35	322	7.15	327	-0.6	100	-0.6	30	0	972.3	NA	0.0000	UP BR	3700	0	0	0	1410
2019/04/15 19:15:01	BASE	6.54	323	7.31	320	-0.6	100	-0.6	30	1	972.3	NA	0.0000	UP BR	4100	0	0	0	1310
2019/04/15 19:16:01	BASE	6.60	323	7.31	320	-0.6	100	-0.6	31	0	972.3	NA	0.0000	UP BR	3700	0	0	0	1210
2019/04/15 19:17:00	BASE	6.61	320	7.31	320	-0.6	100	-0.6	34	0	972.3	NA	0.0000	UP BR	2800	0	0	0	1310
2019/04/15 19:18:00	BASE	6.71	317	7.31	320	-0.7	100	-0.7	37	0	972.3	NA	0.0000	UP BR	2500	0	0	0	1510
2019/04/15 19:19:00	BASE	6.32	317	7.31	320	-0.7	100	-0.7	39	1	972.3	NA	0.0000	UP BR	2700	0	0	0	1540
2019/04/15 19:20:00	BASE	6.09	319	7.31	320	-0.7	100	-0.7	41	0	972.3	NA	0.0000	UP BR	2800	0	0	0	1510
2019/04/15 19:21:00	BASE	6.01	322	7.31	320	-0.8	100	-0.8	42	0	972.3	NA	0.0000	UP BR	2800	0	0	0	2990
2019/04/15 19:22:00	BASE	6.21	324	7.31	320	-0.8	100	-0.8	41	1	972.3	NA	0.0000	UP BR	2800	0	0	0	3450
2019/04/15 19:23:00	BASE	6.49	325	7.31	320	-0.8	100	-0.8	39	1	972.3	NA	0.0000	UP BR	2800	0	0	0	3180
2019/04/15 19:24:00	BASE	6.42	328	7.31	320	-0.7	100	-0.7	38	0	972.3	NA	0.0000	UP BR	2800	330	0	0	0
2019/04/15 19:25:00	BASE	5.91	329	7.10	320	-0.7	100	-0.7	37	0	972.3	NA	0.0000	UP BR	2800	300	0	0	0
2019/04/15 19:26:01	BASE	5.66	329	7.00	313	-0.7	100	-0.7	35	0	972.3	NA	0.0000	UP BR	2800	1800	0	0	0
2019/04/15 19:27:00	BASE	5.58	329	7.00	313	-0.7	100	-0.7	33	0	972.3	NA	0.0000	UP BR	2800	0	0	0	2430
2019/04/15 19:28:00	BASE	5.52	331	6.89	323	-0.7	100	-0.7	32	1	972.3	NA	0.0000	BR	2800	0	0	0	2560
2019/04/15 19:29:00	BASE	5.77	332	6.89	323	-0.7	100	-0.7	31	0	972.3	NA	0.0000	BR	2800	0	0	0	2560
2019/04/15 19:30:01	BASE	6.01	332	6.89	323	-0.7	100	-0.7	31	0	972.3	NA	0.0000	BR	2800	360	0	0	0
2019/04/15 19:31:00	BASE	6.45	334	6.89	323	-0.7	100	-0.7	30	0	972.3	NA	0.0000	BR	2800	360	0	0	0
2019/04/15 19:32:00	BASE	6.81	334	7.25	331	-0.7	100	-0.7	30	0	972.3	NA	0.0000	BR	2800	360	0	0	0
2019/04/15 19:33:00	BASE	6.94	335	7.25	331	-0.7	100	-0.7	29	0	972.3	NA	0.0000	BR	2800	360	0	0	0
2019/04/15 19:34:00	BASE	6.66	339	7.25	331	-0.7	100	-0.7	29	0	972.3	NA	0.0000	BR	2800	2100	0	0	0
2019/04/15 19:35:00	BASE	6.47	339	7.25	331	-0.7	100	-0.7	28	0	972.3	NA	0.0000	BR	2800	2100	0	0	0
2019/04/15 19:36:00	BASE	6.38	338	7.25	331	-0.7	100	-0.7	28	0	972.4	NA	0.0000	BR	2800	2030	0	0	0
2019/04/15 19:37:00	BASE	6.25	339	7.25	331	-0.7	100	-0.7	28	0	972.4	NA	0.0000	BR	2800	2070	0	0	0
2019/04/15 19:38:00	BASE	6.32	340	7.25	331	-0.7	100	-0.7	27	0	972.4	NA	0.0000	BR	2800	2170	0	0	0
2019/04/15 19:39:00	BASE	6.53	342	7.25	344	-0.7	100	-0.7	26	0	972.4	NA	0.0000	BR	2800	2330	0	0	0
2019/04/15 19:40:00	BASE	6.89	345	7.67	336	-0.7	100	-0.7	25	0	972.4	NA	0.0000	BR	5000	1870	0	0	0
2019/04/15 19:41:00	BASE	7.21	343	7.97	336	-0.7	100	-0.7	22	0	972.5	NA	0.0000	BR	9999	1970	2530	0	0
2019/04/15 19:42:01	BASE	7.20	342	7.97	336	-0.7	100	-0.7	21	0	972.6	NA	0.0000	BR	9999	360	1940	0	0
2019/04/15 19:43:00	BASE	7.40	345	8.13	343	-0.7	100	-0.7	19	0	972.6	NA	0.0000	BR	9999	460	1900	0	0
2019/04/15 19:44:00	BASE	7.69	346	8.13	343	-0.8	100	-0.8	18	0	972.6	NA	0.0000	BR	9999	430	1870	0	0
2019/04/15 19:45:00	BASE	7.92	347	8.64	345	-0.8	100	-0.8	19	0	972.6	NA	0.0000	BR	9999	360	2070	0	0
2019/04/15 19:46:00	BASE	8.11	345	8.64	345	-0.8	100	-0.8	20	0	972.6	NA	0.0000	BR	9999	300	2130	0	0
2019/04/15 19:47:01	BASE	7.77	344	8.64	345	-0.8	100	-0.8	21	0	972.6	NA	0.0000	BR	9999	360	2070	0	0
2019/04/15 19:48:00	BASE	7.42	346	8.80	338	-0.8	100	-0.8	22	0	972.6	NA	0.0000	BR	9999	390	2030	0	0
2019/04/15 19:49:00	BASE	7.40	347	8.80	338	-0.8	100	-0.8	22	0	972.6	NA	0.0000	BR	9999	1940	0	0	0
2019/04/15 19:50:00	BASE	7.16	347	8.80	338	-0.8	100	-0.8	21	0	972.7	NA	0.0000		9999	1210	0	0	0
2019/04/15 19:51:00	BASE	6.74	349	8.80	338	-0.8	100	-0.8	20	0	972.7	NA	0.0000		9999	1670	0	0	0
2019/04/15 19:52:00	BASE	7.04	351	8.80	338	-0.8	100	-0.8	17	0	972.6	NA	0.0000		9999	1640	0	0	0
2019/04/15 19:53:00	BASE	7.63	351	8.80	338	-0.8	100	-0.8	14	0	972.6	NA	0.0000		9999	1840	0	0	0
2019/04/15 19:54:00	BASE	7.63	351	8.80	338	-0.8	100	-0.8	12	0	972.6	NA	0.0000		9999	1670	0	0	0
2019/04/15 19:55:00	BASE	7.24	351	8.80	338	-0.8	100	-0.8	10	0	972.7	NA	0.0000		9999	1800	0	0	0
2019/04/15 19:56:00	BASE	7.00	349	8.80	338	-0.8	100	-0.8	9	0	972.7	NA	0.0000		9999	1740	0	0	0
2019/04/15 19:57:00	BASE	7.15	348	8.80	338	-0.8	100	-0.8	8	0	972.7	NA	0.0000		9999	1640	0	0	0
2019/04/15 19:58:00	BASE	7.37	344	8.18	353	-0.8	100	-0.8	7	0	972.7	NA	0.0000		9999	1670	0	0	0
2019/04/15 19:59:00	BASE	6.92	342	8.18	353	-0.8	100	-0.8	6	0	972.7	NA	0.0000		9999	1670	0	0	0
2019/04/15 20:00:00	BASE	6.50	342	8.18	353	-0.8	100	-0.8	6	0	972.7	NA	0.0000		9999	1610	0	0	0
2019/04/15 20:01:00	BASE	6.62	342	8.18	353	-0.8	100	-0.8	6	0	972.6	NA	0.0000		9999	1640	0	0	0
2019/04/15 20:02:00	BASE	6.80	341	8.18	353	-0.8	100	-0.8	6	0	972.6	NA	0.0000		9999	1640	0	0	0
2019/04/15 20:03:00	BASE	6.82	340	8.18	353	-0.8	100	-0.8	5	0	972.6	NA	0.0000		9999	1570	0	0	0
2019/04/15 20:04:00	BASE	6.49	337	7.92	352	-0.8	100	-0.8	5	0	972.7	NA	0.0000		9999	1570	0	0	0
2019/04/15 20:05:00	BASE	6.21	336	7.82	338	-0.8	100	-0.8	5	0	972.7	NA	0.0000		9999	1610	0	0	0
2019/04/15 20:06:00	BASE	6.10	337	7.82	338	-0.8	100	-0.8	5	0	972.7	NA	0.0000		9999	1540	0	0	0
2019/04/15 20:07:00	BASE	6.07	337	7.82	338	-0.8	100	-0.8	5	0	972.6	NA	0.0000		9999	1440	0	0	0
2019/04/15 20:08:00	BASE	5.70	335	7.61	338	-0.8	100	-0.8	5	0	972.7	NA	0.0000		9999	1800	0	0	0
2019/04/15 20:09:00	BASE	5.42	333	7.61	338	-0.8	100	-0.8	5	0	972.6	NA	0.0000		9999	1740	0	0	0
2019/04/15 20:10:00	BASE	5.32	333	7.61	338	-0.8	100	-0.8	5	0	972.6	NA	0.0000		9999	750	0	0	0
2019/04/15 20:11:00	BASE	5.02	335	7.61	338	-0.8	100	-0.8	5	0	972.6	NA	0.0000		9999	1640	0	0	0
2019/04/15 20:12:00	BASE	4.84	337	7.20	343	-0.8	100	-0.8	5	0	972.6	NA	0.0000		9999	2070	0	0	0
2019/04/15 20:13:00	BASE	4.73	338	6.58	336	-0.8	100	-0.8	5	0	972.6	NA	0.0000		9999	2200	0	0	0
2019/04/15 20:14:00	BASE	4.76	339	6.58	336	-0.8	100	-0.8	5	0	972.6	NA	0.0000		9999	2300	0	0	0
2019/04/15 20:15:00	BASE	4.80	339	6.48	337	-0.8	100	-0.8	5	0	972.6	NA	0.0000		9999	2170	0	0	0
2019/04/15 20:16:03	BASE	4.88	339	6.38	339	-0.8	100	-0.8	5	0	M	NA	0.0000		9999	2170	0	0	0
2019/04/15 20:17:00	BASE	4.74	335	5.92	336	-0.8	100	-0.8	5	0	972.6	NA	0.0000		9999	2070	0	0	0
2019/04/15 20:18:00	BASE	4.51	335	5.92	336	-0.8	100	-0.8	5	0	972.7	NA	0.0000		9999	2130	0	0	0
2019/04/15 20:19:00	BASE	4.11	333	5.40	337	-0.8	100	-0.8	5	0	972.7	NA	0.0000		9999	720	0	0	0
2019/04/15 20:20:00	BASE	4.03	333	5.40	337	-0.8	100	-0.8	5	0	972.7	NA	0.0000		9999	2490	0	0	0
2019/04/15 20:21:00	BASE	4.61	335	5.40	337	-0.8	100	-0.8	5	0	972.7	NA	0.0000		9999	2330	0	0	0
2019/04/15 20:22:00	BASE	4.39	336	5.40	337	-0.7	100	-0.7	5	0	972.7	NA	0.0000		9999	2430	0	0	0
2019/04/15 20:23:00	BASE	4.50	340	5.71	345	-0.7	100	-0.7	5	0	972.7	NA	0.0000		9999	2230	0	0	0
2019/04/15 20:24:00	BASE	5.42	340	6.22	339	-0.7	100	-0.7	4	0	972.7	NA	0.0000		9999	2170	0	0	0
2019/04/15 20:25:00	BASE	5.40	339	6.22	339	-0.7	100	-0.7	4	0	972.7	NA	0.0000		9999	1970	0	0	0
2019/04/15 20:26:00	BASE	5.05	340	6.22	339	-0.7	100	-0.7	4	0	972.7	NA	0.0000		9999	1900	0	0	0
2019/04/15 20:27:00	BASE	5.25	338	6.53	333	-0.7	100	-0.7	4	0	972.7	NA	0.0000		9999	1800	0	0	0
2019/04/15 20:28:00	BASE	5.00	337	6.53	333	-0.7	100	-0.7	4	0	972.7	NA	0.0000		9999	1510	0	0	0
2019/04/15 20:29:00	BASE	4.93	341	6.53	333	-0.7	100	-0.7	4	0	972.7	NA	0.0000		9999	1250	0	0	0
2019/04/15 20:30:00	BASE	5.55	334	6.64	297	-0.6	100	-0.6	4	0	972.7	NA	0.0000		9999	1670	0	0	0
2019/04/15 20:31:00	BASE	5.38	325	6.64	297	-0.6	100	-0.6	4	0	972.8	NA	0.0000		9999	1610	0	0	0
2019/04/15 20:32:00	BASE	5.41	328	6.84	330	-0.6	100	-0.6	4	0	972.7	NA	0.0000		9999	1570	0	0	0
2019/04/15 20:33:00	BASE	5.86	332	6.84	330	-0.6	100	-0.6	4	0	972.8	NA	0.0000		9999	1670	0	0	0
2019/04/15 20:34:00	BASE	5.72	328	6.84	330	-0.6	100	-0.6	4	0	972.8	NA	0.0000		9999	1670	0	0	0
2019/04/15 20:35:00	BASE	5.22	324	6.84	330	-0.6	100	-0.6	4	0	972.8	NA	0.0000		9999	2130	0	0	0
2019/04/15 20:36:00	BASE	4.67	323	6.84	330	-0.6	100	-0.6	4	0	972.8	NA	0.0000		9999	1570	0	0	0
2019/04/15 20:37:00	BASE	4.30	329	6.84	330	-0.6	100	-0.6	4	0	972.8	NA	0.0000		9999	2130	0	0	0
2019/04/15 20:38:00	BASE	4.32	334	6.84	330	-0.6	100	-0.6	4	0	972.8	NA	0.0000		9999	1940	0	0	0
2019/04/15 20:39:00	BASE	4.53	331	6.84	330	-0.6	100	-0.6	4	0	972.8	NA	0.0000		9999	1570	0	0	0
2019/04/15 20:40:00	BASE	4.22	325	6.84	330	-0.6	100	-0.6	4	0	972.8	NA	0.0000		9999	1350	0	0	0
2019/04/15 20:41:00	BASE	3.40	327	6.84	330	-0.6	100	-0.6	4	0	972.8	NA	0.0000		9999	1480	2200	0	0
2019/04/15 20:42:00	BASE	3.37	335	6.43	328	-0.6	100	-0.6	4	0	972.9	NA	0.0000		9999	2330	0	0	0
2019/04/15 20:43:00	BASE	3.95	334	6.22	321	-0.6	100	-0.6	4	0	972.9	NA	0.0000		9999	2330	0	0	0
2019/04/15 20:44:00	BASE	4.03	326	5.97	320	-0.6	100	-0.6	4	0	972.9	NA	0.0000		9999	2360	0	0	0
2019/04/15 20:45:00	BASE	3.53	327	5.30	320	-0.6	100	-0.6	4	0	972.9	NA	0.0000		9999	2130	0	0	0
2019/04/15 20:46:00	BASE	3.40	334	5.04	332	-0.6	100	-0.6	3	0	972.9	NA	0.0000		9999	2230	0	0	0
2019/04/15 20:47:00	BASE	3.81	337	5.04	332	-0.6	100	-0.6	3	0	972.9	NA	0.0000		9999	2330	0	0	0
2019/04/15 20:48:00	BASE	3.71	342	4.73	328	-0.6	100	-0.6	3	0	972.9	NA	0.0000		9999	2490	0	0	0
2019/04/15 20:49:00	BASE	3.70	348	4.58	328	-0.6	100	-0.6	3	0	972.9	NA	0.0000		9999	2620	0	0	0
2019/04/15 20:50:00	BASE	3.79	354	4.48	328	-0.6	100	-0.6	3	0	972.9	NA	0.0000		9999	2620	0	0	0
2019/04/15 20:51:00	BASE	3.81	354	4.53	341	-0.6	100	-0.6	3	0	972.9	NA	0.0000		9999	2720	0	0	0
2019/04/15 20:52:00	BASE	4.03	350	5.20	330	-0.6	100	-0.6	3	0	972.9	NA	0.0000		9999	2660	0	0	0
2019/04/15 20:53:00	BASE	4.38	348	5.20	330	-0.6	100	-0.6	3	0	972.9	NA	0.0000		9999	2620	0	0	0
2019/04/15 20:54:00	BASE	4.53	350	5.20	330	-0.6	100	-0.6	3	0	972.9	NA	0.0000		9999	2690	0	0	0
2019/04/15 20:55:00	BASE	4.44	348	5.20	330	-0.6	100	-0.6	3	0	972.9	NA	0.0000		9999	2720	0	0	0
2019/04/15 20:56:00	BASE	4.47	340	5.20	330	-0.6	100	-0.6	3	0	972.9	NA	0.0000		9999	2620	0	0	0
2019/04/15 20:57:00	BASE	4.00	338	5.20	330	-0.6	100	-0.6	2	0	972.9	NA	0.0000		9999	2620	0	0	0
2019/04/15 20:58:00	BASE	3.83	343	5.40	346	-0.6	100	-0.6	2	0	972.9	NA	0.0000		9999	2590	0	0	0
2019/04/15 20:59:00	BASE	4.14	348	5.40	346	-0.6	100	-0.6	2	0	972.9	NA	0.0000		9999	2560	0	0	0
2019/04/15 21:00:00	BASE	4.12	347	5.40	346	-0.6	100	-0.6	2	0	972.9	NA	0.0000		9999	2560	0	0	0
2019/04/15 21:01:00	BASE	4.07	342	5.40	346	-0.6	100	-0.6	2	0	972.9	NA	0.0000		9999	2620	0	0	0
2019/04/15 21:02:00	BASE	3.51	338	5.40	346	-0.6	100	-0.6	2	0	972.9	NA	0.0000		9999	2690	0	0	0
2019/04/15 21:03:00	BASE	2.92	339	5.40	346	-0.6	100	-0.6	2	0	972.9	NA	0.0000		9999	2790	0	0	0
2019/04/15 21:04:00	BASE	3.26	342	5.40	346	-0.6	100	-0.6	2	0	972.9	NA	0.0000		9999	2820	0	0	0
2019/04/15 21:05:00	BASE	3.66	349	5.40	346	-0.6	100	-0.6	2	0	972.9	NA	0.0000		9999	2820	0	0	0
2019/04/15 21:06:00	BASE	4.07	353	5.40	346	-0.5	100	-0.5	1	0	972.9	NA	0.0000		9999	2820	0	0	0
2019/04/15 21:07:00	BASE	4.48	350	5.40	346	-0.5	100	-0.5	1	0	972.9	NA	0.0000		9999	2850	0	0	0
2019/04/15 21:08:00	BASE	4.29	349	5.35	344	-0.5	100	-0.5	1	0	972.9	NA	0.0000		9999	2820	0	0	0
2019/04/15 21:09:00	BASE	4.30	344	5.35	344	-0.5	100	-0.5	1	0	972.9	NA	0.0000		9999	2790	3540	0	0
2019/04/15 21:10:00	BASE	4.03	343	5.35	344	-0.5	100	-0.5	1	0	972.9	NA	0.0000		9999	2820	3770	0	0
2019/04/15 21:11:00	BASE	3.53	348	5.35	344	-0.5	100	-0.5	1	0	972.9	NA	0.0000		9999	2890	0	0	0
2019/04/15 21:12:00	BASE	3.53	349	5.35	344	-0.5	100	-0.5	1	0	972.9	NA	0.0000		9999	3450	0	0	0
2019/04/15 21:13:00	BASE	3.91	350	5.35	344	-0.5	100	-0.5	1	0	972.9	NA	0.0000		9999	3480	0	0	0
2019/04/15 21:14:00	BASE	4.28	350	5.35	344	-0.5	100	-0.5	1	0	972.9	NA	0.0000		9999	3080	0	0	0
2019/04/15 21:15:00	BASE	4.13	347	5.35	344	-0.5	100	-0.5	1	0	972.9	NA	0.0000		9999	3120	3610	0	0
2019/04/15 21:16:00	BASE	3.82	345	5.30	338	-0.5	100	-0.5	1	0	972.9	NA	0.0000		9999	3150	0	0	0
2019/04/15 21:17:00	BASE	3.85	347	5.14	338	-0.4	100	-0.4	1	0	972.9	NA	0.0000		9999	3180	0	0	0
2019/04/15 21:18:00	BASE	4.40	347	5.14	338	-0.4	100	-0.4	1	0	972.9	NA	0.0000		9999	3250	0	0	0
2019/04/15 21:19:00	BASE	4.72	343	4.99	350	-0.4	100	-0.4	1	0	972.9	NA	0.0000		9999	3220	0	0	0
2019/04/15 21:20:00	BASE	4.37	340	4.99	350	-0.4	100	-0.4	0	0	972.9	NA	0.0000		9999	3220	0	0	0
2019/04/15 21:21:00	BASE	4.25	342	4.99	350	-0.4	100	-0.4	0	0	972.9	NA	0.0000		9999	3250	0	0	0
2019/04/15 21:22:00	BASE	4.52	341	4.99	332	-0.4	100	-0.4	0	0	972.9	NA	0.0000		9999	3150	0	0	0
2019/04/15 21:23:00	BASE	4.38	341	4.99	332	-0.4	100	-0.4	0	0	972.9	NA	0.0000		9999	3120	0	0	0
2019/04/15 21:24:00	BASE	3.98	346	4.99	332	-0.4	100	-0.4	0	0	972.9	NA	0.0000		9999	3150	0	0	0
2019/04/15 21:25:00	BASE	4.40	349	5.50	344	-0.4	100	-0.4	0	0	972.9	NA	0.0000		9999	3150	0	0	0
2019/04/15 21:26:00	BASE	4.90	348	5.50	344	-0.4	100	-0.4	0	0	972.9	NA	0.0000		9999	3150	0	0	0
2019/04/15 21:27:00	BASE	4.77	347	5.50	344	-0.4	100	-0.4	0	0	972.9	NA	0.0000		9999	3080	0	0	0
2019/04/15 21:28:00	BASE	4.92	345	6.22	338	-0.4	100	-0.4	0	0	972.9	NA	0.0000		9999	3410	0	0	0
2019/04/15 21:29:00	BASE	4.71	346	6.22	338	-0.4	100	-0.4	0	0	972.9	NA	0.0000		9999	3380	0	0	0
2019/04/15 21:30:00	BASE	4.21	348	6.22	338	-0.4	100	-0.4	0	0	972.9	NA	0.0000		9999	1250	3410	0	0
2019/04/15 21:31:00	BASE	4.17	348	6.22	338	-0.4	100	-0.4	0	0	972.9	NA	0.0000		9999	3480	0	0	0
2019/04/15 21:32:00	BASE	4.44	352	6.22	338	-0.4	100	-0.4	0	0	972.9	NA	0.0000		9999	3640	0	0	0
2019/04/15 21:33:00	BASE	4.64	355	6.22	338	-0.4	100	-0.4	0	0	972.9	NA	0.0000		9999	3710	0	0	0
2019/04/15 21:34:00	BASE	4.15	351	6.22	338	-0.4	100	-0.4	0	0	972.9	NA	0.0000		9999	2720	3740	0	0
2019/04/15 21:35:00	BASE	3.83	351	6.22	338	-0.4	100	-0.4	0	0	972.9	NA	0.0000		9999	2660	3710	0	0
2019/04/15 21:36:00	BASE	4.22	351	6.22	338	-0.4	100	-0.4	0	0	972.9	NA	0.0000		9999	2690	3740	0	0
2019/04/15 21:37:00	BASE	4.30	350	6.22	338	-0.4	100	-0.4	0	0	972.9	NA	0.0000		9999	2660	0	0	0
2019/04/15 21:38:00	BASE	4.36	351	5.20	346	-0.4	100	-0.4	0	0	972.9	NA	0.0000		9999	2690	3670	0	0
2019/04/15 21:39:00	BASE	4.51	352	5.20	346	-0.4	100	-0.4	0	0	972.9	NA	0.0000		9999	2530	0	0	0
2019/04/15 21:40:00	BASE	4.96	350	6.89	345	-0.4	100	-0.4	0	0	972.9	NA	0.0000		9999	2460	0	0	0
2019/04/15 21:41:00	BASE	5.00	341	6.89	345	-0.4	100	-0.4	0	0	972.9	NA	0.0000		9999	2490	0	0	0
2019/04/15 21:42:00	BASE	4.20	336	6.89	345	-0.4	100	-0.4	0	0	972.9	NA	0.0000		9999	2530	0	0	0
2019/04/15 21:43:00	BASE	4.17	341	6.89	345	-0.4	100	-0.4	0	0	972.9	NA	0.0000		9999	2530	0	0	0
2019/04/15 21:44:00	BASE	4.24	345	6.89	345	-0.4	100	-0.4	0	0	972.9	NA	0.0000		9999	2620	0	0	0
2019/04/15 21:45:00	BASE	3.77	353	6.89	345	-0.3	100	-0.3	0	0	972.9	NA	0.0000		9999	2620	0	0	0
2019/04/15 21:46:00	BASE	3.80	349	6.89	345	-0.3	100	-0.3	0	0	972.9	NA	0.0000		9999	2560	0	0	0
2019/04/15 21:47:00	BASE	3.79	334	6.89	345	-0.3	100	-0.3	0	0	972.9	NA	0.0000		9999	2560	0	0	0
2019/04/15 21:48:00	BASE	3.23	331	6.89	345	-0.3	100	-0.3	0	0	972.9	NA	0.0000		9999	2490	0	0	0
2019/04/15 21:49:00	BASE	3.61	335	6.89	345	-0.3	100	-0.3	0	0	972.9	NA	0.0000		9999	2430	0	0	0
2019/04/15 21:50:00	BASE	3.79	333	4.94	335	-0.3	100	-0.3	0	0	972.9	NA	0.0000		9999	2620	3670	0	0
2019/04/15 21:51:00	BASE	3.00	324	4.78	332	-0.3	100	-0.3	0	0	973.0	NA	0.0000		9999	1740	3540	0	0
2019/04/15 21:52:00	BASE	3.20	330	5.25	337	-0.3	100	-0.3	0	0	972.9	NA	0.0000		9999	2000	3540	0	0
2019/04/15 21:53:00	BASE	4.24	342	5.35	328	-0.3	100	-0.3	0	0	972.9	NA	0.0000		9999	3480	0	0	0
2019/04/15 21:54:00	BASE	4.33	347	5.35	328	-0.3	100	-0.3	0	0	972.9	NA	0.0000		9999	3480	0	0	0
2019/04/15 21:55:00	BASE	4.21	343	5.35	328	-0.3	100	-0.3	0	0	972.9	NA	0.0000		9999	3450	0	0	0
2019/04/15 21:56:00	BASE	4.63	337	5.35	328	-0.3	100	-0.3	0	0	972.9	NA	0.0000		9999	3510	0	0	0
2019/04/15 21:57:00	BASE	4.45	342	5.35	328	-0.3	100	-0.3	0	0	972.9	NA	0.0000		9999	2200	3410	0	0
2019/04/15 21:58:00	BASE	4.12	343	5.35	328	-0.3	100	-0.3	0	0	972.9	NA	0.0000		9999	3220	0	0	0
2019/04/15 21:59:00	BASE	5.05	344	7.20	342	-0.3	100	-0.3	0	0	972.9	NA	0.0000		9999	3180	0	0	0
2019/04/15 22:00:00	BASE	6.01	341	7.20	342	-0.3	100	-0.3	0	0	972.9	NA	0.0000		9999	3280	0	0	0
2019/04/15 22:01:00	BASE	5.81	336	7.20	342	-0.3	100	-0.3	0	0	972.9	NA	0.0000		9999	3480	0	0	0
2019/04/15 22:02:00	BASE	5.31	338	7.20	342	-0.3	100	-0.3	0	0	973.0	NA	0.0000		9999	3480	4860	0	0
2019/04/15 22:03:00	BASE	5.29	341	7.20	342	-0.3	100	-0.3	0	0	973.0	NA	0.0000		9999	3480	0	0	0
2019/04/15 22:04:00	BASE	5.10	342	7.20	342	-0.3	100	-0.3	0	0	973.0	NA	0.0000		9999	3540	0	0	0
2019/04/15 22:05:00	BASE	5.19	338	7.20	342	-0.3	100	-0.3	0	0	973.0	NA	0.0000		9999	3740	0	0	0
2019/04/15 22:06:00	BASE	5.22	335	7.20	342	-0.3	100	-0.3	0	0	973.0	NA	0.0000		9999	3770	0	0	0
2019/04/15 22:07:00	BASE	4.28	338	7.20	342	-0.3	100	-0.3	0	0	973.0	NA	0.0000		9999	3810	0	0	0
2019/04/15 22:08:00	BASE	3.98	336	7.20	342	-0.3	100	-0.3	0	0	973.0	NA	0.0000		9999	2530	3870	0	0
2019/04/15 22:09:00	BASE	4.38	339	6.69	329	-0.3	100	-0.3	0	0	973.0	NA	0.0000		9999	2360	3770	0	0
2019/04/15 22:10:00	BASE	4.47	345	6.17	331	-0.3	100	-0.3	0	0	973.1	NA	0.0000		9999	2330	0	0	0
2019/04/15 22:11:00	BASE	4.11	343	6.02	332	-0.3	100	-0.3	0	0	973.2	NA	0.0000		9999	2330	0	0	0
2019/04/15 22:12:00	BASE	3.86	342	6.02	332	-0.3	100	-0.3	0	0	973.2	NA	0.0000		9999	3710	0	0	0
2019/04/15 22:13:00	BASE	3.57	344	6.02	332	-0.3	100	-0.3	0	0	973.2	NA	0.0000		9999	2530	3740	0	0
2019/04/15 22:14:00	BASE	4.04	344	6.02	332	-0.3	100	-0.3	0	0	973.2	NA	0.0000		9999	2430	3770	0	0
2019/04/15 22:15:00	BASE	4.91	340	5.61	332	-0.3	100	-0.3	0	0	973.2	NA	0.0000		9999	2430	3710	0	0
2019/04/15 22:16:00	BASE	5.28	336	6.12	323	-0.3	100	-0.3	0	0	973.1	NA	0.0000		9999	3740	0	0	0
2019/04/15 22:17:00	BASE	5.33	333	6.12	323	-0.3	100	-0.3	0	0	973.1	NA	0.0000		9999	3710	0	0	0
2019/04/15 22:18:00	BASE	4.37	331	6.12	323	-0.3	100	-0.3	0	0	973.2	NA	0.0000		9999	2560	3740	0	0
2019/04/15 22:19:00	BASE	3.46	336	6.12	323	-0.3	100	-0.3	0	0	973.2	NA	0.0000		9999	2530	3740	0	0
2019/04/15 22:20:00	BASE	3.16	344	6.12	323	-0.3	100	-0.3	0	0	973.2	NA	0.0000		9999	2530	3770	0	0
2019/04/15 22:21:00	BASE	3.19	344	6.12	323	-0.2	100	-0.2	0	0	973.2	NA	0.0000		9999	3640	0	0	0
2019/04/15 22:22:00	BASE	3.18	340	6.12	323	-0.2	100	-0.2	0	0	973.2	NA	0.0000		9999	3740	4360	4990	0
2019/04/15 22:23:00	BASE	3.02	339	6.12	323	-0.3	100	-0.3	0	0	973.2	NA	0.0000		9999	2690	3710	4950	0
2019/04/15 22:24:00	BASE	3.19	341	6.12	323	-0.3	100	-0.3	0	0	973.2	NA	0.0000		9999	3640	0	0	0
2019/04/15 22:25:00	BASE	3.07	339	6.12	323	-0.3	100	-0.3	0	0	973.2	NA	0.0000		9999	3710	0	0	0
2019/04/15 22:26:00	BASE	2.65	336	5.71	332	-0.3	100	-0.3	0	0	973.1	NA	0.0000		9999	3740	0	0	0
2019/04/15 22:27:00	BASE	2.56	335	5.14	324	-0.3	100	-0.3	0	0	973.1	NA	0.0000		9999	3710	0	0	0
2019/04/15 22:28:00	BASE	2.73	333	3.91	346	-0.3	100	-0.3	0	0	973.2	NA	0.0000		9999	3740	0	0	0
2019/04/15 22:29:00	BASE	3.17	332	3.91	338	-0.3	100	-0.3	0	0	973.1	NA	0.0000		9999	2760	4950	0	0
2019/04/15 22:30:00	BASE	3.67	336	4.01	339	-0.3	100	-0.3	0	0	973.0	NA	0.0000		9999	2660	3770	5050	0
2019/04/15 22:31:00	BASE	3.87	336	4.12	335	-0.3	100	-0.3	0	0	973.0	NA	0.0000		9999	2660	3810	5050	0
2019/04/15 22:32:00	BASE	3.77	335	4.12	335	-0.3	100	-0.3	0	0	973.0	NA	0.0000		9999	2620	4040	4920	0
2019/04/15 22:33:00	BASE	3.78	333	4.17	328	-0.3	100	-0.3	0	0	973.0	NA	0.0000		9999	3640	5020	0	0
2019/04/15 22:34:00	BASE	3.70	333	4.17	328	-0.3	100	-0.3	0	0	973.0	NA	0.0000		9999	3610	0	0	0
2019/04/15 22:35:00	BASE	3.32	333	4.17	328	-0.3	100	-0.3	0	0	973.0	NA	0.0000		9999	2590	3740	0	0
2019/04/15 22:36:00	BASE	3.27	335	4.17	328	-0.3	100	-0.3	0	0	973.0	NA	0.0000		9999	2560	3670	0	0
2019/04/15 22:37:00	BASE	3.43	337	4.17	328	-0.3	100	-0.4	0	0	973.0	NA	0.0000		9999	2590	3640	0	0
2019/04/15 22:38:00	BASE	3.24	335	4.17	328	-0.4	100	-0.4	0	0	973.0	NA	0.0000		9999	2620	3640	0	0
2019/04/15 22:39:00	BASE	2.84	333	4.17	328	-0.4	100	-0.4	0	0	972.9	NA	0.0000		9999	3580	0	0	0
2019/04/15 22:40:00	BASE	2.68	328	4.17	328	-0.4	100	-0.4	0	0	972.9	NA	0.0000		9999	3640	0	0	0
2019/04/15 22:41:00	BASE	2.77	327	4.17	328	-0.4	100	-0.4	0	0	972.9	NA	0.0000		9999	3770	0	0	0
2019/04/15 22:42:00	BASE	2.82	333	4.17	328	-0.4	100	-0.4	0	0	972.9	NA	0.0000		9999	3740	0	0	0
2019/04/15 22:43:00	BASE	2.78	338	3.76	336	-0.4	100	-0.4	0	0	972.9	NA	0.0000		9999	3770	0	0	0
2019/04/15 22:44:00	BASE	2.82	339	3.76	336	-0.4	100	-0.4	0	0	973.0	NA	0.0000		9999	3710	0	0	0
2019/04/15 22:45:00	BASE	2.76	340	3.76	336	-0.4	100	-0.4	0	0	973.0	NA	0.0000		9999	2620	3540	0	0
2019/04/15 22:46:00	BASE	2.72	342	3.76	336	-0.5	100	-0.5	0	0	973.0	NA	0.0000		9999	2620	3580	0	0
2019/04/15 22:47:00	BASE	2.76	341	3.24	336	-0.5	100	-0.5	0	0	972.9	NA	0.0000		9999	2660	0	0	0
2019/04/15 22:48:00	BASE	2.81	342	3.19	343	-0.5	100	-0.5	0	0	972.9	NA	0.0000		9999	2690	3770	0	0
2019/04/15 22:49:00	BASE	3.08	347	3.34	351	-0.5	100	-0.5	0	0	972.9	NA	0.0000		9999	2660	3740	0	0
2019/04/15 22:50:00	BASE	3.42	347	3.76	340	-0.5	100	-0.5	0	0	972.9	NA	0.0000		9999	2620	3770	0	0
2019/04/15 22:51:00	BASE	3.28	345	3.76	340	-0.5	100	-0.5	0	0	972.9	NA	0.0000		9999	2850	0	0	0
2019/04/15 22:52:00	BASE	3.29	346	3.76	340	-0.5	100	-0.5	0	0	972.9	NA	0.0000		9999	3580	0	0	0
2019/04/15 22:53:00	BASE	3.61	344	4.17	339	-0.5	100	-0.5	0	0	972.9	NA	0.0000		9999	3580	0	0	0
2019/04/15 22:54:00	BASE	3.81	342	4.22	339	-0.5	100	-0.5	0	0	972.9	NA	0.0000		9999	2820	3740	0	0
2019/04/15 22:55:00	BASE	3.96	344	4.22	345	-0.5	100	-0.5	0	0	972.9	NA	0.0000		9999	2720	3810	0	0
2019/04/15 22:56:00	BASE	4.06	344	4.27	341	-0.5	100	-0.5	0	0	972.9	NA	0.0000		9999	2760	3810	0	0
2019/04/15 22:57:00	BASE	3.95	344	4.27	341	-0.5	100	-0.5	0	0	972.9	NA	0.0000		9999	2690	3670	0	0
2019/04/15 22:58:00	BASE	3.62	347	4.27	341	-0.5	100	-0.5	0	0	972.9	NA	0.0000		9999	2660	3710	0	0
2019/04/15 22:59:00	BASE	3.34	349	4.27	341	-0.5	100	-0.5	0	0	972.9	NA	0.0000		9999	3580	0	0	0
2019/04/15 23:00:00	BASE	3.09	353	4.27	341	-0.5	100	-0.5	0	0	972.9	NA	0.0000		9999	3580	0	0	0
2019/04/15 23:01:00	BASE	2.96	351	4.27	341	-0.5	100	-0.5	0	0	972.9	NA	0.0000		9999	3540	0	0	0
2019/04/15 23:02:00	BASE	2.98	342	4.27	341	-0.6	100	-0.6	0	0	972.9	NA	0.0000		9999	3610	0	0	0
2019/04/15 23:03:00	BASE	2.89	340	4.27	341	-0.6	100	-0.6	0	0	972.9	NA	0.0000		9999	3480	0	0	0
2019/04/15 23:04:00	BASE	2.71	339	4.27	341	-0.6	100	-0.6	0	0	972.9	NA	0.0000		9999	3510	0	0	0
2019/04/15 23:05:00	BASE	2.61	336	4.27	341	-0.6	100	-0.6	0	0	972.9	NA	0.0000		9999	3510	0	0	0
2019/04/15 23:06:00	BASE	2.43	335	4.06	343	-0.6	100	-0.6	0	0	972.9	NA	0.0000		9999	3410	0	0	0
2019/04/15 23:07:00	BASE	2.47	338	3.76	350	-0.5	100	-0.5	0	0	972.9	NA	0.0000		9999	3450	0	0	0
2019/04/15 23:08:00	BASE	2.78	337	3.40	348	-0.5	100	-0.5	0	0	972.9	NA	0.0000		9999	3540	0	0	0
2019/04/15 23:09:00	BASE	2.86	335	3.14	338	-0.5	100	-0.5	0	0	972.9	NA	0.0000		9999	3580	0	0	0
2019/04/15 23:10:00	BASE	2.84	335	3.14	338	-0.5	100	-0.5	0	0	972.9	NA	0.0000		9999	3580	0	0	0
2019/04/15 23:11:00	BASE	2.90	335	3.14	338	-0.5	100	-0.5	0	0	972.9	NA	0.0000		9999	3610	0	0	0
2019/04/15 23:12:00	BASE	3.12	336	3.81	330	-0.5	100	-0.5	0	0	972.9	NA	0.0000		9999	3610	0	0	0
2019/04/15 23:13:00	BASE	3.39	336	3.91	335	-0.5	100	-0.5	0	0	972.9	NA	0.0000		9999	3740	0	0	0
2019/04/15 23:14:00	BASE	3.36	339	3.91	335	-0.5	100	-0.5	0	0	972.9	NA	0.0000		9999	3640	0	0	0
2019/04/15 23:15:00	BASE	3.15	345	3.91	335	-0.5	100	-0.5	0	0	972.9	NA	0.0000		9999	2070	3640	0	0
2019/04/15 23:16:00	BASE	3.01	348	3.91	335	-0.5	100	-0.5	0	0	972.9	NA	0.0000		9999	2070	3640	0	0
2019/04/15 23:17:00	BASE	2.83	354	3.91	335	-0.5	100	-0.5	0	0	972.9	NA	0.0000		9999	3640	0	0	0
2019/04/15 23:18:00	BASE	2.50	1	3.91	335	-0.5	100	-0.5	0	0	972.9	NA	0.0000		9999	3580	0	0	0
2019/04/15 23:19:00	BASE	2.43	2	3.91	335	-0.5	100	-0.5	0	0	972.9	NA	0.0000		9999	3580	0	0	0
2019/04/15 23:20:00	BASE	2.52	356	3.91	335	-0.5	100	-0.5	0	0	972.9	NA	0.0000		9999	3640	0	0	0
2019/04/15 23:21:00	BASE	2.29	358	3.91	335	-0.5	100	-0.5	0	0	972.9	NA	0.0000		9999	3380	0	0	0
2019/04/15 23:22:00	BASE	2.08	2	3.91	335	-0.5	100	-0.5	0	0	972.9	NA	0.0000		9999	3480	4200	0	0
2019/04/15 23:23:00	BASE	1.96	358	3.34	342	-0.5	100	-0.5	0	0	972.9	NA	0.0000		9999	3670	0	0	0
2019/04/15 23:24:00	BASE	1.89	1	3.19	349	-0.5	100	-0.5	0	0	972.9	NA	0.0000		9999	3810	0	0	0
2019/04/15 23:25:00	BASE	2.19	5	3.19	349	-0.5	100	-0.5	0	0	972.9	NA	0.0000		9999	3740	0	0	0
2019/04/15 23:26:00	BASE	2.59	0	2.83	360	-0.5	100	-0.5	0	0	972.9	NA	0.0000		9999	3670	0	0	0
2019/04/15 23:27:00	BASE	2.71	1	2.83	354	-0.5	100	-0.5	0	0	972.9	NA	0.0000		9999	3670	0	0	0
2019/04/15 23:28:00	BASE	2.69	2	2.83	354	-0.5	100	-0.5	0	0	972.9	NA	0.0000		9999	3740	0	0	0
2019/04/15 23:29:00	BASE	2.74	1	2.98	3	-0.6	100	-0.6	0	0	972.9	NA	0.0000		9999	3770	0	0	0
2019/04/15 23:30:00	BASE	2.90	1	3.09	360	-0.6	100	-0.6	0	0	972.9	NA	0.0000		9999	3640	0	0	0
2019/04/15 23:31:00	BASE	2.94	0	3.09	354	-0.6	100	-0.6	0	0	972.9	NA	0.0000		9999	3610	0	0	0
2019/04/15 23:32:00	BASE	2.92	1	3.09	353	-0.6	100	-0.6	0	0	972.9	NA	0.0000		9999	3870	0	0	0
2019/04/15 23:33:00	BASE	2.82	3	3.09	353	-0.5	100	-0.5	0	0	972.9	NA	0.0000		9999	0	0	0	0
2019/04/15 23:34:00	BASE	2.52	6	3.09	353	-0.5	100	-0.5	0	0	972.9	NA	0.0000		9999	0	0	0	0
2019/04/15 23:35:00	BASE	2.42	7	3.09	353	-0.5	100	-0.5	0	0	972.9	NA	0.0000		9999	3810	0	0	0
2019/04/15 23:36:00	BASE	2.55	5	3.09	353	-0.5	100	-0.5	0	0	972.9	NA	0.0000		9999	3710	0	0	0
2019/04/15 23:37:00	BASE	2.54	6	3.09	353	-0.5	100	-0.5	0	0	972.9	NA	0.0000		9999	3710	0	0	0
2019/04/15 23:38:00	BASE	2.45	5	3.09	353	-0.5	100	-0.5	0	0	972.9	NA	0.0000		9999	3670	0	0	0
2019/04/15 23:39:00	BASE	2.41	359	3.09	353	-0.6	100	-0.6	0	0	972.9	NA	0.0000		9999	1800	0	0	0
2019/04/15 23:40:00	BASE	2.29	353	3.09	353	-0.6	100	-0.6	0	0	972.9	NA	0.0000		9999	1800	3840	0	0
2019/04/15 23:41:00	BASE	2.04	350	3.09	353	-0.6	100	-0.6	0	0	972.9	NA	0.0000		9999	1740	0	0	0
2019/04/15 23:42:00	BASE	1.98	350	2.98	5	-0.6	100	-0.6	0	0	972.9	NA	0.0000		9999	1740	0	0	0
2019/04/15 23:43:00	BASE	1.99	353	2.83	7	-0.6	100	-0.6	0	0	972.9	NA	0.0000		9999	1740	0	0	0
2019/04/15 23:44:00	BASE	1.90	354	2.83	7	-0.6	100	-0.6	0	0	972.9	NA	0.0000		9999	1710	0	0	0
2019/04/15 23:45:00	BASE	1.69	358	2.83	7	-0.6	100	-0.6	0	0	972.9	NA	0.0000		9999	1710	0	0	0
2019/04/15 23:46:00	BASE	1.60	358	2.83	7	-0.6	100	-0.6	0	0	972.9	NA	0.0000		9999	1710	0	0	0
2019/04/15 23:47:00	BASE	1.74	352	2.68	354	-0.6	100	-0.6	0	0	972.9	NA	0.0000		9999	1670	0	0	0
2019/04/15 23:48:00	BASE	1.79	345	2.68	354	-0.6	100	-0.6	0	0	972.9	NA	0.0000		9999	0	0	0	0
2019/04/15 23:49:00	BASE	1.81	342	2.52	360	-0.6	100	-0.6	0	0	972.9	NA	0.0000		9999	0	0	0	0
2019/04/15 23:50:00	BASE	1.76	343	2.52	360	-0.6	100	-0.6	0	0	972.9	NA	0.0000		9999	2030	0	0	0
2019/04/15 23:51:00	BASE	1.71	345	2.52	360	-0.6	100	-0.6	0	0	972.9	NA	0.0000		9999	2030	0	0	0
2019/04/15 23:52:00	BASE	1.76	348	2.16	355	-0.6	100	-0.6	0	0	972.9	NA	0.0000		9999	2030	0	0	0
2019/04/15 23:53:00	BASE	1.76	350	2.06	352	-0.6	100	-0.6	0	0	972.9	NA	0.0000		9999	2030	0	0	0
2019/04/15 23:54:00	BASE	1.74	354	1.95	341	-0.6	100	-0.6	0	0	972.9	NA	0.0000		9999	2030	0	0	0
2019/04/15 23:55:00	BASE	1.79	358	1.95	1	-0.6	100	-0.6	0	0	972.9	NA	0.0000		9999	2030	0	0	0
2019/04/15 23:56:00	BASE	1.94	360	2.31	2	-0.6	100	-0.6	0	0	972.9	NA	0.0000		9999	2070	0	0	0
2019/04/15 23:57:00	BASE	1.93	2	2.31	2	-0.6	100	-0.6	0	0	972.9	NA	0.0000		9999	0	0	0	0
2019/04/15 23:58:00	BASE	1.77	6	2.31	2	-0.6	100	-0.6	0	0	972.9	NA	0.0000		9999	2100	0	0	0
2019/04/15 23:59:00	BASE	1.75	5	2.31	2	-0.6	100	-0.6	0	0	972.9	NA	0.0000		9999	1940	0	0	0